[[{"header":{"parameterUnit":"m.s-1","parameterCategory":1,"la1":31.0,"la2":29.5877,"lo1":-88.7671,"lo2":-86.6584,"dy":0.0162,"dx":0.0185,"nx":115,"ny":88,"refTime":"2024-02-11T12:00:00:Z","depth":0,"parameterNumber":2,"parameterNumberName":"U-component_of_WINDS"},"data":[0.0,0.0,0.0,0.0,0.0,0.0,0.0,0.0,0.0,0.0,0.0,0.0,0.0,0.0,0.0,0.0,0.0,0.0,0.0,0.0,0.0,0.0,0.0,0.0,0.0,0.0,0.0,0.0,0.0,0.0,0.0,0.0,0.0,0.0,0.0,0.0,0.0,0.0,0.0,0.0,0.0,0.0,0.0,0.0,0.0,0.0,0.0,0.0,0.0,0.0,0.0,0.0,0.0,0.0,0.0,0.0,0.0,0.0,0.0,0.0,0.0,0.0,0.0,0.0,0.0,0.0,0.0,0.0,0.0,0.0,0.0,0.0,0.0,0.0,0.0,0.0,0.0,0.0,0.0,0.0,0.0,0.0,0.0,0.0,0.0,0.0,0.0,0.0,0.0,0.0,0.0,0.0,0.0,0.0,0.0,0.0,0.0,0.0,0.0,0.0,0.0,0.0,0.0,0.0,0.0,0.0,0.0,0.0,0.0,0.0,0.0,0.0,0.0,0.0,0.0,0.0,0.0,0.0,0.0,0.0,0.0,0.0,0.0,0.0,0.0,0.0,0.0,0.0,0.0,0.0,0.0,0.0,0.0,0.0,0.0,0.0,0.0,0.0,0.0,0.0,0.0,0.0,0.0,0.0,0.0,0.0,0.0,0.0,0.0,0.0,0.0,0.0,0.0,0.0,0.0,0.0,0.0,0.0,0.0,0.0,0.0,0.0,0.0,0.0,0.0,0.0,0.0,0.0,0.0,0.0,0.0,0.0,0.0,0.0,0.0,0.0,0.0,0.0,0.0,0.0,0.0,0.0,0.0,0.0,0.0,0.0,0.0,0.0,0.0,0.0,0.0,0.0,0.0,0.0,0.0,0.0,0.0,0.0,0.0,0.0,0.0,0.0,0.0,0.0,0.0,0.0,0.0,0.0,0.0,0.0,0.0,0.0,0.0,0.0,0.0,0.0,0.0,0.0,0.0,0.0,0.0,0.0,0.0,0.0,0.0,0.0,0.0,0.0,0.0,0.0,0.0,0.0,0.0,0.0,0.0,0.0,0.0,0.0,0.0,0.0,0.0,0.0,0.0,0.0,0.0,0.0,0.0,0.0,0.0,0.0,0.0,0.0,0.0,0.0,0.0,0.0,0.0,0.0,0.0,0.0,0.0,0.0,0.0,0.0,0.0,0.0,0.0,0.0,0.0,0.0,0.0,0.0,0.0,0.0,0.0,0.0,0.0,0.0,0.0,0.0,0.0,0.0,0.0,0.0,0.0,0.0,0.0,0.0,0.0,0.0,0.0,0.0,0.0,0.0,0.0,0.0,0.0,0.0,0.0,0.0,0.0,0.0,0.0,0.0,0.0,0.0,0.0,0.0,0.0,0.0,0.0,0.0,0.0,0.0,0.0,0.0,0.0,0.0,0.0,0.0,0.0,0.0,0.0,0.0,0.0,0.0,0.0,0.0,0.0,0.0,0.0,0.0,0.0,0.0,0.0,0.0,0.0,0.0,0.0,0.0,0.0,0.0,0.0,0.0,0.0,0.0,0.0,0.0,0.0,0.0,0.0,0.0,0.0,0.0,0.0,0.0,0.0,0.0,0.0,0.0,0.0,0.0,0.0,0.0,0.0,0.0,0.0,0.0,0.0,0.0,0.0,0.0,0.0,0.0,0.0,0.0,0.0,0.0,0.0,0.0,0.0,0.0,0.0,0.0,0.0,0.0,0.0,0.0,0.0,0.0,0.0,0.0,0.0,0.0,0.0,0.0,0.0,0.0,0.0,0.0,0.0,0.0,0.0,0.0,0.0,0.0,0.0,0.0,0.0,0.0,0.0,0.0,0.0,0.0,0.0,0.0,0.0,0.0,0.0,0.0,0.0,0.0,0.0,0.0,0.0,0.0,0.0,0.0,0.0,0.0,0.0,0.0,0.0,0.0,0.0,0.0,0.0,0.0,0.0,0.0,0.0,0.0,0.0,0.0,0.0,0.0,0.0,0.0,0.0,0.0,0.0,0.0,0.0,0.0,0.0,0.0,0.0,0.0,0.0,0.0,0.0,0.0,0.0,0.0,0.0,0.0,0.0,0.0,0.0,0.0,0.0,0.0,0.0,0.0,0.0,0.0,0.0,0.0,0.0,0.0,0.0,0.0,0.0,0.0,0.0,0.0,0.0,0.0,0.0,0.0,0.0,0.0,0.0,0.0,0.0,0.0,0.0,0.0,0.0,0.0,0.0,0.0,0.0,0.0,0.0,0.0,0.0,0.0,0.0,0.0,0.0,0.0,0.0,0.0,0.0,0.0,0.0,0.0,0.0,0.0,0.0,0.0,0.0,0.0,0.0,0.0,0.0,0.0,0.0,0.0,0.0,0.0,0.0,0.0,0.0,0.0,0.0,0.0,0.0,0.0,0.0,0.0,0.0,0.0,0.0,0.0,0.0,0.0,0.0,0.0,0.0,0.0,0.0,0.0,0.0,0.0,0.0,0.0,0.0,0.0,0.0,0.0,0.0,0.0,0.0,0.0,0.0,0.0,0.0,0.0,0.0,0.0,0.0,0.0,0.0,0.0,0.0,0.0,0.0,0.0,0.0,0.0,0.0,0.0,0.0,0.0,0.0,0.0,0.0,0.0,0.0,0.0,0.0,0.0,0.0,0.0,0.0,0.0,0.0,0.0,0.0,0.0,0.0,0.0,0.0,0.0,0.0,0.0,0.0,0.0,0.0,0.0,0.0,0.0,0.0,0.0,0.0,0.0,0.0,0.0,0.0,0.0,0.0,0.0,0.0,0.0,0.0,0.0,0.0,0.0,0.0,0.0,0.0,0.0,0.0,0.0,0.0,0.0,0.0,0.0,0.0,0.0,0.0,0.0,0.0,0.0,0.0,0.0,0.0,0.0,0.0,0.0,0.0,0.0,0.0,0.0,0.0,0.0,0.0,0.0,0.0,0.0,0.0,0.0,0.0,0.0,0.0,0.0,0.0,0.0,0.0,0.0,0.0,0.0,0.0,0.0,0.0,0.0,0.0,0.0,0.0,0.0,0.0,0.0,0.0,0.0,0.0,0.0,0.0,0.0,0.0,0.0,0.0,0.0,0.0,0.0,0.0,0.0,0.0,0.0,0.0,0.0,0.0,0.0,0.0,0.0,0.0,0.0,0.0,0.0,0.0,0.0,0.0,0.0,0.0,0.0,0.0,0.0,0.0,0.0,0.0,0.0,0.0,0.0,0.0,0.0,0.0,0.0,0.0,0.0,0.0,0.0,0.0,0.0,0.0,0.0,0.0,0.0,0.0,0.0,0.0,0.0,0.0,0.0,0.0,0.0,0.0,0.0,0.0,0.0,0.0,0.0,0.0,0.0,0.0,0.0,0.0,0.0,0.0,0.0,0.0,0.0,0.0,0.0,0.0,0.0,0.0,0.0,0.0,0.0,0.0,0.0,0.0,0.0,0.0,0.0,0.0,0.0,0.0,0.0,0.0,0.0,0.0,0.0,0.0,0.0,0.0,0.0,0.0,0.0,0.0,0.0,0.0,0.0,0.0,0.0,0.0,0.0,0.0,0.0,0.0,0.0,0.0,0.0,0.0,0.0,0.0,0.0,0.0,0.0,0.0,0.0,0.0,0.0,0.0,0.0,0.0,0.0,0.0,0.0,0.0,0.0,0.0,0.0,0.0,0.0,0.0,0.0,0.0,0.0,0.0,0.0,0.0,0.0,0.0,0.0,0.0,0.0,0.0,0.0,0.0,0.0,0.0,0.0,0.0,0.0,0.0,0.0,0.0,0.0,0.0,0.0,0.0,0.0,0.0,0.0,0.0,0.0,0.0,0.0,0.0,0.0,0.0,0.0,0.0,0.0,0.0,0.0,0.0,0.0,0.0,0.0,0.0,0.0,0.0,0.0,0.0,0.0,0.0,0.0,0.0,0.0,0.0,0.0,0.0,0.0,0.0,0.0,0.0,0.0,0.0,0.0,0.0,0.0,0.0,0.0,0.0,0.0,0.0,0.0,0.0,0.0,0.0,0.0,0.0,0.0,0.0,0.0,0.0,0.0,0.0,0.0,0.0,0.0,0.0,0.0,0.0,0.0,0.0,0.0,0.0,0.0,0.0,0.0,0.0,0.0,0.0,0.0,0.0,0.0,0.0,0.0,0.0,0.0,0.0,0.0,0.0,0.0,0.0,0.0,0.0,0.0,0.0,0.0,0.0,0.0,0.0,0.0,0.0,0.0,0.0,0.0,0.0,0.0,0.0,0.0,0.0,0.0,0.0,0.0,0.0,0.0,0.0,0.0,0.0,0.0,-0.9995,0.0,0.0,0.0,0.0,0.0,0.0,0.0,0.0,0.0,0.0,0.0,0.0,0.0,0.0,0.0,0.0,0.0,0.0,0.0,0.0,0.0,0.0,0.0,0.0,0.0,0.0,0.0,0.0,0.0,0.0,0.0,0.0,0.0,0.0,0.0,0.0,0.0,0.0,0.0,0.0,0.0,0.0,0.0,0.0,0.0,0.0,0.0,0.0,0.0,0.0,0.0,0.0,0.0,0.0,0.0,0.0,0.0,0.0,0.0,0.0,0.0,0.0,0.0,0.0,0.0,0.0,0.0,0.0,0.0,0.0,0.0,0.0,0.0,0.0,0.0,0.0,0.0,0.0,0.0,0.0,0.0,0.0,0.0,0.0,0.0,0.0,0.0,0.0,0.0,0.0,0.0,0.0,0.0,0.0,0.0,0.0,0.0,0.0,0.0,0.0,0.0,0.0,0.0,0.0,0.0,0.0,0.0,0.0,0.0,0.0,-0.6367,-0.6141,-0.816,-0.8897,-0.8089,0.0,0.0,0.0,0.0,0.0,0.0,0.0,0.0,0.0,0.0,0.0,0.0,0.0,0.0,0.0,0.0,0.0,0.0,0.0,0.0,0.0,0.0,0.0,0.0,0.0,0.0,0.0,0.0,0.0,0.0,0.0,0.0,0.0,0.0,0.0,0.0,0.0,0.0,0.0,0.0,0.0,0.0,0.0,0.0,0.0,0.0,0.0,0.0,0.0,0.0,0.0,0.0,0.0,0.0,0.0,0.0,0.0,0.0,0.0,0.0,0.0,0.0,0.0,0.0,0.0,0.0,0.0,0.0,0.0,0.0,0.0,0.0,0.0,0.0,0.0,0.0,0.0,0.0,0.0,0.0,0.0,0.0,0.0,0.0,0.0,0.0,0.0,0.0,0.0,0.0,0.0,0.0,0.0,0.0,0.0,0.0,0.0,0.0,0.0,0.0,0.0,0.0,0.0,0.0,0.0,0.0,0.0,0.0,0.0,0.0,0.0,0.0,-0.6428,-0.6704,-0.6896,0.0,0.0,0.0,0.0,0.0,0.0,0.0,0.0,0.0,0.0,0.0,0.0,0.0,0.0,0.0,0.0,0.0,0.0,0.0,0.0,0.0,0.0,0.0,0.0,0.0,0.0,0.0,0.0,0.0,0.0,0.0,0.0,0.0,0.0,0.0,0.0,0.0,0.0,0.0,0.0,0.0,0.0,0.0,0.0,0.0,0.0,0.0,0.0,0.0,0.0,0.0,0.0,0.0,0.0,0.0,0.0,0.0,0.0,0.0,0.0,0.0,0.0,0.0,0.0,0.0,0.0,0.0,0.0,0.0,0.0,0.0,0.0,0.0,0.0,0.0,0.0,0.0,0.0,0.0,0.0,0.0,0.0,0.0,0.0,0.0,0.0,0.0,0.0,0.0,0.0,0.0,0.0,0.0,0.0,0.0,0.0,0.0,0.0,0.0,0.0,0.0,0.0,0.0,0.0,0.0,0.0,0.0,0.0,0.0,0.0,-0.5357,-0.9481,-0.5316,0.0,-0.727,0.0,0.0,0.0,0.0,0.0,0.0,0.0,0.0,0.0,0.0,0.0,0.0,0.0,0.0,0.0,0.0,0.0,0.0,0.0,0.0,0.0,0.0,0.0,0.0,0.0,0.0,0.0,0.0,0.0,0.0,0.0,0.0,0.0,0.0,0.0,0.0,0.0,0.0,0.0,0.0,0.0,0.0,0.0,0.0,0.0,0.0,0.0,0.0,0.0,0.0,0.0,0.0,0.0,0.0,0.0,0.0,0.0,0.0,0.0,0.0,0.0,0.0,0.0,0.0,0.0,0.0,0.0,0.0,0.0,0.0,0.0,0.0,0.0,0.0,0.0,0.0,0.0,0.0,0.0,0.0,0.0,0.0,0.0,0.0,0.0,0.0,0.0,0.0,0.0,0.0,0.0,0.0,0.0,0.0,0.0,0.0,0.0,0.0,0.0,0.0,0.0,0.0,0.0,0.0,0.0,0.0,0.0,0.0,0.0,0.0,-0.7276,-0.9374,-0.7458,-0.8383,0.0,0.0,0.0,0.0,0.0,0.0,0.0,0.0,0.0,0.0,0.0,0.0,0.0,0.0,0.0,0.0,0.0,0.0,0.0,0.0,0.0,0.0,0.0,0.0,0.0,0.0,0.0,0.0,0.0,0.0,0.0,0.0,0.0,0.0,0.0,0.0,0.0,0.0,0.0,0.0,0.0,0.0,0.0,0.0,0.0,0.0,0.0,0.0,0.0,0.0,0.0,0.0,0.0,0.0,0.0,0.0,0.0,0.0,0.0,0.0,0.0,0.0,0.0,0.0,0.0,0.0,0.0,0.0,0.0,0.0,0.0,0.0,0.0,0.0,0.0,0.0,0.0,0.0,0.0,0.0,0.0,0.0,0.0,0.0,0.0,0.0,0.0,0.0,0.0,0.0,0.0,0.0,0.0,0.0,0.0,0.0,0.0,0.0,0.0,0.0,0.0,0.0,0.0,0.0,0.0,0.0,0.0,0.0,0.0,0.0,-0.7535,-1.0062,-1.3092,-1.1887,-1.1747,-1.3093,0.0,0.0,0.0,0.0,0.0,0.0,0.0,0.0,0.0,0.0,0.0,0.0,0.0,0.0,0.0,0.0,0.0,0.0,0.0,0.0,0.0,0.0,0.0,0.0,0.0,0.0,0.0,0.0,0.0,0.0,0.0,0.0,0.0,0.0,0.0,0.0,0.0,0.0,0.0,0.0,0.0,0.0,0.0,0.0,0.0,0.0,0.0,0.0,0.0,0.0,0.0,0.0,0.0,0.0,0.0,0.0,0.0,0.0,0.0,0.0,0.0,0.0,0.0,0.0,0.0,0.0,0.0,0.0,0.0,0.0,0.0,0.0,0.0,0.0,0.0,0.0,0.0,0.0,0.0,0.0,0.0,0.0,0.0,0.0,0.0,0.0,0.0,0.0,0.0,0.0,0.0,0.0,0.0,0.0,0.0,0.0,0.0,0.0,0.0,0.0,0.0,0.0,0.0,0.0,0.0,0.0,0.0,0.0,-1.2748,-1.0303,-1.3829,-2.3564,-1.8743,-1.237,0.0,0.0,0.0,0.0,0.0,0.0,0.0,0.0,0.0,0.0,0.0,0.0,0.0,0.0,0.0,0.0,0.0,0.0,0.0,0.0,0.0,0.0,0.0,0.0,0.0,0.0,0.0,0.0,0.0,0.0,0.0,0.0,0.0,0.0,0.0,0.0,0.0,0.0,0.0,0.0,0.0,0.0,0.0,0.0,0.0,0.0,0.0,0.0,0.0,0.0,0.0,0.0,0.0,0.0,0.0,0.0,0.0,0.0,0.0,0.0,0.0,0.0,0.0,0.0,0.0,0.0,0.0,0.0,0.0,0.0,0.0,0.0,0.0,0.0,0.0,0.0,0.0,0.0,0.0,0.0,0.0,0.0,0.0,0.0,0.0,0.0,0.0,0.0,0.0,0.0,0.0,0.0,0.0,0.0,0.0,0.0,0.0,0.0,0.0,0.0,0.0,0.0,0.0,0.0,0.0,0.0,0.0,0.0,0.0,-0.6146,-0.9445,-1.4273,-2.034,-1.5435,-1.1163,0.0,0.0,0.0,0.0,0.0,0.0,0.0,0.0,0.0,0.0,0.0,0.0,0.0,0.0,0.0,0.0,0.0,0.0,0.0,0.0,0.0,0.0,0.0,0.0,0.0,0.0,0.0,0.0,0.0,0.0,0.0,0.0,0.0,0.0,0.0,0.0,0.0,0.0,0.0,0.0,0.0,0.0,0.0,0.0,0.0,0.0,0.0,0.0,0.0,0.0,0.0,0.0,0.0,0.0,0.0,0.0,0.0,0.0,0.0,0.0,0.0,0.0,0.0,0.0,0.0,0.0,0.0,0.0,0.0,0.0,0.0,0.0,0.0,0.0,0.0,0.0,0.0,0.0,0.0,0.0,0.0,0.0,0.0,0.0,0.0,0.0,0.0,0.0,0.0,0.0,0.0,0.0,0.0,0.0,0.0,0.0,0.0,0.0,0.0,0.0,0.0,0.0,0.0,0.0,0.0,0.0,0.0,0.0,0.0,-0.5572,0.0,-1.5741,-1.7084,-1.4088,-1.1397,0.0,0.0,0.0,0.0,0.0,0.0,0.0,0.0,0.0,0.0,0.0,0.0,0.0,0.0,0.0,0.0,0.0,0.0,0.0,0.0,0.0,0.0,0.0,0.0,0.0,0.0,0.0,0.0,0.0,0.0,0.0,0.0,0.0,0.0,0.0,0.0,0.0,0.0,0.0,0.0,0.0,0.0,0.0,0.0,0.0,0.0,0.0,0.0,0.0,0.0,0.0,0.0,0.0,0.0,0.0,0.0,0.0,0.0,0.0,0.0,0.0,0.0,0.0,0.0,0.0,0.0,0.0,0.0,0.0,0.0,0.0,0.0,0.0,0.0,0.0,0.0,0.0,0.0,0.0,0.0,0.0,0.0,0.0,0.0,0.0,0.0,0.0,0.0,0.0,0.0,0.0,0.0,0.0,0.0,0.0,0.0,0.0,0.0,0.0,0.0,0.0,0.0,0.0,0.0,0.0,0.0,0.0,0.0,-0.5432,-1.2798,-1.7301,-1.8114,-1.5229,-1.549,-1.3178,0.0,0.0,0.0,0.0,0.0,0.0,0.0,0.0,0.0,0.0,0.0,0.0,0.0,0.0,0.0,0.0,0.0,0.0,0.0,0.0,0.0,0.0,0.0,0.0,0.0,0.0,0.0,0.0,0.0,0.0,0.0,0.0,0.0,0.0,0.0,0.0,0.0,0.0,0.0,0.0,0.0,0.0,0.0,0.0,0.0,0.0,0.0,0.0,0.0,0.0,0.0,0.0,0.0,0.0,0.0,0.0,0.0,0.0,0.0,0.0,0.0,0.0,0.0,0.0,0.0,0.0,0.0,0.0,0.0,0.0,0.0,0.0,0.0,0.0,0.0,0.0,0.0,0.0,0.0,0.0,0.0,0.0,0.0,0.0,0.0,0.0,0.0,0.0,0.0,0.0,0.0,0.0,0.0,0.0,0.0,0.0,0.0,0.0,0.0,0.0,0.0,0.0,0.0,0.0,0.0,0.0,0.0,0.0,0.0,-1.0696,-1.409,-1.6675,-1.8183,-1.554,-1.3862,0.0,0.0,0.0,0.0,0.0,0.0,0.0,0.0,0.0,0.0,0.0,0.0,0.0,0.0,0.0,0.0,0.0,0.0,0.0,0.0,0.0,0.0,0.0,0.0,0.0,0.0,0.0,0.0,0.0,0.0,0.0,0.0,0.0,0.0,0.0,0.0,0.0,0.0,0.0,0.0,0.0,0.0,0.0,0.0,0.0,0.0,0.0,0.0,0.0,0.0,0.0,0.0,0.0,0.0,0.0,0.0,0.0,0.0,0.0,0.0,0.0,0.0,0.0,0.0,0.0,0.0,0.0,0.0,0.0,0.0,0.0,0.0,0.0,0.0,0.0,0.0,0.0,0.0,0.0,0.0,0.0,0.0,0.0,0.0,0.0,0.0,0.0,0.0,0.0,0.0,0.0,0.0,0.0,0.0,0.0,0.0,0.0,0.0,0.0,0.0,0.0,0.0,0.0,0.0,0.0,0.0,0.0,0.0,0.0,-1.2307,-1.5611,-1.8125,-1.9772,-1.669,-1.4904,-1.4588,0.0,0.0,0.0,0.0,0.0,0.0,0.0,0.0,0.0,0.0,0.0,0.0,0.0,0.0,0.0,0.0,0.0,0.0,0.0,0.0,0.0,0.0,0.0,0.0,0.0,0.0,0.0,0.0,0.0,0.0,0.0,0.0,0.0,0.0,0.0,0.0,0.0,0.0,0.0,0.0,0.0,0.0,0.0,0.0,0.0,0.0,0.0,0.0,0.0,0.0,0.0,0.0,0.0,0.0,0.0,0.0,0.0,0.0,0.0,0.0,0.0,0.0,0.0,0.0,0.0,0.0,0.0,0.0,0.0,0.0,0.0,0.0,0.0,0.0,0.0,0.0,0.0,0.0,0.0,0.0,0.0,0.0,0.0,0.0,0.0,0.0,0.0,0.0,0.0,0.0,0.0,0.0,0.0,0.0,0.0,0.0,0.0,0.0,0.0,0.0,0.0,0.0,0.0,0.0,0.0,0.0,0.0,0.0,-1.6536,-2.0572,-2.1652,-1.9916,-1.875,-1.6313,0.0,0.0,0.0,0.0,0.0,0.0,0.0,0.0,0.0,0.0,0.0,0.0,0.0,0.0,0.0,0.0,0.0,0.0,0.0,0.0,0.0,0.0,0.0,0.0,0.0,0.0,0.0,0.0,0.0,0.0,0.0,0.0,0.0,0.0,0.0,0.0,0.0,0.0,0.0,0.0,0.0,0.0,0.0,0.0,0.0,0.0,0.0,0.0,0.0,0.0,0.0,0.0,0.0,0.0,0.0,0.0,0.0,0.0,0.0,0.0,0.0,0.0,0.0,0.0,0.0,0.0,0.0,0.0,0.0,0.0,0.0,0.0,0.0,0.0,0.0,0.0,0.0,0.0,0.0,0.0,0.0,0.0,0.0,0.0,0.0,0.0,0.0,0.0,0.0,0.0,0.0,0.0,0.0,0.0,0.0,0.0,0.0,0.0,0.0,0.0,0.0,0.0,0.0,0.0,0.0,0.0,0.0,0.0,0.0,-1.5254,-1.7457,-1.9449,-2.1209,-1.9967,-1.7773,0.0,0.0,0.0,0.0,0.0,0.0,0.0,0.0,0.0,0.0,0.0,0.0,0.0,0.0,0.0,0.0,0.0,0.0,0.0,0.0,0.0,0.0,0.0,0.0,0.0,0.0,0.0,0.0,0.0,0.0,0.0,0.0,0.0,0.0,0.0,0.0,0.0,0.0,0.0,0.0,0.0,0.0,0.0,0.0,0.0,0.0,0.0,0.0,0.0,0.0,0.0,0.0,0.0,0.0,0.0,0.0,0.0,0.0,0.0,0.0,0.0,0.0,0.0,0.0,0.0,0.0,0.0,0.0,0.0,0.0,0.0,0.0,0.0,0.0,0.0,0.0,0.0,0.0,0.0,0.0,0.0,0.0,0.0,0.0,0.0,0.0,0.0,0.0,0.0,0.0,0.0,0.0,0.0,0.0,0.0,0.0,0.0,0.0,0.0,0.0,0.0,0.0,0.0,0.0,0.0,0.0,0.0,0.0,-1.0884,-1.4744,-1.5846,-1.7113,-1.8744,-1.8745,-1.7521,0.0,0.0,0.0,0.0,0.0,0.0,0.0,0.0,0.0,0.0,0.0,0.0,0.0,0.0,0.0,0.0,0.0,0.0,0.0,0.0,0.0,0.0,0.0,0.0,0.0,0.0,0.0,0.0,0.0,0.0,0.0,0.0,0.0,0.0,0.0,0.0,0.0,0.0,0.0,0.0,0.0,0.0,0.0,0.0,0.0,0.0,0.0,0.0,0.0,0.0,0.0,0.0,0.0,0.0,0.0,0.0,0.0,0.0,0.0,0.0,0.0,0.0,0.0,0.0,0.0,0.0,0.0,0.0,0.0,0.0,0.0,0.0,0.0,0.0,0.0,0.0,0.0,0.0,0.0,0.0,0.0,0.0,0.0,0.0,0.0,0.0,0.0,0.0,0.0,0.0,0.0,0.0,0.0,0.0,0.0,0.0,0.0,0.0,0.0,0.0,0.0,0.0,0.0,0.0,0.0,0.0,0.0,0.0,-1.055,-1.454,-1.4961,-1.49,-1.4452,-1.6349,-1.6215,0.0,0.0,0.0,0.0,0.0,0.0,0.0,0.0,0.0,0.0,0.0,0.0,0.0,0.0,0.0,0.0,0.0,0.0,0.0,0.0,0.0,0.0,0.0,0.0,0.0,0.0,0.0,0.0,0.0,0.0,0.0,0.0,0.0,0.0,0.0,0.0,0.0,0.0,0.0,0.0,0.0,0.0,0.0,0.0,0.0,0.0,0.0,0.0,0.0,0.0,0.0,0.0,0.0,0.0,0.0,0.0,0.0,0.0,0.0,0.0,0.0,0.0,0.0,0.0,0.0,0.0,0.0,0.0,0.0,0.0,0.0,0.0,0.0,0.0,0.0,0.0,0.0,0.0,0.0,0.0,0.0,0.0,0.0,0.0,0.0,0.0,0.0,0.0,0.0,0.0,0.0,0.0,0.0,0.0,0.0,0.0,0.0,0.0,0.0,0.0,0.0,0.0,0.0,0.0,0.0,0.0,0.0,0.0,-1.0085,-1.3557,-1.357,-1.354,-1.3548,-1.5757,-1.5087,0.0,0.0,0.0,0.0,0.0,0.0,0.0,0.0,0.0,0.0,0.0,0.0,0.0,0.0,0.0,0.0,0.0,0.0,0.0,0.0,0.0,0.0,0.0,0.0,0.0,0.0,0.0,0.0,0.0,0.0,0.0,0.0,0.0,0.0,0.0,0.0,0.0,0.0,0.0,0.0,0.0,0.0,0.0,0.0,0.0,0.0,0.0,0.0,0.0,0.0,0.0,0.0,0.0,0.0,0.0,0.0,0.0,0.0,0.0,0.0,0.0,0.0,0.0,0.0,0.0,0.0,0.0,0.0,0.0,0.0,0.0,0.0,0.0,0.0,0.0,0.0,0.0,0.0,0.0,0.0,0.0,0.0,0.0,0.0,0.0,0.0,0.0,0.0,0.0,0.0,0.0,0.0,0.0,0.0,0.0,0.0,0.0,0.0,0.0,0.0,0.0,0.0,0.0,0.0,0.0,0.0,0.0,0.0,-0.911,-1.1994,-1.2423,-1.225,-1.1651,-1.2923,-1.2434,0.0,0.0,0.0,0.0,0.0,0.0,0.0,0.0,0.0,0.0,0.0,0.0,0.0,0.0,0.0,0.0,0.0,0.0,0.0,0.0,0.0,0.0,0.0,0.0,0.0,0.0,0.0,0.0,0.0,0.0,0.0,0.0,0.0,0.0,0.0,0.0,0.0,0.0,0.0,0.0,0.0,0.0,0.0,0.0,0.0,0.0,0.0,0.0,0.0,0.0,0.0,0.0,0.0,0.0,0.0,0.0,0.0,0.0,0.0,0.0,0.0,0.0,0.0,0.0,0.0,0.0,0.0,0.0,0.0,0.0,0.0,0.0,0.0,0.0,0.0,0.0,0.0,0.0,0.0,0.0,0.0,0.0,0.0,0.0,0.0,0.0,0.0,0.0,0.0,0.0,0.0,0.0,0.0,0.0,0.0,0.0,0.0,0.0,0.0,0.0,0.0,0.0,0.0,0.0,0.0,0.0,0.0,-0.5394,-0.7868,-1.0367,-1.1384,-1.1142,-0.967,-0.9909,-0.9804,-0.9129,0.0,0.0,0.0,0.0,0.0,0.0,0.0,0.0,0.0,0.0,0.0,0.0,0.0,0.0,0.0,0.0,0.0,0.0,0.0,0.0,0.0,0.0,0.0,0.0,0.0,0.0,0.0,0.0,0.0,0.0,0.0,0.0,0.0,0.0,0.0,0.0,0.0,0.0,-0.0113,-0.0388,0.0,0.0,0.0,0.0,0.0,0.0,0.0,0.0,0.0,0.0,0.0,0.0,0.0,0.0,0.0,0.0,0.0,0.0,0.0,0.0,0.0,0.0,0.0,0.0,0.0,0.0,0.0,0.0,0.0,0.0,0.0,0.0,0.0,0.0,0.0,0.0,0.0,0.0,0.0,0.0,0.0,0.0,0.0,0.0,0.0,0.0,0.0,0.0,0.0,0.0,0.0,0.0,0.0,0.0,0.0,0.0,0.0,0.0,0.0,0.0,0.0,0.0,0.0,0.0,0.0,-0.2353,-0.4413,-0.6766,-0.937,-1.0416,-1.0533,-0.9743,-0.9909,-0.9553,-0.8453,0.0,0.0,0.0,0.0,0.0,0.0,0.0,0.0,0.0,0.0,0.0,0.0,0.0,0.0,0.0,0.0,0.0,0.0,0.0,0.0,0.0,0.0,0.0,0.0,0.0,0.0,0.0,0.0,0.0,0.0,0.0,0.0,0.0,0.0,0.0,0.0,0.0,0.0,0.0,-0.2035,-0.4502,0.0,0.0,0.0,0.0,0.0,0.0,0.0,0.0,0.0,0.0,0.0,0.0,0.0,0.0,0.0,0.0,0.0,0.0,0.0,0.0,0.0,0.0,0.0,0.0,0.0,0.0,0.0,0.0,0.0,0.0,0.0,0.0,0.0,0.0,0.0,0.0,0.0,0.0,0.0,0.0,0.0,0.0,0.0,0.0,0.0,0.0,0.0,0.0,0.0,0.0,0.0,0.0,0.0,0.0,0.0,0.0,0.0,0.0,0.0,0.0,0.0,0.0,0.0,0.0,-0.2169,-0.4139,-0.6337,-0.8757,-1.0235,-1.0654,-1.0044,-1.0395,-0.9657,0.0,0.0,0.0,0.0,0.0,0.0,0.0,0.0,0.0,0.0,0.0,0.0,0.0,0.0,0.0,0.0,0.0,0.0,0.0,0.0,0.0,0.0,0.0,0.0,0.0,0.0,0.0,0.0,0.0,0.0,0.0,0.0,0.0,0.0,0.0,0.0,0.0,0.0,0.0,0.0,-0.4841,-0.5304,-0.7553,0.0,0.0,0.0,0.0,0.0,0.0,0.0,0.0,0.0,0.0,0.0,0.0,0.0,0.0,0.0,0.0,0.0,0.0,0.0,0.0,0.0,0.0,0.0,0.0,0.0,0.0,0.0,0.0,0.0,0.0,0.0,0.0,0.0,0.0,0.0,0.0,0.0,0.0,0.0,0.0,0.0,0.0,0.0,0.0,0.0,0.0,0.0,0.0,0.0,0.0,0.0,0.0,0.0,0.0,0.0,0.0,0.0,0.0,0.0,0.0,0.0,0.0,0.0,-0.2233,-0.4437,-0.6465,-0.8271,-0.9988,-1.0678,-1.0286,-1.0785,-0.9908,0.0,0.0,0.0,0.0,0.0,0.0,0.0,0.0,0.0,0.0,0.0,0.0,0.0,0.0,0.0,0.0,0.0,0.0,0.0,0.0,0.0,0.0,0.0,0.0,0.0,0.0,0.0,0.0,0.0,0.0,0.0,0.0,0.0,0.0,0.0,0.0,0.0,0.0,0.0,0.0,0.0,-0.5798,-0.6874,-0.7871,0.0,0.0,0.0,0.0,0.0,0.0,0.0,0.0,0.0,0.0,0.0,0.0,0.0,0.0,0.0,0.0,0.0,0.0,0.0,0.0,0.0,0.0,0.0,0.0,0.0,0.0,0.0,0.0,0.0,0.0,0.0,0.0,0.0,0.0,0.0,0.0,0.0,0.0,0.0,0.0,0.0,0.0,0.0,0.0,0.0,0.0,0.0,0.0,0.0,0.0,0.0,0.0,0.0,0.0,0.0,0.0,0.0,0.0,0.0,0.0,0.0,0.0,-0.2666,-0.5721,-0.739,-0.7592,-0.8999,-0.9899,-1.0122,-1.0648,-1.0129,0.0,0.0,0.0,0.0,0.0,0.0,0.0,0.0,0.0,0.0,0.0,0.0,0.0,0.0,0.0,0.0,0.0,0.0,0.0,0.0,0.0,0.0,0.0,0.0,0.0,0.0,0.0,0.0,0.0,0.0,0.0,0.0,0.0,0.0,0.0,0.0,0.0,0.0,0.0,0.0,0.0,-0.731,-0.6227,-0.7453,-0.7405,0.0,0.0,0.0,0.0,0.0,0.0,0.0,0.0,0.0,0.0,0.0,0.0,0.0,0.0,0.0,0.0,0.0,0.0,0.0,0.0,0.0,0.0,0.0,0.0,0.0,0.0,0.0,0.0,0.0,0.0,0.0,0.0,0.0,0.0,0.0,0.0,0.0,0.0,0.0,0.0,0.0,0.0,0.0,0.0,0.0,0.0,0.0,0.0,0.0,0.0,0.0,0.0,0.0,0.0,0.0,0.0,0.0,0.0,0.0,0.0,-0.1954,-0.4486,-0.7232,-0.8915,-0.9515,-1.0694,-1.1347,-1.1342,-1.108,-0.987,0.0,0.0,0.0,0.0,0.0,0.0,0.0,0.0,0.0,0.0,0.0,0.0,0.0,0.0,0.0,0.0,0.0,0.0,0.0,0.0,0.0,0.0,0.0,0.0,0.0,0.0,0.0,0.0,0.0,0.0,0.0,0.0,0.0,0.0,0.0,0.0,0.0,0.0,0.0,0.0,0.0,0.0,-0.7073,-0.8186,0.0,0.0,0.0,0.0,0.0,0.0,0.0,0.0,0.0,0.0,0.0,0.0,0.0,0.0,0.0,0.0,0.0,0.0,0.0,0.0,0.0,0.0,0.0,0.0,0.0,0.0,0.0,0.0,0.0,0.0,0.0,0.0,0.0,0.0,0.0,0.0,0.0,0.0,0.0,0.0,0.0,0.0,0.0,0.0,0.0,0.0,0.0,0.0,0.0,0.0,0.0,0.0,0.0,0.0,0.0,0.0,0.0,0.0,0.0,0.0,0.0,0.0,-0.6149,-0.853,-1.0296,-1.1393,-1.2388,-1.278,-1.2494,-1.128,0.0,0.0,0.0,0.0,0.0,0.0,0.0,0.0,0.0,0.0,0.0,0.0,0.0,0.0,0.0,0.0,0.0,0.0,0.0,0.0,0.0,0.0,0.0,0.0,0.0,0.0,0.0,-0.4002,0.0,0.0,0.0,0.0,0.0,0.0,0.0,0.0,0.0,0.0,0.0,0.0,0.0,0.0,-0.6015,-0.6548,-0.8189,-0.8924,0.0,0.0,0.0,0.0,0.0,0.0,0.0,0.0,0.0,0.0,0.0,0.0,0.0,0.0,0.0,0.0,0.0,0.0,0.0,0.0,0.0,0.0,0.0,0.0,0.0,0.0,0.0,0.0,0.0,0.0,0.0,0.0,0.0,0.0,0.0,0.0,0.0,0.0,0.0,0.0,0.0,0.0,0.0,0.0,0.0,0.0,0.0,0.0,0.0,0.0,0.0,0.0,0.0,0.0,0.0,0.0,0.0,0.0,0.0,0.0,0.0,-0.6884,-0.942,-1.1194,-1.2287,-1.3043,-1.3366,-1.3093,-1.0955,-0.926,0.0,0.0,0.0,0.0,0.0,0.0,0.0,0.0,0.0,0.0,0.0,0.0,0.0,0.0,0.0,0.0,0.0,0.0,0.0,0.0,0.0,0.0,0.0,0.0,0.0,0.0,0.0,0.0,0.0,0.0,0.0,0.0,0.0,0.0,0.0,0.0,0.0,0.0,0.0,0.0,0.0,-0.4563,-0.3051,-0.6492,-0.8073,0.0,0.0,0.0,0.0,0.0,0.0,0.0,0.0,0.0,0.0,0.0,0.0,0.0,0.0,0.0,0.0,0.0,0.0,0.0,0.0,0.0,0.0,0.0,0.0,0.0,0.0,0.0,0.0,0.0,0.0,0.0,0.0,0.0,0.0,0.0,0.0,0.0,0.0,0.0,0.0,0.0,0.0,0.0,0.0,0.0,0.0,0.0,0.0,0.0,0.0,0.0,0.0,0.0,0.0,0.0,0.0,0.0,0.0,0.0,0.0,-0.3984,-0.7199,-0.9045,-1.1388,-1.4122,-1.4632,-1.4655,-1.4243,-1.206,-0.9833,0.0,0.0,0.0,0.0,0.0,0.0,0.0,0.0,0.0,0.0,0.0,0.0,0.0,0.0,0.0,0.0,0.0,0.0,0.0,0.0,0.0,0.0,0.0,0.0,0.0,0.0,0.0,0.0,-0.5468,-0.4935,-0.4782,0.0,0.0,0.0,0.0,0.0,0.0,0.0,0.0,0.0,0.0,-0.4778,-0.4184,-0.3786,0.0,0.0,-0.0671,0.0,0.0,0.0,0.0,0.0,0.0,0.0,0.0,0.0,0.0,0.0,0.0,0.0,0.0,0.0,0.0,0.0,0.0,0.0,0.0,0.0,0.0,0.0,0.0,0.0,0.0,0.0,0.0,0.0,0.0,0.0,0.0,0.0,0.0,0.0,0.0,0.0,0.0,0.0,0.0,0.0,0.0,0.0,0.0,0.0,0.0,0.0,0.0,0.0,0.0,0.0,0.0,0.0,0.0,0.0,0.0,0.0,0.0,-0.4307,-0.724,-0.8892,-1.1398,-1.4828,-1.5314,-1.5292,-1.4699,-1.3055,-1.0697,0.0,0.0,0.0,0.0,0.0,0.0,0.0,0.0,0.0,0.0,0.0,0.0,0.0,0.0,0.0,0.0,0.0,0.0,0.0,0.0,0.0,0.0,0.0,0.0,0.0,0.0,0.0,0.0,-0.5194,-0.4462,-0.4764,0.0,0.0,0.0,0.0,0.0,0.0,0.0,0.0,0.0,0.0,-0.3522,-0.354,-0.1519,0.0,0.0,0.0,0.0,0.0,0.0269,0.0367,0.0046,0.0,0.0,0.0,0.0,0.0,0.0,0.0,0.0,0.0,0.0,0.0,0.0,0.0,0.0,0.0,0.0,0.0,0.0,0.0,0.0,0.0,0.0,0.0,0.0,0.0,0.0,0.0,0.0,0.0,0.0,-0.0225,0.0,0.0,0.0,0.0,0.0,0.0,0.0,0.0,0.0,0.0,0.0,0.0,0.0,0.0,0.0,0.0,0.0,0.0,0.0,0.0,0.0,0.0,-0.4481,-0.7009,-0.9188,-1.1403,-1.3728,-1.4733,-1.4924,-1.4363,-1.3752,-1.1941,-0.8624,0.0,0.0,0.0,0.0,0.0,0.0,0.0,0.0,0.0,0.0,0.0,0.0,0.0,0.0,0.0,0.0,0.0,0.0,0.0,0.0,0.0,0.0,0.0,0.0,0.0,0.0,-0.5141,-0.3502,-0.3113,0.0,0.0,0.0,0.0,0.0,0.0,0.0,0.0,0.0,0.0,0.0,0.0,0.0,0.0,0.0,0.0,0.0,0.0,0.0,0.0863,0.1207,0.0,0.0,0.0,0.0,0.0,0.0,0.0,0.0,0.0,0.0,0.0,0.0,0.0,0.0,0.0,0.0,0.0,0.0,0.0,0.0,0.0,0.0,0.0,0.0,0.0,0.0,0.0,-0.1287,-0.0147,0.0,0.0,0.0,0.0,0.0,0.0,0.0,0.0,0.0,0.0,0.0,0.1125,0.0413,0.0,0.0,0.0,0.0,0.0,0.0,0.0,0.0,0.0,0.0,0.0,0.0,-0.5657,-0.886,-0.9983,-1.1791,-1.4395,-1.4797,-1.4822,-1.4555,-1.5002,-1.2604,-0.6998,0.0,0.0,0.0,0.0,0.0,0.0,0.0,0.0,0.0,0.0,0.0,0.0,0.0,0.0,0.0,0.0,0.0,0.0,0.0,0.0,0.0,0.0,0.0,0.0,0.0,-0.619,0.0,0.0,0.0,0.0,0.0,0.0,0.0,0.0,0.0,0.0,0.0,0.0,0.0,0.0,0.0,0.0,0.0,0.0,0.0,0.0,0.0,0.0,0.0,0.0,0.0,0.0,0.0,0.0,0.0,0.0,0.0,0.0,-0.9337,-0.5395,-0.3905,-0.2593,-0.0413,0.0,0.0,0.0,0.0,0.0,0.0,0.0,0.0,0.0,0.0,0.0,0.0,0.0,0.0,-0.2468,0.0,-0.0763,0.0,0.0,0.0,0.0,0.0,0.0,0.0,0.0,0.151,0.1239,0.1073,0.0204,-0.0416,0.0,-0.1437,-0.0864,0.0,0.0,0.0,0.0,0.0,0.0,0.0,0.0,-0.7226,-1.0689,-1.138,-1.2667,-1.4765,-1.4755,-1.4485,-1.4042,-1.3295,-1.0459,-0.5264,-0.4625,-0.4487,0.0,0.0,0.0,0.0,0.0,0.0,0.0,0.0,0.0,0.0,0.0,0.0,0.0,0.0,0.0,0.0,0.0,0.0,0.0,0.0,0.0,0.0,0.0,-0.4398,0.0,0.0,0.0,0.0,0.0,0.0,0.0,0.0,0.0,0.0,0.0,0.0171,0.0674,0.0296,0.0,0.0,0.0,0.0,0.0,0.0,0.0,0.0,0.0,0.0553,0.077,-0.1837,-0.6592,-1.4543,-1.5713,-1.498,-1.3015,0.0,0.0,-0.868,-0.6421,-0.3793,-0.0624,0.1169,0.2315,0.2728,0.2437,0.1977,0.0,0.0,0.0,0.0,0.0,0.0,0.0,0.0,-0.2882,-0.3248,0.0,-0.2325,0.0,0.0,0.0,0.0,0.0,0.267,0.0,0.0,0.1755,0.1619,0.0823,-0.0247,-0.0529,-0.0171,-0.1625,-0.1581,-0.022,-0.0198,0.0,0.0,0.0,0.0,0.0,0.0,-0.9279,-1.261,-1.3249,-1.3979,-1.4876,-1.4588,-1.3871,-1.2642,-0.9013,-0.5985,-0.3717,-0.4135,-0.4365,-0.4099,-0.3901,0.0,0.0,0.0,0.0,0.0,0.0,0.0,0.0,0.0,0.0,0.0,0.0,0.0,0.0,0.0,0.0,0.0,0.0,0.0,0.0,-0.3546,0.0,0.0,0.0,0.0,0.0,0.0,0.0,0.0,0.0,0.0,0.0,0.0,0.0548,0.185,0.0,0.0,0.0,0.0,0.0906,0.0958,0.0417,0.0403,0.1492,0.1464,0.084,-0.0589,0.0,0.0,-1.5366,-1.46,-1.2787,-1.2148,-1.0448,-0.9387,-1.0326,-0.7131,-0.3577,-0.0601,0.0817,0.1599,0.1955,0.2196,0.2235,0.1865,0.0,0.0,0.0,0.0,-0.4351,-0.5997,-0.748,-0.6853,-0.5416,-0.3578,-0.4488,0.0,0.0,0.0,0.0,0.0,0.0,0.195,0.1256,0.1017,0.0636,0.0166,-0.0334,-0.0848,-0.1371,-0.1529,-0.202,-0.2784,-0.3526,-0.236,0.0372,0.0,0.0,0.0,0.0,-1.3614,-1.6127,-1.5515,-1.5093,-1.5086,-1.4096,-1.2472,-1.0229,-0.8358,-0.5843,-0.2514,-0.3331,-0.3813,-0.3674,-0.2898,0.0,0.0,0.0,0.0,0.0,0.0,0.0,0.0,0.0,0.0,0.0,0.0,0.0,0.0,0.0,0.0,0.0,0.0,0.0,-0.4594,-0.1837,-0.037,0.0,0.0,0.0,0.0,0.0,0.0,0.0,0.0,0.0,0.1736,0.153,0.131,0.0,0.0,0.1089,0.059,0.0867,0.134,0.1948,0.1239,0.0,0.2271,0.1293,-0.0381,-0.2663,-0.7599,-1.1906,-1.3672,-1.3885,-1.3262,-1.1651,-0.9426,-0.784,-0.76,-0.5283,-0.2489,-0.0375,0.0303,0.0434,0.0615,0.1429,0.2004,0.1488,0.0756,-0.1917,-0.4211,-0.625,-0.8426,-0.9669,-1.0127,-0.95,-0.7796,-0.5477,-0.5951,-0.4461,-0.1413,0.0164,0.0,0.0,0.0,0.1635,0.1243,0.0701,0.024,-0.0112,-0.0676,-0.1091,-0.1429,-0.201,-0.2873,-0.4023,-0.5596,-0.4923,-0.2349,0.0,0.0,-1.9498,-1.7584,-1.7031,-1.8073,-1.7672,-1.71,-1.6384,-1.3581,-1.0959,-0.8664,-0.6926,-0.4482,-0.1297,-0.2299,-0.282,-0.2579,-0.166,-0.1437,0.0,0.0,0.0,0.0,0.0,0.0,0.0,0.0,0.0,0.0,0.0,-0.1368,-0.0342,0.0,0.0,0.0,-0.1529,-0.201,-0.2976,-0.0441,0.0,0.0,0.0,0.0,0.0,0.0,0.0,0.2558,0.2179,0.2158,0.2752,0.2656,0.222,0.1454,0.1598,0.1632,0.1339,0.0,0.1841,0.254,0.1993,0.1779,0.2458,0.1721,-0.0872,-0.6725,-1.0408,-1.2987,-1.3242,-1.3032,-1.2109,-1.0121,-0.7881,-0.599,-0.4981,-0.3803,-0.2597,-0.0987,-0.1245,-0.1624,-0.1263,0.013,0.1148,-0.0782,-0.2421,-0.5767,-0.8313,-1.0402,-1.2579,-1.3644,-1.37,-1.1325,-1.0282,-1.0096,-0.709,-0.4466,-0.2114,0.1006,0.0,0.2897,0.1984,0.1417,0.1076,0.0655,0.0248,-0.0199,-0.1082,-0.1262,-0.0868,-0.2826,-0.4032,-0.4655,-0.7021,-0.7536,-0.6335,-0.8905,-1.343,-1.94,-1.9898,-1.9619,-1.8819,-1.9618,-1.9336,-1.7744,-1.2907,-0.9435,-0.7573,-0.4927,-0.2426,-0.0158,-0.1135,-0.1549,-0.1105,-0.0401,0.0,0.0,0.0,0.0,0.0,0.0,0.0,0.0,0.0,0.0,0.0,0.0,0.0,0.0,0.0,0.0,0.0,-0.0265,0.0,-0.2613,0.0803,0.0,0.0,0.0,0.1301,0.201,0.2154,0.2276,0.2463,0.0,0.0,0.3353,0.3438,0.3184,0.2434,0.2021,0.1885,0.2185,0.2241,0.2405,0.275,0.2675,0.2524,0.2401,0.1415,-0.2361,-1.024,-1.1907,-1.2029,-1.301,-1.1799,-0.9881,-0.7971,-0.6044,-0.4301,-0.2486,-0.321,-0.3712,-0.294,-0.3812,-0.4471,-0.3544,-0.1835,-0.0469,-0.5636,-0.7797,-1.004,-1.0796,-1.0717,-1.3175,-1.4894,-1.5757,-1.4082,-1.2616,-1.1249,-0.822,-0.3889,0.1298,0.3396,0.3589,0.2313,0.2283,0.1574,0.0372,0.0154,-0.0239,-0.0777,-0.083,-0.1125,-0.1684,-0.3052,-0.5208,-0.8011,-1.0392,-1.2151,-1.3397,-1.5476,-1.8239,-2.1479,-2.1081,-2.0766,-2.0647,-2.0243,-1.812,-1.4234,-1.1341,-0.8426,-0.542,-0.3638,-0.1851,-0.0077,-0.0278,-0.0399,-0.028,-0.0092,0.0,0.0,-0.0138,0.0,0.0,0.0,0.0,0.0,0.0,0.0,0.0,0.0,-0.1188,-0.0074,0.0,-0.0673,0.0,-0.0278,0.0449,0.1543,0.2359,0.0,0.0,0.1616,0.1311,0.1886,0.2139,0.2289,0.2273,0.2493,0.2948,0.3771,0.3796,0.3706,0.3558,0.3084,0.2621,0.2409,0.2711,0.2938,0.2918,0.302,0.3136,0.2486,-0.3546,-0.8471,-0.9414,-1.0882,-1.1972,-1.1832,-1.0019,-0.795,-0.6173,-0.5272,-0.4203,-0.2736,-0.3368,-0.5495,-0.8262,-0.8766,-0.7961,-0.676,-0.4764,-0.3251,-0.8063,-0.9978,-1.1593,-1.2322,-1.258,-1.5061,-1.6396,-1.6649,-1.5057,-1.3297,-1.1225,-0.7019,-0.2485,0.2052,0.3588,0.3693,0.2772,0.2576,0.1893,0.0813,0.0404,0.0089,-0.0157,-0.0218,-0.0698,-0.1604,-0.3739,-0.6516,-0.9828,-1.2653,-1.528,-1.7634,-1.8994,-2.0198,-2.1269,-2.1186,-2.109,-2.1011,-1.928,-1.6506,-1.2695,-1.0394,-0.7773,-0.4789,-0.2845,-0.1278,0.0,0.0,0.0,0.0,0.0,0.0,0.0,0.0,0.0,0.0,0.0,0.0,0.0,0.0,0.0,0.0,0.0,0.0,0.0,0.0,-0.0192,0.0286,0.1009,0.1814,0.2756,0.3022,0.3106,0.2993,0.2468,0.2069,0.197,0.2215,0.2327,0.2181,0.2324,0.2839,0.3828,0.4225,0.4271,0.401,0.3686,0.344,0.3275,0.3312,0.3336,0.3359,0.3413,0.2333,-0.005,-0.6076,-1.0168,-0.945,-1.0069,-1.0663,-0.9979,-0.8333,-0.6584,-0.5444,-0.5509,-0.5383,-0.4136,-0.5411,-0.8075,-1.1652,-1.253,-1.1446,-1.0022,-0.8181,-0.6745,-0.9342,-1.0522,-1.1655,-1.2843,-1.4141,-1.6184,-1.6905,-1.6526,-1.4458,-1.2122,-0.9484,-0.4381,-0.0721,0.1757,0.2915,0.345,0.3447,0.2914,0.2357,0.1768,0.1057,0.0796,0.0951,0.0464,-0.0238,-0.126,-0.4535,-0.7701,-1.079,-1.4097,-1.7128,-1.9669,-2.0229,-2.0235,-1.9687,-2.0351,-2.0525,-2.0034,-1.734,-1.4663,-1.1996,-0.9684,-0.7405,-0.515,-0.272,-0.0994,0.0,0.0,0.0,0.0,0.0,0.0,0.0,0.028,0.0393,0.0,0.0111,0.0,0.0,0.0,0.0,0.0,0.0,0.0,0.0,0.0,0.0507,0.1716,0.2601,0.2993,0.2577,0.3187,0.3392,0.2939,0.3142,0.302,0.2302,0.2404,0.2452,0.2225,0.2162,0.2645,0.3875,0.451,0.4578,0.4065,0.3978,0.4013,0.4206,0.3876,0.365,0.3865,0.3561,0.1216,-0.3849,-0.6736,-0.8109,-0.8829,-0.9019,-0.8745,-0.8252,-0.7195,-0.6194,-0.6051,-0.7104,-0.7475,-0.6206,-0.8392,-1.1503,-1.4916,-1.5211,-1.4319,-1.2867,-1.138,-1.0286,-1.0924,-1.1216,-1.1159,-1.1008,-1.08,-1.087,-1.2468,-1.4819,-1.113,-0.6993,-0.2783,-0.0996,0.0728,0.2391,0.3519,0.3665,0.3076,0.3441,0.3181,0.2327,0.1693,0.1399,0.1366,0.0739,-0.0189,-0.1503,-0.4622,-0.7986,-1.1534,-1.4563,-1.6787,-1.8178,-1.8689,-1.8336,-1.7296,0.0,0.0,0.0,-1.4609,-1.2655,-1.0755,-0.8557,-0.7166,-0.6622,-0.4235,0.0,0.0,0.0,0.0,0.0,0.0,0.0,0.0,0.0,0.0,0.0,0.0,0.0,0.0,0.0,0.0,0.0,-0.0234,-0.0181,0.0,0.0,0.0812,0.266,0.2856,0.2969,0.3386,0.32,0.3233,0.3668,0.3208,0.2918,0.3148,0.2848,0.26,0.2658,0.2838,0.3296,0.4052,0.4083,0.4019,0.4147,0.3995,0.3938,0.4208,0.4049,0.3945,0.3754,0.2685,-0.0055,-0.4685,-0.483,-0.4784,-0.5236,-0.6597,-0.7332,-0.7336,-0.7852,-0.8305,-0.8697,-1.045,-1.1316,-0.9784,-1.2073,-1.492,-1.7177,-1.6767,-1.5767,-1.4724,-1.3493,-1.2554,-1.0707,0.0,-0.8723,-0.7777,0.0,-0.6344,-0.6852,-0.813,-0.6854,-0.3983,-0.0117,0.0959,0.201,0.3037,0.4143,0.4215,0.3485,0.3549,0.3643,0.3786,0.2856,0.2504,0.2586,0.1576,0.0055,-0.187,-0.4955,-0.8412,-1.2118,-1.4595,-1.6209,-1.6941,-1.6742,-1.5742,-1.3944,-1.3034,-1.2909,-1.361,-1.1931,-1.0219,-0.8409,-0.6777,-0.5717,-0.5244,-0.3594,0.0,0.0,0.0,0.0,0.0,0.0,0.0,0.0,0.3,0.0,0.2759,0.1745,0.1413,0.1989,0.0806,-0.0024,-0.0094,-0.0034,0.0,0.0,0.0,0.0671,0.2243,0.2633,0.3064,0.3661,0.3393,0.3313,0.3715,0.3476,0.3403,0.3719,0.4035,0.3807,0.3017,0.3456,0.3955,0.3946,0.355,0.3232,0.3209,0.3184,0.3159,0.3323,0.3736,0.3957,0.3873,0.2835,0.1168,-0.1054,-0.1709,-0.2315,-0.3821,-0.5764,-0.735,-0.8456,-0.9827,-1.111,-1.1996,-1.3852,-1.471,-1.3515,-1.5519,-1.7526,-1.6589,-1.6773,-1.6996,-1.6325,-1.5403,-1.4809,-0.9489,-0.7882,-0.5913,-0.449,-0.3421,-0.2552,-0.1515,-0.0629,0.0,0.0,0.0,0.2606,0.3305,0.3834,0.4694,0.475,0.4153,0.349,0.3897,0.5084,0.3987,0.3579,0.3781,0.2193,0.0107,-0.2461,-0.5504,-0.8859,-1.2418,-1.4037,-1.4889,-1.4992,-1.4073,-1.2462,-1.0203,-0.7516,-0.7257,-0.9351,-0.8664,-0.7568,-0.6174,-0.493,-0.414,-0.3854,-0.2671,-0.1759,-0.1165,-0.0403,0.0,0.0,0.0567,0.2198,0.4981,0.4387,0.378,0.3517,0.2851,0.2313,0.2025,0.0771,0.0,0.0,0.0,0.0,0.0,0.0,0.043,0.1491,0.2435,0.3181,0.3694,0.3509,0.3465,0.3735,0.3813,0.3966,0.4439,0.5196,0.5103,0.3772,0.4181,0.4524,0.3921,0.3037,0.2445,0.221,0.2355,0.2602,0.285,0.3733,0.4269,0.4219,0.3839,0.3409,0.3046,0.086,-0.1147,-0.4942,-0.6886,-0.865,-1.0962,-1.3152,-1.4749,-1.5827,-1.718,-1.7525,-1.7076,-1.823,-1.8493,-1.4888,-1.6203,-1.7999,-1.7587,-1.7011,-1.6637,-0.7395,-0.5885,-0.4202,-0.2476,-0.078,-0.0025,0.1732,0.3852,0.2175,0.2865,0.5295,0.4923,0.4764,0.4789,0.4967,0.4795,0.4391,0.3507,0.376,0.4895,0.4271,0.4004,0.3917,0.1631,-0.0766,-0.3183,-0.6416,-0.934,-1.1679,-1.2028,-1.1735,-1.1031,-0.9659,-0.7995,-0.6092,-0.4485,-0.3082,-0.1864,-0.3607,-0.4881,-0.557,-0.3675,-0.3635,-0.5433,-0.3275,-0.147,-0.025,0.0,0.0,0.0,0.2704,0.5515,0.814,0.6199,0.491,0.4732,0.3683,0.2911,0.25,0.0935,0.0,0.0,0.0,0.0,0.0,0.0,0.0435,0.1432,0.2509,0.3299,0.3622,0.3377,0.3503,0.4206,0.4131,0.4536,0.5916,0.5935,0.5715,0.5368,0.5309,0.5116,0.4456,0.2794,0.1823,0.223,0.2321,0.2704,0.4166,0.4973,0.5067,0.5113,0.5428,0.6241,0.622,0.1711,-0.3872,-0.8369,-1.0333,-1.2132,-1.4757,-1.7507,-1.9517,-2.0432,-2.0161,-2.0321,-2.1081,-1.9731,-1.7706,-1.5076,-1.6408,-1.7571,-1.7871,-1.7681,-1.737,-0.5558,-0.4439,-0.2698,-0.106,0.0511,0.2367,0.4365,0.6222,0.5476,0.5474,0.6054,0.6068,0.5608,0.483,0.4611,0.4567,0.4574,0.4131,0.4437,0.531,0.4871,0.4787,0.4694,0.175,-0.0926,-0.3236,-0.666,-0.9293,-1.0958,-1.0591,-0.9472,-0.7816,-0.5358,-0.3594,-0.2632,-0.1525,-0.0498,0.0388,-0.1274,-0.2438,-0.2965,-0.1612,-0.1523,-0.2807,-0.1268,-0.0344,0.0,0.0,0.0,0.0,0.4948,0.7813,0.8014,0.6995,0.6017,0.5153,0.4043,0.3298,0.3053,0.1128,0.0,0.0,0.0,0.0,0.0,0.0,0.0,0.1336,0.2672,0.3445,0.3295,0.3411,0.371,0.4088,0.4279,0.4965,0.6074,0.6439,0.6512,0.6573,0.6037,0.5324,0.458,0.2915,0.1947,0.2434,0.2515,0.3189,0.4552,0.5289,0.594,0.6661,0.7271,0.7555,0.7235,-0.142,-0.932,-1.4864,-1.5569,-1.6723,-1.9045,-2.1451,-2.2326,-2.2375,-2.1717,-2.0958,-2.0779,-1.9126,-1.781,-1.7929,-1.6985,-1.7551,-1.7955,-1.727,-1.6153,-0.3857,-0.3221,-0.1462,0.0256,0.2005,0.4517,0.6501,0.796,0.8254,0.7715,0.6784,0.6812,0.6074,0.4797,0.4431,0.425,0.4291,0.483,0.5376,0.5816,0.5445,0.5533,0.5562,0.1868,-0.0857,-0.2607,-0.6192,-0.8546,-0.9211,-0.8402,-0.6603,-0.4097,-0.1374,0.0046,0.0209,0.0868,0.126,0.1324,0.0512,-0.0085,-0.0331,0.013,0.0196,-0.0079,0.0378,0.0481,0.0,0.0,0.0,0.0,0.5409,0.8213,0.7842,0.7422,0.6791,0.5774,0.4702,0.363,0.2614,0.1017,0.0,0.0,0.0,0.0,0.0,0.0331,0.07,0.1392,0.2865,0.3672,0.3326,0.3799,0.4202,0.4163,0.471,0.5505,0.6321,0.6837,0.7266,0.7493,0.6528,0.5193,0.4079,0.3001,0.2432,0.26,0.2885,0.348,0.4494,0.5544,0.6351,0.6039,0.727,0.7383,0.5275,-0.6211,-1.6089,-2.1891,-2.1362,-2.152,-2.305,-2.4012,-2.3747,-2.3019,-2.1876,-2.072,-1.894,-1.8182,-1.8709,-1.9855,-1.9553,-1.8542,-1.8595,-1.6502,-1.4714,-0.239,-0.1986,-0.0663,0.174,0.459,0.6198,0.7895,0.9513,1.0493,1.0012,0.8399,0.7185,0.5989,0.5041,0.4835,0.4098,0.3063,0.5413,0.6395,0.6093,0.5798,0.61,0.6344,0.1576,-0.0616,-0.0674,-0.4711,-0.6478,-0.5875,-0.4364,-0.2084,0.0671,0.1839,0.2231,0.2276,0.2198,0.2305,0.2616,0.2607,0.2136,0.1304,0.0821,0.0371,0.0004,0.0,0.0065,0.0,0.0,0.0,0.0,0.2224,0.5361,0.8874,0.7807,0.6951,0.7414,0.6218,0.4045,0.0,0.012,0.0,0.0,0.0,0.0,0.0,0.1267,0.1832,0.1784,0.3085,0.3885,0.3666,0.4531,0.502,0.484,0.5546,0.6433,0.7103,0.7341,0.7645,0.8672,0.6565,0.4656,0.3384,0.2781,0.2608,0.2826,0.3089,0.3595,0.4753,0.5232,0.3794,0.1325,0.3443,0.4799,0.019,-1.216,-2.2341,-2.8084,-2.6854,-2.5516,-2.5546,-2.4788,-2.3889,-2.2543,-2.1282,-2.0004,-1.9773,-1.9181,-1.9307,-2.2106,-2.2182,-2.1235,-1.9724,-1.6752,-1.4384,-0.1573,-0.1232,0.0122,0.2949,0.6502,0.8555,1.0679,1.2769,1.2251,1.1062,0.9282,0.7411,0.5441,0.362,0.4549,0.4136,0.279,0.4806,0.5785,0.5719,0.5623,0.6131,0.6595,0.3125,0.1387,0.1362,-0.1985,-0.3472,-0.2831,-0.0907,0.1066,0.2594,0.3219,0.3275,0.2978,0.3024,0.3132,0.328,0.3273,0.31,0.2714,0.166,0.072,0.0,0.0,0.0,0.0,0.1428,0.2393,0.2628,0.398,0.6016,0.8654,0.8041,0.7708,0.7792,0.5821,0.3289,0.0,0.0,0.0,0.0,0.0,0.0,0.0,0.1418,0.2265,0.2439,0.3437,0.4038,0.3753,0.4586,0.5057,0.4854,0.5659,0.6564,0.6834,0.6808,0.7092,0.7784,0.6032,0.4012,0.3133,0.3193,0.3352,0.3267,0.3371,0.366,0.3481,0.2184,-0.0816,-0.4157,-0.2385,-0.1832,-0.6075,-1.773,-2.7168,-3.0554,-2.9336,-2.7164,-2.5848,-2.4114,-2.2394,-2.173,-2.1153,-2.0581,-2.0488,-2.2117,-2.3133,-2.509,-2.3639,-2.1915,-2.0128,-1.7192,-1.4992,-0.0655,0.0,0.1777,0.4903,0.875,1.086,1.3037,1.4784,1.3581,1.1831,0.9764,0.7773,0.5455,0.3348,0.3554,0.3202,0.2801,0.4258,0.5175,0.5441,0.5531,0.6106,0.6765,0.4129,0.3017,0.2993,0.077,-0.0207,0.0377,0.1972,0.3351,0.3986,0.4039,0.3845,0.3493,0.3668,0.3744,0.3693,0.3676,0.3691,0.3599,0.2701,0.1453,0.0,0.0,0.029,0.0948,0.276,0.4039,0.4594,0.5603,0.6828,0.8163,0.8273,0.825,0.8012,0.5709,0.3065,0.0518,0.0133,0.0,0.0,0.0,0.0,0.0,0.1028,0.2016,0.2846,0.3457,0.3687,0.3651,0.4514,0.4871,0.4354,0.548,0.6215,0.6023,0.6364,0.6868,0.6659,0.3637,0.1809,0.1494,0.1936,0.2252,0.1989,0.2202,0.2231,0.0527,-0.2052,-0.5608,-1.0458,-1.132,-1.2693,-1.4494,-2.2859,-3.0655,-3.0703,-2.892,-2.6758,-2.5161,-2.2625,-2.1433,-2.1335,-2.1705,-2.2395,-2.2692,-2.4471,-2.6217,-2.7733,-2.6285,-2.2754,-2.1163,-1.8246,-1.5856,0.0607,0.1735,0.4749,0.7969,1.1234,1.2872,1.4151,1.5117,1.4205,1.233,0.9882,0.8377,0.6524,0.4248,0.1952,0.1125,0.2472,0.408,0.5118,0.561,0.5613,0.6091,0.6757,0.4015,0.3683,0.5287,0.3294,0.2957,0.4694,0.4551,0.4801,0.5389,0.4578,0.4087,0.4032,0.4035,0.4029,0.4005,0.392,0.3974,0.3927,0.3909,0.2662,0.0,0.0,0.0946,0.2833,0.3338,0.4023,0.5308,0.5646,0.674,0.8615,0.8476,0.8391,0.838,0.6322,0.3812,0.1465,0.0475,0.0,0.0,0.0,0.0,0.0,0.0,0.0986,0.2672,0.2874,0.3092,0.3367,0.4365,0.478,0.3983,0.4857,0.5238,0.4888,0.6226,0.69,0.4743,0.0204,-0.2521,-0.2003,-0.1319,-0.1152,-0.1209,-0.1276,-0.1764,-0.2645,-0.5313,-1.01,-1.6338,-2.206,-2.7574,-2.56,-2.7294,-2.9636,-2.8916,-2.6916,-2.5726,-2.339,-2.1404,-2.1128,-2.1509,-2.2857,-2.4011,-2.4935,-2.6168,-2.7528,-2.8083,-2.6892,-2.4381,-2.2856,-1.9681,-1.7258,0.2084,0.4736,0.7719,1.0484,1.2949,1.4721,1.5426,1.5165,1.4163,1.2072,0.9525,0.8105,0.6608,0.4882,0.3734,0.3323,0.364,0.4131,0.4813,0.5502,0.5732,0.6447,0.7435,0.648,0.6333,0.6857,0.631,0.6146,0.6507,0.6045,0.57,0.5635,0.5184,0.4679,0.4314,0.4224,0.4236,0.4133,0.3355,0.327,0.4083,0.4125,0.3889,0.3607,0.1245,0.0858,0.2693,0.3846,0.4774,0.5373,0.5618,0.6539,0.8149,0.8711,0.8502,0.7646,0.5859,0.3841,0.1899,0.1088,0.0524,0.0,0.0,0.0,0.0,0.0,0.0332,0.1098,0.2323,0.3,0.3373,0.3737,0.3515,0.2882,0.3052,0.2907,0.2211,0.2843,0.3652,0.288,-0.196,-0.6266,-0.6387,-0.6805,-0.6798,-0.6317,-0.6421,-0.6616,-0.7533,-1.0175,-1.3811,-1.7434,-2.1869,-2.58,-2.8809,-2.8165,-2.8241,-2.5678,-2.3679,-2.3075,-2.1435,-2.12,-2.1012,-2.3113,-2.4461,-2.6502,-2.7809,-2.9085,-3.0125,-2.9227,-2.7883,-2.6186,-2.4836,-2.1993,-1.9518,0.4455,0.789,1.0159,1.2587,1.498,1.6305,1.6274,1.5125,1.3638,1.1281,0.8686,0.7249,0.6095,0.5202,0.4993,0.4781,0.4445,0.4625,0.5056,0.5586,0.5918,0.655,0.7349,0.7871,0.7961,0.7851,0.8004,0.795,0.7699,0.6937,0.6466,0.6267,0.5874,0.5334,0.4769,0.4639,0.458,0.4145,0.3029,0.2822,0.3562,0.3754,0.4312,0.494,0.3205,0.2335,0.317,0.4399,0.5123,0.5269,0.5526,0.6298,0.7584,0.8574,0.8679,0.7635,0.5524,0.3549,0.2092,0.1648,0.1263,0.0607,0.0,0.0,0.0,0.0,0.0,0.127,0.1437,0.2304,0.3259,0.3339,0.2619,0.1485,0.0763,0.0012,-0.1018,-0.1306,-0.0939,-0.1136,-0.4959,-0.8199,-0.8925,-1.0032,-0.997,-0.9275,-0.9398,-0.9895,-1.0798,-1.3263,-1.6129,-1.8073,-2.0894,-2.4559,-2.6618,-2.6709,-2.5227,-2.2698,-2.2854,-2.185,-2.1551,-2.1383,-2.2492,-2.4602,-2.6793,-2.9026,-3.0759,-3.2083,-3.1807,-3.0914,-2.9554,-2.7736,-2.6211,-2.4594,-2.1816,0.7764,1.0855,1.1996,1.4236,1.6942,1.7144,1.6507,1.4673,1.2529,0.9942,0.7378,0.6004,0.5408,0.4972,0.4923,0.4764,0.4641,0.5064,0.5598,0.5992,0.6271,0.6478,0.6819,0.7753,0.8069,0.7807,0.7924,0.8122,0.8237,0.743,0.7053,0.7088,0.6657,0.6125,0.5464,0.5358,0.5016,0.437,0.3471,0.2776,0.2211,0.2997,0.3842,0.4735,0.5373,0.5364,0.4616,0.4899,0.509,0.5056,0.5438,0.6095,0.7039,0.7909,0.8576,0.8163,0.5396,0.3001,0.196,0.2006,0.1953,0.1468,0.0619,0.0,0.0,0.0,0.0933,0.2514,0.1929,0.1242,0.2978,0.32,0.2382,0.0283,-0.15,-0.2913,-0.3492,-0.4966,-0.6385,-0.6568,-0.8289,-0.9117,-0.8912,-1.0095,-1.0899,-0.9888,-1.0114,-1.1023,-1.2147,-1.463,-1.6735,-1.8722,-2.064,-2.3084,-2.3971,-2.4118,-2.2029,-2.0352,-2.1706,-2.2081,-2.2622,-2.2824,-2.5224,-2.7417,-2.9951,-3.2091,-3.2785,-3.3608,-3.1651,-3.0635,-2.9695,-2.8735,-2.7097,-2.526,-2.332,0.9092,1.1185,1.325,1.5055,1.6472,1.553,1.422,1.2751,1.0418,0.8237,0.6571,0.5997,0.5631,0.5188,0.4905,0.4395,0.3886,0.3468,0.4497,0.6646,0.6782,0.7515,0.8743,0.8544,0.8445,0.8563,0.8478,0.8551,0.8655,0.8327,0.7793,0.708,0.719,0.7079,0.6637,0.6434,0.5926,0.5124,0.4429,0.3925,0.3675,0.3875,0.4345,0.4955,0.5426,0.527,0.4575,0.5297,0.5466,0.5011,0.5356,0.5981,0.6706,0.6759,0.7136,0.77,0.5092,0.2551,0.1364,0.1605,0.1915,0.1614,0.0693,0.0,0.0,0.0,0.0,0.0,0.2195,0.285,0.1468,0.1115,0.0,0.0058,-0.2419,-0.3996,-0.411,-0.5021,-0.5852,-0.6551,-0.7619,-0.8239,-0.8651,-1.0113,-1.0919,-1.1005,-1.19,-1.3303,-1.4768,-1.6546,-1.8513,-1.9887,-2.0842,-2.1211,-2.2155,-2.2896,-2.2039,-2.1209,-2.2086,-2.3487,-2.3991,-2.5411,-2.784,-3.0103,-3.2667,-3.4109,-3.4839,-3.3906,-3.1753,-3.0245,-2.9238,-2.8242,-2.7286,-2.5925,-2.4369,1.101,1.2488,1.3879,1.4942,1.554,1.4069,1.226,1.039,0.8518,0.6349,0.4433,0.3862,0.3307,0.2555,0.1903,0.1139,0.0425,0.0232,0.1971,0.476,0.5645,0.7026,0.9126,0.883,0.883,0.9228,0.8947,0.8908,0.9157,0.8907,0.8344,0.7651,0.7823,0.7838,0.7454,0.6911,0.6209,0.5289,0.4722,0.445,0.4383,0.4448,0.458,0.484,0.5206,0.4796,0.3931,0.4335,0.4491,0.4354,0.4683,0.5134,0.5306,0.4785,0.4992,0.5422,0.3639,0.1292,0.0294,0.0854,0.1345,0.1133,0.047,0.0,0.0,0.0,0.0,0.0,0.204,0.3095,0.1865,0.0534,0.0,0.0,-0.2142,-0.3739,-0.4231,-0.5153,-0.5725,-0.6137,-0.6496,-0.7212,-0.8153,-0.9878,-1.0993,-1.1979,-1.3754,-1.5548,-1.6895,-1.8194,-1.9303,-1.9782,-1.9704,-2.0174,-2.0821,-2.1411,-2.1887,-2.2363,-2.3042,-2.4688,-2.5867,-2.8026,-3.0387,-3.2143,-3.4435,-3.4563,-3.5127,-3.3045,-3.1008,-2.9901,-2.8658,-2.7536,-2.6676,-2.7418,-2.5945,1.3234,1.4472,1.3863,1.3756,1.3968,1.2367,0.9644,0.7171,0.5643,0.3034,0.0416,-0.0781,-0.1483,-0.2637,-0.3308,-0.4114,-0.4799,-0.3224,-0.1442,0.0558,0.2455,0.5041,0.7641,0.8376,0.9046,0.9692,0.9342,0.9211,0.9272,0.9047,0.8722,0.8424,0.8205,0.8212,0.7528,0.6832,0.5886,0.5023,0.4564,0.4378,0.4289,0.4379,0.4317,0.4135,0.4808,0.4413,0.2612,0.1859,0.1957,0.2615,0.3261,0.3285,0.272,0.2136,0.2164,0.3061,0.095,-0.0451,-0.0905,-0.0051,0.0528,0.0193,-0.0042,0.0,0.0,0.0,0.0,0.0,0.1328,0.2641,0.3009,0.1447,0.0,0.0,-0.1615,-0.2904,-0.3892,-0.5143,-0.5626,-0.5561,-0.5508,-0.5894,-0.7618,-1.0061,-1.1852,-1.2948,-1.4893,-1.6849,-1.8097,-1.9012,-1.9367,-1.9501,-1.9578,-1.9981,-2.0899,-2.2577,-2.3001,-2.2866,-2.4111,-2.6353,-2.7965,-3.0179,-3.1754,-3.3613,-3.4318,-3.4643,-3.4187,-3.2034,-3.0302,-2.9007,-2.7793,-2.6672,-2.603,-2.6073,-2.5506,1.2443,1.2567,1.1991,1.0977,0.9381,0.6119,0.2825,-0.0189,-0.2941,-0.4953,-0.7003,-0.7393,-0.7213,-0.707,-0.7737,-0.8036,-0.7586,-0.6477,-0.4244,-0.1527,0.047,0.387,0.7275,0.8641,0.9227,0.9658,0.962,0.9464,0.8983,0.9144,0.8937,0.8282,0.7399,0.6777,0.6448,0.6191,0.5874,0.5392,0.4934,0.4477,0.4124,0.3968,0.356,0.293,0.3725,0.2887,0.0547,-0.1319,-0.1252,0.0503,0.0753,0.1008,0.0895,-0.0745,-0.1386,-0.0684,-0.1016,-0.2278,-0.3042,-0.1405,-0.0303,-0.0689,-0.1067,-0.0732,0.0,0.0,0.0,0.0,0.0481,0.1274,0.2099,0.062,-0.0428,-0.028,-0.1407,-0.2543,-0.3236,-0.3947,-0.4664,-0.4913,-0.5055,-0.5927,-0.7808,-1.0807,-1.3168,-1.3849,-1.5779,-1.8021,-1.9113,-1.9992,-2.0479,-2.042,-2.0473,-2.0641,-2.1454,-2.3307,-2.4091,-2.3587,-2.5272,-2.8376,-2.9998,-3.1754,-3.2747,-3.3719,-3.2559,-3.2493,-3.2106,-3.0848,-2.9482,-2.7262,-2.5478,-2.367,-2.2884,-2.2643,-2.2686,1.0941,0.9238,0.7356,0.483,0.1887,-0.1388,-0.4436,-0.7179,-0.9456,-1.1455,-1.274,-1.3062,-1.3083,-1.2968,-1.2653,-1.1664,-1.0261,-0.7808,-0.474,-0.1322,0.2107,0.5315,0.7818,0.886,0.9262,0.9494,0.9414,0.8953,0.8588,0.8941,0.869,0.7967,0.6982,0.5933,0.4807,0.531,0.5247,0.4777,0.4401,0.3999,0.3606,0.3083,0.2366,0.1793,0.2038,0.0829,-0.2991,-0.4626,-0.3961,-0.2066,-0.183,-0.1905,-0.1361,-0.351,-0.4489,-0.366,-0.3533,-0.4361,-0.5556,-0.367,-0.2246,-0.2603,-0.2738,-0.1918,0.0,0.0,0.0,0.0,0.0,0.0,0.151,0.0133,-0.0848,-0.0808,-0.1685,-0.2706,-0.337,-0.351,-0.3966,-0.4536,-0.4984,-0.5757,-0.7747,-1.199,-1.4057,-1.5056,-1.7082,-1.8788,-2.0079,-2.0886,-2.1479,-2.1376,-2.1114,-2.1092,-2.2005,-2.3821,-2.5251,-2.4851,-2.5272,-2.8681,-2.9971,-3.1577,-3.178,-3.165,-3.0752,-3.0173,-2.9998,-2.8859,-2.5853,-2.3762,-2.2079,-2.0664,-1.9648,-1.9929,-1.9848,0.7681,0.4441,0.0757,-0.3162,-0.6815,-0.9158,-1.1797,-1.4195,-1.5396,-1.6641,-1.7968,-1.8186,-1.8278,-1.9026,-1.6395,-1.473,-1.168,-0.7037,-0.3002,0.0994,0.4919,0.8122,0.8523,0.9073,0.9294,0.9308,0.8734,0.8286,0.8033,0.8286,0.807,0.713,0.6451,0.5031,0.3579,0.4002,0.4177,0.3657,0.325,0.2898,0.2406,0.1727,0.0833,-0.0046,-0.0776,-0.295,-0.6339,-0.7491,-0.618,-0.3777,-0.4675,-0.442,-0.3949,-0.5867,-0.6657,-0.6382,-0.6179,-0.7064,-0.8257,-0.6484,-0.4963,-0.5062,-0.4511,-0.3643,-0.1942,0.0,0.0,0.0,0.0,0.0,0.1048,-0.0211,-0.104,-0.1255,-0.2221,-0.3317,-0.4077,-0.3626,-0.3459,-0.467,-0.5048,-0.6388,-0.9131,-1.2776,-1.6278,-1.6258,-1.8177,-1.9613,-2.057,-2.1124,-2.1817,-2.2307,-2.1924,-2.1422,-2.2755,-2.4335,-2.5551,-2.6169,-2.5901,-2.7447,-2.7997,-2.9062,-2.9442,-2.9139,-2.7711,-2.7785,-2.8725,-2.6468,-2.2875,-2.0504,-1.9049,-1.7301,-1.5958,-1.7241,-1.7747,-0.266,-0.3794,-0.7191,-1.0372,-1.3424,-1.6597,-1.9629,-2.2321,-2.3599,-2.4167,-2.4885,-2.4617,-2.2595,-1.9941,-1.7602,-1.4656,-0.9701,-0.4723,-0.0002,0.559,0.8356,0.9501,0.9426,0.943,0.9401,0.9111,0.8987,0.8237,0.7435,0.7196,0.6886,0.5785,0.4186,0.2454,0.1864,0.2611,0.2859,0.2426,0.2075,0.1565,0.0898,0.0145,-0.0934,-0.2217,-0.4108,-0.6707,-0.9052,-0.9578,-0.883,-0.7807,-0.69,-0.6213,-0.5728,-0.6796,-0.7554,-0.7782,-0.8776,-0.9377,-0.9157,-0.9356,-0.8872,-0.6476,-0.5233,-0.388,-0.3084,-0.1765,-0.0771,0.0,0.0,0.0,-0.005,-0.0464,-0.1021,-0.1454,-0.2211,-0.3469,-0.4801,-0.4576,-0.4404,-0.5084,-0.6337,-0.8018,-1.0396,-1.4531,-1.6998,-1.771,-1.8922,-2.0395,-2.1069,-2.152,-2.2114,-2.2875,-2.257,-2.2136,-2.3075,-2.4027,-2.4178,-2.4843,-2.4868,-2.4473,-2.506,-2.5659,-2.5713,-2.5192,-2.4317,-2.4831,-2.5428,-2.359,-1.9921,-1.7985,-1.6285,-1.5698,-1.5309,-1.5808,-1.6585,-0.9616,-1.2109,-1.5298,-1.8427,-2.1406,-2.4109,-2.6301,-2.7931,-2.8913,-2.8946,-2.8169,-2.7133,-2.3851,-1.9257,-1.6339,-1.1848,-0.5376,0.0318,0.474,0.7942,0.9354,0.9142,0.847,0.8483,0.8389,0.8375,0.8192,0.7465,0.6773,0.6266,0.5712,0.4621,0.2743,0.201,0.1456,0.1882,0.1896,0.151,0.1186,0.0537,-0.0538,-0.1507,-0.2684,-0.4298,-0.6513,-0.8614,-1.0027,-0.9979,-0.9546,-0.9076,-0.8553,-0.7811,-0.7151,-0.7905,-0.8477,-0.88,-0.9684,-1.0798,-1.0919,-1.0632,-1.0097,-0.8934,-0.6944,-0.5471,-0.4394,-0.3186,-0.2113,-0.133,0.0,-0.0884,-0.0751,-0.0948,-0.1127,-0.147,-0.2243,-0.3552,-0.4933,-0.5032,-0.5062,-0.5922,-0.7423,-1.0436,-1.3576,-1.6926,-1.8289,-1.9328,-1.9406,-2.076,-2.1795,-2.223,-2.2643,-2.3097,-2.2971,-2.303,-2.3673,-2.3592,-2.2453,-2.2376,-2.1858,-2.0979,-2.0425,-2.1003,-2.157,-2.0939,-2.0397,-2.0335,-2.0461,-1.8559,-1.7136,-1.4715,-1.3553,-1.4253,-1.5015,-1.5457,-1.637,-1.5851,-2.0389,-2.33,-2.6172,-2.8787,-3.0278,-3.0983,-3.1406,-3.1633,-3.0116,-2.8428,-2.6459,-2.1469,-1.7122,-1.2553,-0.6681,0.0204,0.5534,0.9116,0.9304,0.882,0.809,0.7097,0.6425,0.6169,0.7056,0.6895,0.6379,0.5783,0.5413,0.4825,0.3802,0.2508,0.1812,0.1842,0.1623,0.1153,0.051,-0.0,-0.0916,-0.2254,-0.3313,-0.4542,-0.6004,-0.7809,-0.893,-0.9727,-0.9759,-0.9709,-0.9304,-0.9563,-0.9124,-0.8647,-0.8867,-0.9561,-0.9578,-1.0169,-1.0896,-1.149,-1.0849,-1.0129,-1.1268,-0.8922,-0.6995,-0.5696,-0.4594,-0.354,-0.2678,-0.2059,-0.1472,-0.0872,-0.1068,-0.1303,-0.1568,-0.2303,-0.3589,-0.4791,-0.5245,-0.5967,-0.6924,-0.9125,-1.2252,-1.597,-1.9414,-2.0156,-2.0742,-2.0781,-2.1211,-2.2343,-2.293,-2.3315,-2.3778,-2.3816,-2.2479,-2.2773,-2.1411,-2.0458,-2.019,-1.9401,-1.8317,-1.7003,-1.7077,-1.7645,-1.7034,-1.6634,-1.6734,-1.6641,-1.5869,-1.4054,-1.1416,-1.2695,-1.5379,-1.576,-1.5249,-1.6254,-2.5094,-2.8746,-3.0826,-3.1663,-3.1694,-3.2813,-3.2529,-3.1682,-3.1008,-2.9149,-2.5906,-2.1326,-1.7239,-1.2219,-0.5982,0.028,0.5523,0.8877,1.0038,0.9428,0.8096,0.649,0.5084,0.3276,0.2799,0.3417,0.406,0.4337,0.4334,0.4386,0.4049,0.3199,0.2066,0.149,0.1147,0.0863,0.0053,-0.0834,-0.1564,-0.2833,-0.4247,-0.5496,-0.6381,-0.7576,-0.9077,-0.9468,-0.9172,-0.9789,-1.008,-0.9517,-0.9467,-0.9139,-0.8822,-0.9165,-0.9831,-1.0328,-1.0576,-1.1073,-1.1444,-1.0649,-0.9742,-0.9202,-0.8081,-0.7096,-0.6284,-0.5482,-0.4441,-0.3449,-0.2593,-0.1923,-0.1728,-0.1666,-0.1442,-0.1672,-0.241,-0.3645,-0.4693,-0.5867,-0.6922,-0.7745,-1.063,-1.4194,-1.8134,-2.1198,-2.2052,-2.2302,-2.2081,-2.2791,-2.3966,-2.4019,-2.3866,-2.4373,-2.4919,-2.3034,-2.1468,-1.9326,-1.782,-1.8032,-1.7513,-1.6753,-1.5462,-1.4191,-1.3771,-1.396,-1.3873,-1.3906,-1.3595,-1.3282,-1.3528,-1.2799,-1.4898,-1.7435,-1.7205,-1.6971,-1.6745,-3.2252,-3.3283,-3.3463,-3.3333,-3.3058,-3.2813,-3.1926,-3.0568,-2.9648,-2.6392,-2.1833,-1.7977,-1.263,-0.6668,-0.2649,0.2954,0.755,0.8282,0.8436,0.7537,0.4972,0.256,0.1214,-0.0877,-0.1636,-0.1618,-0.0603,0.122,0.2379,0.2645,0.2965,0.2966,0.1224,-0.0223,-0.0442,-0.0966,-0.1531,-0.237,-0.3423,-0.4741,-0.6187,-0.7529,-0.8619,-0.9141,-0.9784,-0.9934,-0.9468,-0.9278,-0.9581,-0.9338,-0.9159,-0.8897,-0.8812,-0.9125,-0.9705,-1.0392,-1.0823,-1.0988,-1.0933,-1.0081,-0.9288,-0.9382,-0.8075,-0.6654,-0.5952,-0.5378,-0.5033,-0.4032,-0.3048,-0.2441,-0.2441,-0.2176,-0.1787,-0.1515,-0.2408,-0.3864,-0.5386,-0.6715,-0.7617,-0.8669,-1.1819,-1.5711,-2.0467,-2.2788,-2.3844,-2.3941,-2.348,-2.4257,-2.5375,-2.4719,-2.3981,-2.3274,-2.3276,-2.1287,-1.9597,-1.8153,-1.6535,-1.6434,-1.6204,-1.5461,-1.439,-1.3365,-1.2408,-1.1973,-1.1743,-1.2843,-1.1854,-1.1993,-1.3083,-1.4884,-1.783,-1.991,-1.9214,-1.8773,-1.7992,-3.6824,-3.559,-3.4035,-3.3179,-3.2634,-3.1107,-2.9101,-2.74,-2.5849,-2.1668,-1.6064,-1.3288,-0.8013,-0.2022,0.056,0.3221,0.7712,0.5156,0.3729,0.2552,-0.0387,-0.3032,-0.4364,-0.5913,-0.6907,-0.6635,-0.5859,-0.3679,-0.0706,0.01,0.1269,0.1253,-0.0915,-0.2722,-0.2971,-0.3329,-0.3714,-0.4428,-0.5466,-0.667,-0.8029,-0.9449,-1.0514,-1.0454,-1.0556,-1.0356,-0.9922,-0.9368,-0.9192,-0.9033,-0.8799,-0.8465,-0.8253,-0.8777,-0.9389,-0.9966,-1.0849,-1.0917,-0.9819,-0.9098,-0.8682,-0.9638,-0.8043,-0.6392,-0.5433,-0.5372,-0.5319,-0.4352,-0.3617,-0.3022,-0.2989,-0.2819,-0.225,-0.1878,-0.2577,-0.4077,-0.6348,-0.7857,-0.849,-1.0321,-1.3208,-1.7669,-2.2884,-2.4548,-2.5674,-2.5356,-2.4902,-2.4767,-2.5542,-2.4414,-2.3421,-2.1891,-2.0759,-1.8861,-1.7617,-1.7304,-1.621,-1.5952,-1.5771,-1.5262,-1.4024,-1.2795,-1.2361,-1.2576,-1.3556,-1.4335,-1.2574,-1.2265,-1.5147,-1.8114,-2.1166,-2.1806,-2.0147,-1.8375,-1.7086,-3.6562,-3.5393,-3.3659,-3.1636,-2.9308,-2.7036,-2.3676,-2.01,-1.8165,-1.4318,-0.997,-0.5486,-0.2476,-0.0466,0.0459,0.1509,0.1272,-0.0816,-0.2676,-0.3614,-0.6467,-0.8314,-0.9098,-1.1113,-1.1483,-1.1167,-1.0238,-0.7619,-0.4997,-0.364,-0.2172,-0.1515,-0.2689,-0.4334,-0.6221,-0.6029,-0.6048,-0.6838,-0.7893,-0.9141,-1.0393,-1.1133,-1.1724,-1.1849,-1.1412,-1.0664,-1.0361,-0.9731,-0.9317,-0.8945,-0.8395,-0.7851,-0.7616,-0.8434,-0.888,-0.9546,-1.0235,-1.04,-0.8067,-0.7252,-0.7846,-0.8717,-0.742,-0.6172,-0.5516,-0.5125,-0.4992,-0.4582,-0.4181,-0.3865,-0.3585,-0.3443,-0.299,-0.2949,-0.3304,-0.5261,-0.7483,-0.9859,-1.0383,-1.2076,-1.5011,-2.046,-2.5917,-2.6652,-2.7313,-2.6799,-2.6366,-2.6048,-2.5373,-2.4087,-2.2267,-2.0555,-1.9347,-1.7543,-1.836,-1.7634,-1.7511,-1.6722,-1.601,-1.5701,-1.5073,-1.4528,-1.469,-1.5101,-1.6132,-1.6314,-1.502,-1.578,-1.8428,-2.0451,-2.2407,-2.176,-2.0193,-1.8367,-1.6287,-3.5374,-3.456,-3.1533,-2.8796,-2.617,-2.2884,-1.9335,-1.6081,-1.3736,-1.0097,-0.5976,-0.39,-0.2419,-0.2041,-0.2357,-0.2746,-0.3462,-0.6715,-0.8403,-0.9631,-1.2079,-1.4026,-1.4752,-1.5712,-1.5985,-1.5318,-1.4306,-1.3311,-1.0569,-0.7955,-0.5948,-0.5539,-0.6214,-0.7659,-0.9306,-0.8978,-0.8936,-0.946,-1.0314,-1.1366,-1.2214,-1.2757,-1.3066,-1.3314,-1.2595,-1.1791,-1.0973,-1.0794,-1.0036,-0.9393,-0.8694,-0.8185,-0.7735,-0.7887,-0.8119,-0.8593,-0.9179,-0.8952,-0.7674,-0.6419,-0.6887,-0.7262,-0.6312,-0.4992,-0.5123,-0.5203,-0.4923,-0.4619,-0.4668,-0.4552,-0.4369,-0.4447,-0.463,-0.4634,-0.4472,-0.68,-0.9053,-1.1313,-1.3098,-1.4891,-1.6965,-2.1963,-2.5999,-2.6389,-2.6717,-2.6706,-2.6082,-2.5562,-2.4605,-2.3176,-2.1111,-1.8843,-1.7776,-1.6657,-1.8703,-1.9742,-2.0467,-1.9756,-1.7929,-1.7607,-1.714,-1.6882,-1.7406,-1.8531,-2.0013,-1.9463,-1.785,-1.8865,-2.1138,-2.2235,-2.3184,-2.1115,-1.897,-1.733,-1.4973,-3.3585,-3.2145,-2.8338,-2.53,-2.2694,-1.8548,-1.5014,-1.2183,-1.0373,-0.7222,-0.4595,-0.4641,-0.5298,-0.5957,-0.7722,-0.9188,-0.96,-1.3342,-1.4777,-1.6203,-1.7792,-1.9553,-1.9861,-2.0147,-1.9709,-1.9274,-1.7552,-1.6672,-1.5468,-1.338,-1.1075,-1.0076,-1.0141,-1.12,-1.1981,-1.1932,-1.1664,-1.1955,-1.2608,-1.3233,-1.3742,-1.4118,-1.4138,-1.4078,-1.3714,-1.2983,-1.1762,-1.1436,-1.0754,-1.011,-0.9211,-0.8685,-0.8302,-0.8075,-0.8122,-0.8431,-0.8831,-0.8553,-0.7367,-0.6191,-0.566,-0.5495,-0.5175,-0.4212,-0.4569,-0.4931,-0.5082,-0.4624,-0.4716,-0.4905,-0.5125,-0.5175,-0.574,-0.5866,-0.5926,-0.8413,-1.1041,-1.3828,-1.5757,-1.7038,-1.9077,-2.1702,-2.4749,-2.537,-2.5822,-2.6267,-2.5886,-2.4998,-2.3373,-2.1517,-2.0451,-1.8249,-1.7804,-1.7352,-1.9266,-2.1128,-2.2198,-2.2725,-2.0904,-1.9913,-1.9726,-2.0223,-2.0937,-2.2259,-2.3634,-2.3347,-2.2158,-2.2907,-2.364,-2.4493,-2.4227,-2.0011,-1.7433,-1.5878,-1.419,-3.1096,-2.7306,-2.4094,-2.1353,-1.8732,-1.4161,-1.0711,-0.8809,-0.7012,-0.614,-0.594,-0.7335,-0.9802,-1.1398,-1.4606,-1.7003,-1.8628,-2.2284,-2.3176,-2.3983,-2.5183,-2.4743,-2.4195,-2.3322,-2.2727,-2.2213,-2.0515,-1.9459,-1.9025,-1.7993,-1.6146,-1.4948,-1.3952,-1.4655,-1.494,-1.4494,-1.4224,-1.4428,-1.4722,-1.479,-1.5016,-1.5126,-1.5042,-1.4752,-1.4417,-1.3659,-1.2047,-1.1698,-1.1254,-1.0764,-0.9908,-0.9142,-0.8874,-0.8555,-0.8483,-0.837,-0.8807,-0.8286,-0.697,-0.5759,-0.5029,-0.4726,-0.4312,-0.3746,-0.406,-0.4282,-0.4394,-0.4603,-0.4922,-0.5135,-0.5351,-0.5655,-0.6625,-0.7107,-0.7637,-0.9575,-1.2813,-1.7132,-1.8898,-1.9504,-2.1056,-2.3166,-2.1891,-2.2191,-2.3412,-2.3852,-2.2965,-2.2086,-2.0365,-1.8848,-1.922,-1.8439,-1.8224,-1.863,-2.0222,-2.1954,-2.412,-2.4794,-2.3795,-2.3124,-2.2802,-2.3509,-2.4505,-2.53,-2.6371,-2.6467,-2.6339,-2.5727,-2.5653,-2.6615,-2.4953,-1.9603,-1.6087,-1.4365,-1.3176,-3.0537,-2.7063,-2.2996,-1.9648,-1.6819,-1.3549,-1.1613,-1.0654,-0.9734,-1.0733,-1.2605,-1.4959,-1.7263,-1.9699,-2.2321,-2.4462,-2.5782,-2.7721,-2.8602,-2.8738,-2.872,-2.8135,-2.7178,-2.6036,-2.5152,-2.421,-2.2714,-2.2013,-2.1931,-2.1145,-2.0716,-1.9364,-1.7439,-1.6811,-1.6773,-1.6634,-1.6532,-1.649,-1.6456,-1.6353,-1.6439,-1.6473,-1.6191,-1.5376,-1.5156,-1.4149,-1.2761,-1.2351,-1.1683,-1.1009,-1.0539,-0.9987,-0.9309,-0.8988,-0.8581,-0.8205,-0.8623,-0.7885,-0.6608,-0.5455,-0.4921,-0.4509,-0.3966,-0.3528,-0.375,-0.3677,-0.3964,-0.4438,-0.5454,-0.5996,-0.5902,-0.6716,-0.7637,-0.8207,-0.9304,-1.0939,-1.4015,-1.8302,-2.0464,-2.041,-2.1749,-2.3579,-2.1178,-1.857,-2.0048,-2.1245,-2.0215,-1.9052,-1.7538,-1.7144,-1.7865,-1.9101,-1.9156,-2.1244,-2.2991,-2.4699,-2.6326,-2.6487,-2.6544,-2.6188,-2.5886,-2.7193,-2.8109,-2.8727,-2.8684,-2.8396,-2.7975,-2.7385,-2.6786,-2.5972,-2.2638,-1.7873,-1.5092,-1.332,-1.3537,-3.0813,-2.7915,-2.4316,-2.0653,-1.7188,-1.4987,-1.4506,-1.5077,-1.5325,-1.7255,-2.0835,-2.2714,-2.4618,-2.6931,-2.8423,-2.9865,-3.0537,-3.1647,-3.1802,-3.1562,-3.0968,-3.0315,-2.9074,-2.7807,-2.6529,-2.5711,-2.4604,-2.389,-2.3879,-2.3528,-2.2788,-2.1744,-2.0489,-1.9228,-1.8433,-1.8191,-1.8125,-1.8012,-1.8043,-1.7799,-1.7839,-1.7593,-1.7145,-1.6282,-1.5991,-1.4905,-1.3615,-1.2885,-1.232,-1.167,-1.1155,-1.076,-0.9992,-0.9225,-0.8679,-0.8331,-0.7891,-0.7407,-0.6419,-0.5502,-0.4781,-0.3927,-0.3861,-0.3619,-0.3559,-0.334,-0.37,-0.4526,-0.5979,-0.7012,-0.6681,-0.7405,-0.848,-0.9119,-1.0143,-1.1828,-1.4749,-1.8405,-1.9989,-2.1117,-2.2576,-2.3429,-1.8969,-1.6063,-1.6308,-1.7338,-1.667,-1.6021,-1.5537,-1.579,-1.7455,-1.8957,-2.0395,-2.3202,-2.6247,-2.6735,-2.7336,-2.87,-2.8783,-2.8883,-2.9104,-3.0137,-3.0856,-3.1078,-3.0834,-3.027,-2.9452,-2.8599,-2.6413,-2.405,-2.0856,-1.8011,-1.6071,-1.4957,-1.6548,-3.1958,-2.9666,-2.818,-2.4648,-2.0589,-1.8686,-1.9147,-2.1084,-2.2722,-2.5015,-2.7641,-2.9035,-3.0018,-3.1164,-3.1663,-3.2418,-3.3306,-3.3822,-3.3671,-3.2993,-3.2024,-3.1454,-3.0176,-2.871,-2.757,-2.7312,-2.6119,-2.5141,-2.5259,-2.4531,-2.397,-2.3318,-2.2092,-2.0806,-2.0092,-1.9463,-1.9055,-1.8888,-1.9265,-1.9117,-1.8681,-1.8288,-1.776,-1.6952,-1.6632,-1.5498,-1.4055,-1.3456,-1.2892,-1.225,-1.2046,-1.1637,-1.0927,-1.0108,-0.9551,-0.9215,-0.8065,-0.7359,-0.682,-0.5719,-0.4472,-0.3384,-0.3413,-0.3512,-0.3425,-0.3432,-0.3746,-0.4619,-0.6257,-0.7237,-0.7514,-0.7899,-0.8966,-1.0004,-1.0947,-1.2507,-1.5376,-1.7729,-1.937,-2.0396,-2.2125,-2.2604,-1.7478,-1.3764,-1.3242,-1.3211,-1.2834,-1.2828,-1.3288,-1.5005,-1.7065,-1.9145,-2.1128,-2.4519,-2.7063,-2.7547,-2.8405,-2.9948,-3.0789,-3.0743,-3.0943,-3.1444,-3.2188,-3.2893,-3.1936,-3.0436,-3.0046,-2.973,-2.7951,-2.6121,-2.2439,-1.96,-1.7636,-1.7622,-2.0168,-3.4153,-3.2834,-3.2343,-3.139,-2.9666,-2.6374,-2.6469,-2.9171,-3.1309,-3.2684,-3.312,-3.375,-3.3671,-3.3827,-3.3631,-3.3939,-3.4267,-3.3751,-3.3411,-3.3494,-3.2313,-3.1329,-3.0239,-2.9194,-2.8312,-2.792,-2.696,-2.6564,-2.6939,-2.5778,-2.5392,-2.4853,-2.2797,-2.1426,-2.0529,-1.9933,-1.9557,-1.9548,-1.9672,-1.9531,-1.8934,-1.8837,-1.8338,-1.7086,-1.6788,-1.5704,-1.4248,-1.3939,-1.3433,-1.2905,-1.2806,-1.25,-1.1637,-1.0772,-1.0154,-0.9492,-0.8395,-0.7453,-0.5844,-0.4291,-0.4167,-0.3445,-0.2973,-0.3156,-0.3467,-0.3326,-0.387,-0.4808,-0.619,-0.708,-0.7646,-0.82,-0.9161,-1.0133,-1.1227,-1.2678,-1.4912,-1.6948,-1.8613,-1.9124,-2.0375,-1.6396,-1.1713,-1.0847,-1.0557,-1.1018,-1.1021,-1.2155,-1.288,-1.5054,-1.7255,-1.945,-2.185,-2.5388,-2.7905,-2.9011,-2.9757,-3.0963,-3.1844,-3.2109,-3.2415,-3.2444,-3.2374,-3.2511,-3.1473,-3.0504,-3.0304,-3.0198,-3.0325,-2.8592,-2.6375,-2.3897,-2.2137,-2.3323,-2.6184,-3.7067,-3.6716,-3.6712,-3.7144,-3.7107,-3.3462,-3.3409,-3.6009,-3.782,-3.7936,-3.6723,-3.6372,-3.5615,-3.4842,-3.4375,-3.4218,-3.4008,-3.3529,-3.3016,-3.3141,-3.1864,-3.1065,-3.0278,-2.942,-2.8949,-2.8538,-2.8138,-2.7875,-2.7701,-2.6899,-2.5739,-2.4262,-2.2787,-2.1382,-2.0556,-2.0119,-1.9905,-1.9958,-2.0009,-1.9909,-1.9427,-1.9046,-1.8543,-1.7527,-1.6639,-1.5557,-1.4891,-1.4344,-1.3966,-1.3621,-1.3432,-1.3202,-1.2208,-1.1305,-1.0491,-0.9539,-0.8319,-0.6943,-0.4568,-0.3884,-0.3708,-0.3082,-0.2494,-0.2655,-0.3382,-0.3532,-0.4141,-0.5046,-0.6085,-0.6836,-0.7594,-0.8279,-0.9001,-0.9977,-1.1265,-1.2709,-1.4054,-1.6082,-1.7069,-1.7633,-1.4271,-1.0023,-0.7164,-0.7606,-0.7717,-0.8551,-0.9373,-1.1325,-1.355,-1.6181,-1.855,-2.0573,-2.345,-2.7248,-2.9832,-3.1214,-3.1826,-3.2222,-3.2544,-3.2847,-3.2554,-3.2365,-3.2246,-3.188,-3.0707,-3.0005,-3.0391,-3.067,-3.2578,-3.3459,-3.286,-3.0206,-2.725,-2.8568,-3.1217,-4.0389,-4.1089,-4.1169,-4.1435,-4.1612,-3.8924,-3.9018,-4.0692,-4.14,-4.0311,-3.8119,-3.7099,-3.5818,-3.445,-3.3632,-3.3201,-3.2953,-3.2829,-3.2416,-3.1928,-3.0919,-3.0528,-3.0004,-2.9285,-2.8719,-2.8917,-2.8669,-2.7799,-2.7899,-2.6831,-2.5167,-2.3225,-2.2048,-2.1116,-2.0556,-2.0214,-2.0099,-2.0082,-2.0245,-2.007,-1.9555,-1.8915,-1.8377,-1.7492,-1.6384,-1.5645,-1.5107,-1.485,-1.4589,-1.4351,-1.417,-1.349,-1.2623,-1.1654,-1.0553,-0.9316,-0.7838,-0.573,-0.4036,-0.3802,-0.3302,-0.2746,-0.2444,-0.2582,-0.3055,-0.3709,-0.4349,-0.5123,-0.6025,-0.6665,-0.729,-0.7929,-0.856,-0.9749,-1.0971,-1.2216,-1.3383,-1.457,-1.5314,-1.3672,-0.8832,-0.5208,-0.3895,-0.3952,-0.8437,-0.981,-1.1861,-1.5415,-1.7544,-1.9318,-2.1395,-2.2499,-2.5599,-2.939,-3.1519,-3.2558,-3.235,-3.2216,-3.2733,-3.3029,-3.2693,-3.2262,-3.2097,-3.1448,-2.9976,-2.9455,-2.9933,-3.2778,-3.6647,-3.7184,-3.7182,-3.5363,-3.2007,-3.3005,-3.5467,-4.236,-4.2112,-4.2611,-4.266,-4.2198,-4.1888,-4.1773,-4.1596,-4.1338,-3.9712,-3.7264,-3.6499,-3.4913,-3.285,-3.1892,-3.1556,-3.1208,-3.0771,-3.0265,-2.9806,-2.9465,-2.8903,-2.832,-2.7716,-2.7579,-2.7633,-2.7533,-2.7331,-2.7044,-2.6222,-2.4321,-2.2158,-2.1612,-2.1012,-2.0576,-2.0258,-2.0146,-2.0114,-2.0351,-1.9902,-1.9353,-1.8647,-1.8031,-1.7054,-1.5944,-1.5327,-1.5261,-1.4842,-1.4635,-1.4779,-1.4293,-1.3594,-1.2732,-1.1643,-1.0516,-0.8959,-0.7298,-0.5477,-0.4063,-0.3546,-0.3119,-0.2585,-0.246,-0.2802,-0.3266,-0.3818,-0.4406,-0.5127,-0.5782,-0.6324,-0.6684,-0.7206,-0.796,-0.902,-1.015,-1.1228,-1.2087,-1.212,-1.2595,-0.9368,-0.447,-0.1743,-0.0468,-0.6696,-1.0901,-1.2172,-1.4627,-1.8552,-2.1468,-2.3236,-2.4307,-2.5374,-2.7031,-3.0588,-3.2119,-3.324,-3.2633,-3.2247,-3.2625,-3.2842,-3.252,-3.2117,-3.1931,-3.1117,-2.9846,-2.9404,-2.9505,-3.3452,-3.8685,-4.0488,-4.0593,-3.8862,-3.7602,-3.8122,-3.8889,-4.3417,-4.3014,-4.3431,-4.2927,-4.1894,-4.1888,-4.1197,-4.0234,-4.0527,-3.9228,-3.6501,-3.5257,-3.3553,-3.1571,-3.033,-2.9686,-2.9647,-2.9248,-2.869,-2.8068,-2.7612,-2.7069,-2.6448,-2.5913,-2.5875,-2.5984,-2.6038,-2.5863,-2.5581,-2.4501,-2.2691,-2.1772,-2.139,-2.0882,-2.049,-2.0326,-2.0274,-2.0164,-2.0017,-1.9535,-1.8926,-1.8353,-1.7577,-1.6677,-1.5567,-1.5383,-1.5328,-1.4892,-1.4881,-1.4959,-1.4436,-1.3589,-1.2457,-1.1138,-0.9806,-0.8306,-0.7021,-0.4935,-0.3292,-0.3413,-0.2904,-0.2553,-0.2637,-0.3169,-0.3375,-0.3731,-0.4236,-0.4817,-0.537,-0.5865,-0.6089,-0.6406,-0.7244,-0.8103,-0.9106,-1.0044,-0.9985,-0.9715,-0.7638,-0.4875,-0.1717,0.1314,-0.0988,-0.825,-1.3601,-1.524,-1.829,-2.2678,-2.5308,-2.703,-2.7746,-2.8327,-2.9474,-3.1342,-3.2502,-3.3128,-3.2339,-3.183,-3.201,-3.2151,-3.2038,-3.19,-3.1578,-3.0837,-2.9852,-2.9889,-3.0331,-3.5588,-4.0251,-4.2062,-4.3701,-4.282,-4.1834,-4.183,-4.2717,-4.3512,-4.3351,-4.3344,-4.2151,-4.0877,-3.9992,-3.87,-3.7292,-3.8984,-3.8358,-3.5411,-3.3711,-3.1962,-3.0086,-2.8605,-2.794,-2.778,-2.7498,-2.6776,-2.6275,-2.5802,-2.5264,-2.4751,-2.4258,-2.4245,-2.4438,-2.4572,-2.4393,-2.347,-2.2701,-2.2109,-2.1494,-2.0837,-2.0414,-2.0416,-2.0417,-2.0351,-2.0331,-1.9863,-1.9305,-1.8587,-1.8003,-1.7424,-1.6675,-1.6135,-1.5805,-1.5768,-1.5542,-1.5229,-1.4963,-1.4365,-1.3387,-1.1613,-1.0266,-0.8852,-0.7818,-0.6763,-0.4829,-0.3185,-0.2904,-0.2563,-0.2473,-0.2841,-0.3298,-0.3462,-0.3836,-0.4357,-0.46,-0.5104,-0.5267,-0.5428,-0.5857,-0.6592,-0.7163,-0.7907,-0.8318,-0.8139,-0.6641,-0.3402,-0.0629,0.2144,0.3895,-0.2633,-0.9946,-1.7115,-1.8678,-2.1988,-2.6636,-2.8622,-3.0341,-3.0613,-3.08,-3.0746,-3.1332,-3.1934,-3.2317,-3.1697,-3.1396,-3.1543,-3.1561,-3.152,-3.1373,-3.1253,-3.1384,-3.1655,-3.1271,-3.2406,-3.7822,-4.2321,-4.46,-4.5954,-4.6439,-4.6147,-4.5482,-4.5475,-4.2304,-4.1601,-4.0299,-3.949,-3.9034,-3.8121,-3.7132,-3.6072,-3.5188,-3.4217,-3.277,-3.1508,-3.0069,-2.8307,-2.6696,-2.5979,-2.5912,-2.5467,-2.4569,-2.4007,-2.3582,-2.3353,-2.3042,-2.2443,-2.2538,-2.3007,-2.313,-2.2877,-2.2186,-2.1661,-2.126,-2.0745,-2.0356,-2.0363,-2.0409,-2.0458,-2.0456,-2.0425,-1.9555,-1.8972,-1.838,-1.7223,-1.633,-1.587,-1.5516,-1.536,-1.5323,-1.5269,-1.4781,-1.4323,-1.3492,-1.1977,-0.9987,-0.9243,-0.8705,-0.8016,-0.6769,-0.4854,-0.3464,-0.2523,-0.1913,-0.2061,-0.2422,-0.2962,-0.3468,-0.4048,-0.4433,-0.4571,-0.4673,-0.4732,-0.4911,-0.5391,-0.5834,-0.6287,-0.6686,-0.6568,-0.6329,-0.2832,0.0607,0.3334,0.6076,0.1545,-0.4984,-1.1934,-1.8764,-2.3469,-2.6831,-3.0039,-3.117,-3.248,-3.2353,-3.2219,-3.0953,-3.1191,-3.1653,-3.1468,-3.0857,-3.0907,-3.1111,-3.1091,-3.1102,-3.19,-3.269,-3.356,-3.3936,-3.3779,-3.5587,-4.0634,-4.4543,-4.6711,-4.7437,-4.7634,-4.8323,-4.8051,-4.7984,-4.0853,-3.9253,-3.7537,-3.6823,-3.666,-3.5825,-3.4788,-3.3555,-3.2402,-3.0802,-2.9162,-2.8628,-2.7856,-2.6343,-2.4837,-2.4082,-2.3968,-2.3348,-2.262,-2.1949,-2.1406,-2.1165,-2.0887,-2.0772,-2.1092,-2.1481,-2.1533,-2.1286,-2.0991,-2.0848,-2.0576,-2.0283,-2.0282,-2.0391,-2.0405,-2.0426,-2.0472,-2.0468,-1.9255,-1.8504,-1.8,-1.6885,-1.5791,-1.5326,-1.5084,-1.498,-1.4854,-1.482,-1.4336,-1.3554,-1.2609,-1.1123,-0.9542,-0.8646,-0.857,-0.804,-0.6849,-0.5019,-0.3721,-0.2562,-0.1457,-0.1508,-0.2089,-0.2683,-0.3526,-0.4045,-0.4221,-0.4353,-0.4411,-0.4455,-0.4749,-0.5174,-0.5285,-0.5584,-0.5893,-0.5963,-0.3244,0.0575,0.3277,0.5505,0.4272,-0.2528,-0.9656,-1.8106,-2.3772,-2.504,-2.8914,-3.0881,-3.237,-3.3332,-3.346,-3.3277,-3.1823,-3.0775,-3.0731,-3.0471,-2.9945,-3.0174,-3.0878,-3.1482,-3.2111,-3.3332,-3.4345,-3.5491,-3.6384,-3.6787,-3.9409,-4.3133,-4.6102,-4.8294,-4.8624,-4.8569,-4.9386,-4.9986,-4.9606,-3.8951,-3.6696,-3.5193,-3.457,-3.4413,-3.3631,-3.2422,-3.0992,-3.0341,-2.8395,-2.5793,-2.5938,-2.5329,-2.4193,-2.3153,-2.2585,-2.1999,-2.1442,-2.0735,-2.0062,-1.9461,-1.9674,-1.9632,-1.938,-1.9984,-2.0327,-2.043,-2.0304,-2.0098,-2.0169,-2.0249,-2.005,-2.0152,-2.0346,-2.0379,-2.0383,-2.0418,-1.9832,-1.8906,-1.7946,-1.7239,-1.6537,-1.5574,-1.4991,-1.4764,-1.4867,-1.466,-1.4381,-1.3923,-1.2914,-1.1796,-1.0186,-0.9088,-0.8185,-0.8149,-0.7752,-0.664,-0.5114,-0.3948,-0.2895,-0.1587,-0.0979,-0.1778,-0.2572,-0.3387,-0.3815,-0.3965,-0.4145,-0.4206,-0.4474,-0.4746,-0.5075,-0.5159,-0.3929,-0.4183,-0.4386,-0.0452,0.3137,0.5124,0.6776,0.0281,-0.6571,-1.5276,-2.3775,-2.6393,-2.758,-2.8817,-3.0469,-3.1877,-3.2352,-3.2668,-3.2679,-3.1994,-3.1078,-3.0278,-3.0207,-3.001,-3.0601,-3.1407,-3.2198,-3.3259,-3.4945,-3.6454,-3.7775,-3.8571,-3.9443,-4.0952,-4.3887,-4.6701,-4.9505,-4.9594,-4.948,-4.9744,-5.0259,-5.0306,-3.5818,-3.4083,-3.3746,-3.3632,-3.3476,-3.2692,-3.1718,-3.0547,-2.904,-2.7164,-2.5216,-2.3557,-2.2628,-2.1611,-2.1454,-2.0823,-1.9821,-1.9517,-1.8994,-1.8274,-1.8349,-1.8671,-1.9107,-1.9496,-1.963,-1.9957,-2.0199,-2.004,-1.9888,-2.0031,-2.0152,-2.0069,-2.0265,-2.0392,-2.0416,-2.0342,-2.0044,-1.9404,-1.8592,-1.7584,-1.6764,-1.6009,-1.5057,-1.4678,-1.4593,-1.4484,-1.4372,-1.4341,-1.3742,-1.2659,-1.1114,-0.9472,-0.8429,-0.7751,-0.7536,-0.7207,-0.6086,-0.5285,-0.4189,-0.3438,-0.2276,-0.1483,-0.2165,-0.2348,-0.3051,-0.3557,-0.3794,-0.4155,-0.4358,-0.4809,-0.5175,-0.5745,-0.5685,-0.1792,-0.0327,-0.0321,0.1566,0.3522,0.5221,0.1903,-0.3938,-1.2318,-2.17,-2.6977,-2.8606,-2.9546,-3.0034,-3.1448,-3.1546,-3.1748,-3.2027,-3.1968,-3.1924,-3.1066,-3.0208,-3.0787,-3.09,-3.142,-3.2281,-3.3644,-3.5209,-3.7063,-3.8544,-4.0039,-4.1465,-4.2567,-4.4158,-4.5197,-4.7353,-4.9792,-5.0138,-5.032,-5.044,-5.0423,-5.0385]},{"header":{"parameterUnit":"m.s-1","parameterCategory":1,"la1":31.0,"la2":29.5877,"lo1":-88.7671,"lo2":-86.6584,"dy":0.0162,"dx":0.0185,"nx":115,"ny":88,"refTime":"2024-02-11T12:00:00:Z","depth":0,"parameterNumber":3,"parameterNumberName":"V-component_of_WINDS"},"data":[0.0,0.0,0.0,0.0,0.0,0.0,0.0,0.0,0.0,0.0,0.0,0.0,0.0,0.0,0.0,0.0,0.0,0.0,0.0,0.0,0.0,0.0,0.0,0.0,0.0,0.0,0.0,0.0,0.0,0.0,0.0,0.0,0.0,0.0,0.0,0.0,0.0,0.0,0.0,0.0,0.0,0.0,0.0,0.0,0.0,0.0,0.0,0.0,0.0,0.0,0.0,0.0,0.0,0.0,0.0,0.0,0.0,0.0,0.0,0.0,0.0,0.0,0.0,0.0,0.0,0.0,0.0,0.0,0.0,0.0,0.0,0.0,0.0,0.0,0.0,0.0,0.0,0.0,0.0,0.0,0.0,0.0,0.0,0.0,0.0,0.0,0.0,0.0,0.0,0.0,0.0,0.0,0.0,0.0,0.0,0.0,0.0,0.0,0.0,0.0,0.0,0.0,0.0,0.0,0.0,0.0,0.0,0.0,0.0,0.0,0.0,0.0,0.0,0.0,0.0,0.0,0.0,0.0,0.0,0.0,0.0,0.0,0.0,0.0,0.0,0.0,0.0,0.0,0.0,0.0,0.0,0.0,0.0,0.0,0.0,0.0,0.0,0.0,0.0,0.0,0.0,0.0,0.0,0.0,0.0,0.0,0.0,0.0,0.0,0.0,0.0,0.0,0.0,0.0,0.0,0.0,0.0,0.0,0.0,0.0,0.0,0.0,0.0,0.0,0.0,0.0,0.0,0.0,0.0,0.0,0.0,0.0,0.0,0.0,0.0,0.0,0.0,0.0,0.0,0.0,0.0,0.0,0.0,0.0,0.0,0.0,0.0,0.0,0.0,0.0,0.0,0.0,0.0,0.0,0.0,0.0,0.0,0.0,0.0,0.0,0.0,0.0,0.0,0.0,0.0,0.0,0.0,0.0,0.0,0.0,0.0,0.0,0.0,0.0,0.0,0.0,0.0,0.0,0.0,0.0,0.0,0.0,0.0,0.0,0.0,0.0,0.0,0.0,0.0,0.0,0.0,0.0,0.0,0.0,0.0,0.0,0.0,0.0,0.0,0.0,0.0,0.0,0.0,0.0,0.0,0.0,0.0,0.0,0.0,0.0,0.0,0.0,0.0,0.0,0.0,0.0,0.0,0.0,0.0,0.0,0.0,0.0,0.0,0.0,0.0,0.0,0.0,0.0,0.0,0.0,0.0,0.0,0.0,0.0,0.0,0.0,0.0,0.0,0.0,0.0,0.0,0.0,0.0,0.0,0.0,0.0,0.0,0.0,0.0,0.0,0.0,0.0,0.0,0.0,0.0,0.0,0.0,0.0,0.0,0.0,0.0,0.0,0.0,0.0,0.0,0.0,0.0,0.0,0.0,0.0,0.0,0.0,0.0,0.0,0.0,0.0,0.0,0.0,0.0,0.0,0.0,0.0,0.0,0.0,0.0,0.0,0.0,0.0,0.0,0.0,0.0,0.0,0.0,0.0,0.0,0.0,0.0,0.0,0.0,0.0,0.0,0.0,0.0,0.0,0.0,0.0,0.0,0.0,0.0,0.0,0.0,0.0,0.0,0.0,0.0,0.0,0.0,0.0,0.0,0.0,0.0,0.0,0.0,0.0,0.0,0.0,0.0,0.0,0.0,0.0,0.0,0.0,0.0,0.0,0.0,0.0,0.0,0.0,0.0,0.0,0.0,0.0,0.0,0.0,0.0,0.0,0.0,0.0,0.0,0.0,0.0,0.0,0.0,0.0,0.0,0.0,0.0,0.0,0.0,0.0,0.0,0.0,0.0,0.0,0.0,0.0,0.0,0.0,0.0,0.0,0.0,0.0,0.0,0.0,0.0,0.0,0.0,0.0,0.0,0.0,0.0,0.0,0.0,0.0,0.0,0.0,0.0,0.0,0.0,0.0,0.0,0.0,0.0,0.0,0.0,0.0,0.0,0.0,0.0,0.0,0.0,0.0,0.0,0.0,0.0,0.0,0.0,0.0,0.0,0.0,0.0,0.0,0.0,0.0,0.0,0.0,0.0,0.0,0.0,0.0,0.0,0.0,0.0,0.0,0.0,0.0,0.0,0.0,0.0,0.0,0.0,0.0,0.0,0.0,0.0,0.0,0.0,0.0,0.0,0.0,0.0,0.0,0.0,0.0,0.0,0.0,0.0,0.0,0.0,0.0,0.0,0.0,0.0,0.0,0.0,0.0,0.0,0.0,0.0,0.0,0.0,0.0,0.0,0.0,0.0,0.0,0.0,0.0,0.0,0.0,0.0,0.0,0.0,0.0,0.0,0.0,0.0,0.0,0.0,0.0,0.0,0.0,0.0,0.0,0.0,0.0,0.0,0.0,0.0,0.0,0.0,0.0,0.0,0.0,0.0,0.0,0.0,0.0,0.0,0.0,0.0,0.0,0.0,0.0,0.0,0.0,0.0,0.0,0.0,0.0,0.0,0.0,0.0,0.0,0.0,0.0,0.0,0.0,0.0,0.0,0.0,0.0,0.0,0.0,0.0,0.0,0.0,0.0,0.0,0.0,0.0,0.0,0.0,0.0,0.0,0.0,0.0,0.0,0.0,0.0,0.0,0.0,0.0,0.0,0.0,0.0,0.0,0.0,0.0,0.0,0.0,0.0,0.0,0.0,0.0,0.0,0.0,0.0,0.0,0.0,0.0,0.0,0.0,0.0,0.0,0.0,0.0,0.0,0.0,0.0,0.0,0.0,0.0,0.0,0.0,0.0,0.0,0.0,0.0,0.0,0.0,0.0,0.0,0.0,0.0,0.0,0.0,0.0,0.0,0.0,0.0,0.0,0.0,0.0,0.0,0.0,0.0,0.0,0.0,0.0,0.0,0.0,0.0,0.0,0.0,0.0,0.0,0.0,0.0,0.0,0.0,0.0,0.0,0.0,0.0,0.0,0.0,0.0,0.0,0.0,0.0,0.0,0.0,0.0,0.0,0.0,0.0,0.0,0.0,0.0,0.0,0.0,0.0,0.0,0.0,0.0,0.0,0.0,0.0,0.0,0.0,0.0,0.0,0.0,0.0,0.0,0.0,0.0,0.0,0.0,0.0,0.0,0.0,0.0,0.0,0.0,0.0,0.0,0.0,0.0,0.0,0.0,0.0,0.0,0.0,0.0,0.0,0.0,0.0,0.0,0.0,0.0,0.0,0.0,0.0,0.0,0.0,0.0,0.0,0.0,0.0,0.0,0.0,0.0,0.0,0.0,0.0,0.0,0.0,0.0,0.0,0.0,0.0,0.0,0.0,0.0,0.0,0.0,0.0,0.0,0.0,0.0,0.0,0.0,0.0,0.0,0.0,0.0,0.0,0.0,0.0,0.0,0.0,0.0,0.0,0.0,0.0,0.0,0.0,0.0,0.0,0.0,0.0,0.0,0.0,0.0,0.0,0.0,0.0,0.0,0.0,0.0,0.0,0.0,0.0,0.0,0.0,0.0,0.0,0.0,0.0,0.0,0.0,0.0,0.0,0.0,0.0,0.0,0.0,0.0,0.0,0.0,0.0,0.0,0.0,0.0,0.0,0.0,0.0,0.0,0.0,0.0,0.0,0.0,0.0,0.0,0.0,0.0,0.0,0.0,0.0,0.0,0.0,0.0,0.0,0.0,0.0,0.0,0.0,0.0,0.0,0.0,0.0,0.0,0.0,0.0,0.0,0.0,0.0,0.0,0.0,0.0,0.0,0.0,0.0,0.0,0.0,0.0,0.0,0.0,0.0,0.0,0.0,0.0,0.0,0.0,0.0,0.0,0.0,0.0,0.0,0.0,0.0,0.0,0.0,0.0,0.0,0.0,0.0,0.0,0.0,0.0,0.0,0.0,0.0,0.0,0.0,0.0,0.0,0.0,0.0,0.0,0.0,0.0,0.0,0.0,0.0,0.0,0.0,0.0,0.0,0.0,0.0,0.0,0.0,0.0,0.0,0.0,0.0,0.0,0.0,0.0,0.0,0.0,0.0,0.0,0.0,0.0,0.0,0.0,0.0,0.0,0.0,0.0,0.0,0.0,0.0,0.0,0.0,0.0,0.0,0.0,0.0,0.0,0.0,0.0,0.0,0.0,0.0,0.0,0.0,0.0,0.0,0.0,0.0,0.0,0.0,0.0,0.0,0.0,0.0,0.0,0.0,0.0,0.0,0.0,0.0,0.0,0.0,0.0,0.0,0.0,0.0,0.0,0.0,0.0,0.0,0.0,0.0,0.0,0.0,0.0,0.0,0.0,0.0,0.0,0.0,0.0,0.0,0.0,0.0,0.0,0.0,0.0,0.0,0.0,0.2011,0.0,0.0,0.0,0.0,0.0,0.0,0.0,0.0,0.0,0.0,0.0,0.0,0.0,0.0,0.0,0.0,0.0,0.0,0.0,0.0,0.0,0.0,0.0,0.0,0.0,0.0,0.0,0.0,0.0,0.0,0.0,0.0,0.0,0.0,0.0,0.0,0.0,0.0,0.0,0.0,0.0,0.0,0.0,0.0,0.0,0.0,0.0,0.0,0.0,0.0,0.0,0.0,0.0,0.0,0.0,0.0,0.0,0.0,0.0,0.0,0.0,0.0,0.0,0.0,0.0,0.0,0.0,0.0,0.0,0.0,0.0,0.0,0.0,0.0,0.0,0.0,0.0,0.0,0.0,0.0,0.0,0.0,0.0,0.0,0.0,0.0,0.0,0.0,0.0,0.0,0.0,0.0,0.0,0.0,0.0,0.0,0.0,0.0,0.0,0.0,0.0,0.0,0.0,0.0,0.0,0.0,0.0,0.0,0.0,0.0,0.6394,0.5956,0.6433,0.5215,0.2111,0.0,0.0,0.0,0.0,0.0,0.0,0.0,0.0,0.0,0.0,0.0,0.0,0.0,0.0,0.0,0.0,0.0,0.0,0.0,0.0,0.0,0.0,0.0,0.0,0.0,0.0,0.0,0.0,0.0,0.0,0.0,0.0,0.0,0.0,0.0,0.0,0.0,0.0,0.0,0.0,0.0,0.0,0.0,0.0,0.0,0.0,0.0,0.0,0.0,0.0,0.0,0.0,0.0,0.0,0.0,0.0,0.0,0.0,0.0,0.0,0.0,0.0,0.0,0.0,0.0,0.0,0.0,0.0,0.0,0.0,0.0,0.0,0.0,0.0,0.0,0.0,0.0,0.0,0.0,0.0,0.0,0.0,0.0,0.0,0.0,0.0,0.0,0.0,0.0,0.0,0.0,0.0,0.0,0.0,0.0,0.0,0.0,0.0,0.0,0.0,0.0,0.0,0.0,0.0,0.0,0.0,0.0,0.0,0.0,0.0,0.0,0.0,0.5994,0.4522,0.1154,0.0,0.0,0.0,0.0,0.0,0.0,0.0,0.0,0.0,0.0,0.0,0.0,0.0,0.0,0.0,0.0,0.0,0.0,0.0,0.0,0.0,0.0,0.0,0.0,0.0,0.0,0.0,0.0,0.0,0.0,0.0,0.0,0.0,0.0,0.0,0.0,0.0,0.0,0.0,0.0,0.0,0.0,0.0,0.0,0.0,0.0,0.0,0.0,0.0,0.0,0.0,0.0,0.0,0.0,0.0,0.0,0.0,0.0,0.0,0.0,0.0,0.0,0.0,0.0,0.0,0.0,0.0,0.0,0.0,0.0,0.0,0.0,0.0,0.0,0.0,0.0,0.0,0.0,0.0,0.0,0.0,0.0,0.0,0.0,0.0,0.0,0.0,0.0,0.0,0.0,0.0,0.0,0.0,0.0,0.0,0.0,0.0,0.0,0.0,0.0,0.0,0.0,0.0,0.0,0.0,0.0,0.0,0.0,0.0,0.0,0.6109,0.6128,0.5179,0.0,-0.1678,0.0,0.0,0.0,0.0,0.0,0.0,0.0,0.0,0.0,0.0,0.0,0.0,0.0,0.0,0.0,0.0,0.0,0.0,0.0,0.0,0.0,0.0,0.0,0.0,0.0,0.0,0.0,0.0,0.0,0.0,0.0,0.0,0.0,0.0,0.0,0.0,0.0,0.0,0.0,0.0,0.0,0.0,0.0,0.0,0.0,0.0,0.0,0.0,0.0,0.0,0.0,0.0,0.0,0.0,0.0,0.0,0.0,0.0,0.0,0.0,0.0,0.0,0.0,0.0,0.0,0.0,0.0,0.0,0.0,0.0,0.0,0.0,0.0,0.0,0.0,0.0,0.0,0.0,0.0,0.0,0.0,0.0,0.0,0.0,0.0,0.0,0.0,0.0,0.0,0.0,0.0,0.0,0.0,0.0,0.0,0.0,0.0,0.0,0.0,0.0,0.0,0.0,0.0,0.0,0.0,0.0,0.0,0.0,0.0,0.0,0.5533,0.4572,0.3321,0.1706,0.0,0.0,0.0,0.0,0.0,0.0,0.0,0.0,0.0,0.0,0.0,0.0,0.0,0.0,0.0,0.0,0.0,0.0,0.0,0.0,0.0,0.0,0.0,0.0,0.0,0.0,0.0,0.0,0.0,0.0,0.0,0.0,0.0,0.0,0.0,0.0,0.0,0.0,0.0,0.0,0.0,0.0,0.0,0.0,0.0,0.0,0.0,0.0,0.0,0.0,0.0,0.0,0.0,0.0,0.0,0.0,0.0,0.0,0.0,0.0,0.0,0.0,0.0,0.0,0.0,0.0,0.0,0.0,0.0,0.0,0.0,0.0,0.0,0.0,0.0,0.0,0.0,0.0,0.0,0.0,0.0,0.0,0.0,0.0,0.0,0.0,0.0,0.0,0.0,0.0,0.0,0.0,0.0,0.0,0.0,0.0,0.0,0.0,0.0,0.0,0.0,0.0,0.0,0.0,0.0,0.0,0.0,0.0,0.0,0.0,0.5035,0.4854,0.394,0.269,0.1079,-0.0916,0.0,0.0,0.0,0.0,0.0,0.0,0.0,0.0,0.0,0.0,0.0,0.0,0.0,0.0,0.0,0.0,0.0,0.0,0.0,0.0,0.0,0.0,0.0,0.0,0.0,0.0,0.0,0.0,0.0,0.0,0.0,0.0,0.0,0.0,0.0,0.0,0.0,0.0,0.0,0.0,0.0,0.0,0.0,0.0,0.0,0.0,0.0,0.0,0.0,0.0,0.0,0.0,0.0,0.0,0.0,0.0,0.0,0.0,0.0,0.0,0.0,0.0,0.0,0.0,0.0,0.0,0.0,0.0,0.0,0.0,0.0,0.0,0.0,0.0,0.0,0.0,0.0,0.0,0.0,0.0,0.0,0.0,0.0,0.0,0.0,0.0,0.0,0.0,0.0,0.0,0.0,0.0,0.0,0.0,0.0,0.0,0.0,0.0,0.0,0.0,0.0,0.0,0.0,0.0,0.0,0.0,0.0,0.0,0.483,0.4007,0.4064,0.5062,0.4069,0.0567,0.0,0.0,0.0,0.0,0.0,0.0,0.0,0.0,0.0,0.0,0.0,0.0,0.0,0.0,0.0,0.0,0.0,0.0,0.0,0.0,0.0,0.0,0.0,0.0,0.0,0.0,0.0,0.0,0.0,0.0,0.0,0.0,0.0,0.0,0.0,0.0,0.0,0.0,0.0,0.0,0.0,0.0,0.0,0.0,0.0,0.0,0.0,0.0,0.0,0.0,0.0,0.0,0.0,0.0,0.0,0.0,0.0,0.0,0.0,0.0,0.0,0.0,0.0,0.0,0.0,0.0,0.0,0.0,0.0,0.0,0.0,0.0,0.0,0.0,0.0,0.0,0.0,0.0,0.0,0.0,0.0,0.0,0.0,0.0,0.0,0.0,0.0,0.0,0.0,0.0,0.0,0.0,0.0,0.0,0.0,0.0,0.0,0.0,0.0,0.0,0.0,0.0,0.0,0.0,0.0,0.0,0.0,0.0,0.0,0.4695,0.3626,0.3295,0.3862,0.1861,-0.0439,0.0,0.0,0.0,0.0,0.0,0.0,0.0,0.0,0.0,0.0,0.0,0.0,0.0,0.0,0.0,0.0,0.0,0.0,0.0,0.0,0.0,0.0,0.0,0.0,0.0,0.0,0.0,0.0,0.0,0.0,0.0,0.0,0.0,0.0,0.0,0.0,0.0,0.0,0.0,0.0,0.0,0.0,0.0,0.0,0.0,0.0,0.0,0.0,0.0,0.0,0.0,0.0,0.0,0.0,0.0,0.0,0.0,0.0,0.0,0.0,0.0,0.0,0.0,0.0,0.0,0.0,0.0,0.0,0.0,0.0,0.0,0.0,0.0,0.0,0.0,0.0,0.0,0.0,0.0,0.0,0.0,0.0,0.0,0.0,0.0,0.0,0.0,0.0,0.0,0.0,0.0,0.0,0.0,0.0,0.0,0.0,0.0,0.0,0.0,0.0,0.0,0.0,0.0,0.0,0.0,0.0,0.0,0.0,0.0,0.4844,0.0,0.2953,0.2211,0.0615,-0.1047,0.0,0.0,0.0,0.0,0.0,0.0,0.0,0.0,0.0,0.0,0.0,0.0,0.0,0.0,0.0,0.0,0.0,0.0,0.0,0.0,0.0,0.0,0.0,0.0,0.0,0.0,0.0,0.0,0.0,0.0,0.0,0.0,0.0,0.0,0.0,0.0,0.0,0.0,0.0,0.0,0.0,0.0,0.0,0.0,0.0,0.0,0.0,0.0,0.0,0.0,0.0,0.0,0.0,0.0,0.0,0.0,0.0,0.0,0.0,0.0,0.0,0.0,0.0,0.0,0.0,0.0,0.0,0.0,0.0,0.0,0.0,0.0,0.0,0.0,0.0,0.0,0.0,0.0,0.0,0.0,0.0,0.0,0.0,0.0,0.0,0.0,0.0,0.0,0.0,0.0,0.0,0.0,0.0,0.0,0.0,0.0,0.0,0.0,0.0,0.0,0.0,0.0,0.0,0.0,0.0,0.0,0.0,0.0,0.5,0.5236,0.4555,0.2991,0.0399,0.0744,-0.1298,0.0,0.0,0.0,0.0,0.0,0.0,0.0,0.0,0.0,0.0,0.0,0.0,0.0,0.0,0.0,0.0,0.0,0.0,0.0,0.0,0.0,0.0,0.0,0.0,0.0,0.0,0.0,0.0,0.0,0.0,0.0,0.0,0.0,0.0,0.0,0.0,0.0,0.0,0.0,0.0,0.0,0.0,0.0,0.0,0.0,0.0,0.0,0.0,0.0,0.0,0.0,0.0,0.0,0.0,0.0,0.0,0.0,0.0,0.0,0.0,0.0,0.0,0.0,0.0,0.0,0.0,0.0,0.0,0.0,0.0,0.0,0.0,0.0,0.0,0.0,0.0,0.0,0.0,0.0,0.0,0.0,0.0,0.0,0.0,0.0,0.0,0.0,0.0,0.0,0.0,0.0,0.0,0.0,0.0,0.0,0.0,0.0,0.0,0.0,0.0,0.0,0.0,0.0,0.0,0.0,0.0,0.0,0.0,0.0,0.5159,0.4544,0.4003,0.3493,0.0475,-0.1518,0.0,0.0,0.0,0.0,0.0,0.0,0.0,0.0,0.0,0.0,0.0,0.0,0.0,0.0,0.0,0.0,0.0,0.0,0.0,0.0,0.0,0.0,0.0,0.0,0.0,0.0,0.0,0.0,0.0,0.0,0.0,0.0,0.0,0.0,0.0,0.0,0.0,0.0,0.0,0.0,0.0,0.0,0.0,0.0,0.0,0.0,0.0,0.0,0.0,0.0,0.0,0.0,0.0,0.0,0.0,0.0,0.0,0.0,0.0,0.0,0.0,0.0,0.0,0.0,0.0,0.0,0.0,0.0,0.0,0.0,0.0,0.0,0.0,0.0,0.0,0.0,0.0,0.0,0.0,0.0,0.0,0.0,0.0,0.0,0.0,0.0,0.0,0.0,0.0,0.0,0.0,0.0,0.0,0.0,0.0,0.0,0.0,0.0,0.0,0.0,0.0,0.0,0.0,0.0,0.0,0.0,0.0,0.0,0.0,0.6475,0.5875,0.524,0.4656,0.0984,-0.1304,-0.2018,0.0,0.0,0.0,0.0,0.0,0.0,0.0,0.0,0.0,0.0,0.0,0.0,0.0,0.0,0.0,0.0,0.0,0.0,0.0,0.0,0.0,0.0,0.0,0.0,0.0,0.0,0.0,0.0,0.0,0.0,0.0,0.0,0.0,0.0,0.0,0.0,0.0,0.0,0.0,0.0,0.0,0.0,0.0,0.0,0.0,0.0,0.0,0.0,0.0,0.0,0.0,0.0,0.0,0.0,0.0,0.0,0.0,0.0,0.0,0.0,0.0,0.0,0.0,0.0,0.0,0.0,0.0,0.0,0.0,0.0,0.0,0.0,0.0,0.0,0.0,0.0,0.0,0.0,0.0,0.0,0.0,0.0,0.0,0.0,0.0,0.0,0.0,0.0,0.0,0.0,0.0,0.0,0.0,0.0,0.0,0.0,0.0,0.0,0.0,0.0,0.0,0.0,0.0,0.0,0.0,0.0,0.0,0.0,0.8839,0.8207,0.6671,0.4188,0.2095,-0.0712,0.0,0.0,0.0,0.0,0.0,0.0,0.0,0.0,0.0,0.0,0.0,0.0,0.0,0.0,0.0,0.0,0.0,0.0,0.0,0.0,0.0,0.0,0.0,0.0,0.0,0.0,0.0,0.0,0.0,0.0,0.0,0.0,0.0,0.0,0.0,0.0,0.0,0.0,0.0,0.0,0.0,0.0,0.0,0.0,0.0,0.0,0.0,0.0,0.0,0.0,0.0,0.0,0.0,0.0,0.0,0.0,0.0,0.0,0.0,0.0,0.0,0.0,0.0,0.0,0.0,0.0,0.0,0.0,0.0,0.0,0.0,0.0,0.0,0.0,0.0,0.0,0.0,0.0,0.0,0.0,0.0,0.0,0.0,0.0,0.0,0.0,0.0,0.0,0.0,0.0,0.0,0.0,0.0,0.0,0.0,0.0,0.0,0.0,0.0,0.0,0.0,0.0,0.0,0.0,0.0,0.0,0.0,0.0,0.0,0.9348,0.8847,0.7858,0.6383,0.3029,-0.0078,0.0,0.0,0.0,0.0,0.0,0.0,0.0,0.0,0.0,0.0,0.0,0.0,0.0,0.0,0.0,0.0,0.0,0.0,0.0,0.0,0.0,0.0,0.0,0.0,0.0,0.0,0.0,0.0,0.0,0.0,0.0,0.0,0.0,0.0,0.0,0.0,0.0,0.0,0.0,0.0,0.0,0.0,0.0,0.0,0.0,0.0,0.0,0.0,0.0,0.0,0.0,0.0,0.0,0.0,0.0,0.0,0.0,0.0,0.0,0.0,0.0,0.0,0.0,0.0,0.0,0.0,0.0,0.0,0.0,0.0,0.0,0.0,0.0,0.0,0.0,0.0,0.0,0.0,0.0,0.0,0.0,0.0,0.0,0.0,0.0,0.0,0.0,0.0,0.0,0.0,0.0,0.0,0.0,0.0,0.0,0.0,0.0,0.0,0.0,0.0,0.0,0.0,0.0,0.0,0.0,0.0,0.0,0.0,0.8466,0.9713,0.9195,0.8486,0.7621,0.4242,0.0803,0.0,0.0,0.0,0.0,0.0,0.0,0.0,0.0,0.0,0.0,0.0,0.0,0.0,0.0,0.0,0.0,0.0,0.0,0.0,0.0,0.0,0.0,0.0,0.0,0.0,0.0,0.0,0.0,0.0,0.0,0.0,0.0,0.0,0.0,0.0,0.0,0.0,0.0,0.0,0.0,0.0,0.0,0.0,0.0,0.0,0.0,0.0,0.0,0.0,0.0,0.0,0.0,0.0,0.0,0.0,0.0,0.0,0.0,0.0,0.0,0.0,0.0,0.0,0.0,0.0,0.0,0.0,0.0,0.0,0.0,0.0,0.0,0.0,0.0,0.0,0.0,0.0,0.0,0.0,0.0,0.0,0.0,0.0,0.0,0.0,0.0,0.0,0.0,0.0,0.0,0.0,0.0,0.0,0.0,0.0,0.0,0.0,0.0,0.0,0.0,0.0,0.0,0.0,0.0,0.0,0.0,0.0,0.0,0.8132,0.9947,0.9303,0.8646,0.7929,0.555,0.1919,0.0,0.0,0.0,0.0,0.0,0.0,0.0,0.0,0.0,0.0,0.0,0.0,0.0,0.0,0.0,0.0,0.0,0.0,0.0,0.0,0.0,0.0,0.0,0.0,0.0,0.0,0.0,0.0,0.0,0.0,0.0,0.0,0.0,0.0,0.0,0.0,0.0,0.0,0.0,0.0,0.0,0.0,0.0,0.0,0.0,0.0,0.0,0.0,0.0,0.0,0.0,0.0,0.0,0.0,0.0,0.0,0.0,0.0,0.0,0.0,0.0,0.0,0.0,0.0,0.0,0.0,0.0,0.0,0.0,0.0,0.0,0.0,0.0,0.0,0.0,0.0,0.0,0.0,0.0,0.0,0.0,0.0,0.0,0.0,0.0,0.0,0.0,0.0,0.0,0.0,0.0,0.0,0.0,0.0,0.0,0.0,0.0,0.0,0.0,0.0,0.0,0.0,0.0,0.0,0.0,0.0,0.0,0.0,0.8277,0.985,0.8939,0.8257,0.7862,0.6567,0.3414,0.0,0.0,0.0,0.0,0.0,0.0,0.0,0.0,0.0,0.0,0.0,0.0,0.0,0.0,0.0,0.0,0.0,0.0,0.0,0.0,0.0,0.0,0.0,0.0,0.0,0.0,0.0,0.0,0.0,0.0,0.0,0.0,0.0,0.0,0.0,0.0,0.0,0.0,0.0,0.0,0.0,0.0,0.0,0.0,0.0,0.0,0.0,0.0,0.0,0.0,0.0,0.0,0.0,0.0,0.0,0.0,0.0,0.0,0.0,0.0,0.0,0.0,0.0,0.0,0.0,0.0,0.0,0.0,0.0,0.0,0.0,0.0,0.0,0.0,0.0,0.0,0.0,0.0,0.0,0.0,0.0,0.0,0.0,0.0,0.0,0.0,0.0,0.0,0.0,0.0,0.0,0.0,0.0,0.0,0.0,0.0,0.0,0.0,0.0,0.0,0.0,0.0,0.0,0.0,0.0,0.0,0.0,0.0,0.8096,0.9456,0.9151,0.8657,0.8082,0.7461,0.4556,0.0,0.0,0.0,0.0,0.0,0.0,0.0,0.0,0.0,0.0,0.0,0.0,0.0,0.0,0.0,0.0,0.0,0.0,0.0,0.0,0.0,0.0,0.0,0.0,0.0,0.0,0.0,0.0,0.0,0.0,0.0,0.0,0.0,0.0,0.0,0.0,0.0,0.0,0.0,0.0,0.0,0.0,0.0,0.0,0.0,0.0,0.0,0.0,0.0,0.0,0.0,0.0,0.0,0.0,0.0,0.0,0.0,0.0,0.0,0.0,0.0,0.0,0.0,0.0,0.0,0.0,0.0,0.0,0.0,0.0,0.0,0.0,0.0,0.0,0.0,0.0,0.0,0.0,0.0,0.0,0.0,0.0,0.0,0.0,0.0,0.0,0.0,0.0,0.0,0.0,0.0,0.0,0.0,0.0,0.0,0.0,0.0,0.0,0.0,0.0,0.0,0.0,0.0,0.0,0.0,0.0,0.0,0.669,0.7765,0.8973,0.9342,0.9144,0.8406,0.806,0.5518,0.0458,0.0,0.0,0.0,0.0,0.0,0.0,0.0,0.0,0.0,0.0,0.0,0.0,0.0,0.0,0.0,0.0,0.0,0.0,0.0,0.0,0.0,0.0,0.0,0.0,0.0,0.0,0.0,0.0,0.0,0.0,0.0,0.0,0.0,0.0,0.0,0.0,0.0,0.0,0.003,0.0263,0.0,0.0,0.0,0.0,0.0,0.0,0.0,0.0,0.0,0.0,0.0,0.0,0.0,0.0,0.0,0.0,0.0,0.0,0.0,0.0,0.0,0.0,0.0,0.0,0.0,0.0,0.0,0.0,0.0,0.0,0.0,0.0,0.0,0.0,0.0,0.0,0.0,0.0,0.0,0.0,0.0,0.0,0.0,0.0,0.0,0.0,0.0,0.0,0.0,0.0,0.0,0.0,0.0,0.0,0.0,0.0,0.0,0.0,0.0,0.0,0.0,0.0,0.0,0.0,0.0,0.6252,0.6635,0.7416,0.8738,0.8975,0.8838,0.8321,0.806,0.6444,0.3266,0.0,0.0,0.0,0.0,0.0,0.0,0.0,0.0,0.0,0.0,0.0,0.0,0.0,0.0,0.0,0.0,0.0,0.0,0.0,0.0,0.0,0.0,0.0,0.0,0.0,0.0,0.0,0.0,0.0,0.0,0.0,0.0,0.0,0.0,0.0,0.0,0.0,0.0,0.0,0.1452,0.3241,0.0,0.0,0.0,0.0,0.0,0.0,0.0,0.0,0.0,0.0,0.0,0.0,0.0,0.0,0.0,0.0,0.0,0.0,0.0,0.0,0.0,0.0,0.0,0.0,0.0,0.0,0.0,0.0,0.0,0.0,0.0,0.0,0.0,0.0,0.0,0.0,0.0,0.0,0.0,0.0,0.0,0.0,0.0,0.0,0.0,0.0,0.0,0.0,0.0,0.0,0.0,0.0,0.0,0.0,0.0,0.0,0.0,0.0,0.0,0.0,0.0,0.0,0.0,0.0,0.5401,0.6992,0.8185,0.9029,0.9586,0.9593,0.9044,0.9237,0.7751,0.0,0.0,0.0,0.0,0.0,0.0,0.0,0.0,0.0,0.0,0.0,0.0,0.0,0.0,0.0,0.0,0.0,0.0,0.0,0.0,0.0,0.0,0.0,0.0,0.0,0.0,0.0,0.0,0.0,0.0,0.0,0.0,0.0,0.0,0.0,0.0,0.0,0.0,0.0,0.0,0.1774,0.3078,0.4494,0.0,0.0,0.0,0.0,0.0,0.0,0.0,0.0,0.0,0.0,0.0,0.0,0.0,0.0,0.0,0.0,0.0,0.0,0.0,0.0,0.0,0.0,0.0,0.0,0.0,0.0,0.0,0.0,0.0,0.0,0.0,0.0,0.0,0.0,0.0,0.0,0.0,0.0,0.0,0.0,0.0,0.0,0.0,0.0,0.0,0.0,0.0,0.0,0.0,0.0,0.0,0.0,0.0,0.0,0.0,0.0,0.0,0.0,0.0,0.0,0.0,0.0,0.0,0.4604,0.7496,0.9063,0.9267,1.012,1.0311,0.9761,1.0369,0.8961,0.0,0.0,0.0,0.0,0.0,0.0,0.0,0.0,0.0,0.0,0.0,0.0,0.0,0.0,0.0,0.0,0.0,0.0,0.0,0.0,0.0,0.0,0.0,0.0,0.0,0.0,0.0,0.0,0.0,0.0,0.0,0.0,0.0,0.0,0.0,0.0,0.0,0.0,0.0,0.0,0.0,0.2536,0.3371,0.48,0.0,0.0,0.0,0.0,0.0,0.0,0.0,0.0,0.0,0.0,0.0,0.0,0.0,0.0,0.0,0.0,0.0,0.0,0.0,0.0,0.0,0.0,0.0,0.0,0.0,0.0,0.0,0.0,0.0,0.0,0.0,0.0,0.0,0.0,0.0,0.0,0.0,0.0,0.0,0.0,0.0,0.0,0.0,0.0,0.0,0.0,0.0,0.0,0.0,0.0,0.0,0.0,0.0,0.0,0.0,0.0,0.0,0.0,0.0,0.0,0.0,0.0,0.4459,0.8058,0.9544,0.8772,0.9821,1.0207,0.9818,1.0509,0.9528,0.0,0.0,0.0,0.0,0.0,0.0,0.0,0.0,0.0,0.0,0.0,0.0,0.0,0.0,0.0,0.0,0.0,0.0,0.0,0.0,0.0,0.0,0.0,0.0,0.0,0.0,0.0,0.0,0.0,0.0,0.0,0.0,0.0,0.0,0.0,0.0,0.0,0.0,0.0,0.0,0.0,0.2643,0.2724,0.4434,0.5018,0.0,0.0,0.0,0.0,0.0,0.0,0.0,0.0,0.0,0.0,0.0,0.0,0.0,0.0,0.0,0.0,0.0,0.0,0.0,0.0,0.0,0.0,0.0,0.0,0.0,0.0,0.0,0.0,0.0,0.0,0.0,0.0,0.0,0.0,0.0,0.0,0.0,0.0,0.0,0.0,0.0,0.0,0.0,0.0,0.0,0.0,0.0,0.0,0.0,0.0,0.0,0.0,0.0,0.0,0.0,0.0,0.0,0.0,0.0,0.0,0.3472,0.479,0.7996,0.9686,0.9599,1.0238,1.0628,1.0576,1.0794,0.9741,0.0,0.0,0.0,0.0,0.0,0.0,0.0,0.0,0.0,0.0,0.0,0.0,0.0,0.0,0.0,0.0,0.0,0.0,0.0,0.0,0.0,0.0,0.0,0.0,0.0,0.0,0.0,0.0,0.0,0.0,0.0,0.0,0.0,0.0,0.0,0.0,0.0,0.0,0.0,0.0,0.0,0.0,0.2247,0.3796,0.0,0.0,0.0,0.0,0.0,0.0,0.0,0.0,0.0,0.0,0.0,0.0,0.0,0.0,0.0,0.0,0.0,0.0,0.0,0.0,0.0,0.0,0.0,0.0,0.0,0.0,0.0,0.0,0.0,0.0,0.0,0.0,0.0,0.0,0.0,0.0,0.0,0.0,0.0,0.0,0.0,0.0,0.0,0.0,0.0,0.0,0.0,0.0,0.0,0.0,0.0,0.0,0.0,0.0,0.0,0.0,0.0,0.0,0.0,0.0,0.0,0.0,0.5488,0.7748,0.923,0.9817,1.0212,1.0535,1.0813,1.1037,0.0,0.0,0.0,0.0,0.0,0.0,0.0,0.0,0.0,0.0,0.0,0.0,0.0,0.0,0.0,0.0,0.0,0.0,0.0,0.0,0.0,0.0,0.0,0.0,0.0,0.0,0.0,-0.2587,0.0,0.0,0.0,0.0,0.0,0.0,0.0,0.0,0.0,0.0,0.0,0.0,0.0,0.0,0.0092,0.1317,0.3082,0.4425,0.0,0.0,0.0,0.0,0.0,0.0,0.0,0.0,0.0,0.0,0.0,0.0,0.0,0.0,0.0,0.0,0.0,0.0,0.0,0.0,0.0,0.0,0.0,0.0,0.0,0.0,0.0,0.0,0.0,0.0,0.0,0.0,0.0,0.0,0.0,0.0,0.0,0.0,0.0,0.0,0.0,0.0,0.0,0.0,0.0,0.0,0.0,0.0,0.0,0.0,0.0,0.0,0.0,0.0,0.0,0.0,0.0,0.0,0.0,0.0,0.0,0.6648,0.7294,0.7985,0.8604,0.9091,0.9446,0.9821,1.1196,1.0842,0.0,0.0,0.0,0.0,0.0,0.0,0.0,0.0,0.0,0.0,0.0,0.0,0.0,0.0,0.0,0.0,0.0,0.0,0.0,0.0,0.0,0.0,0.0,0.0,0.0,0.0,0.0,0.0,0.0,0.0,0.0,0.0,0.0,0.0,0.0,0.0,0.0,0.0,0.0,0.0,0.0,-0.0887,-0.0463,0.2379,0.4203,0.0,0.0,0.0,0.0,0.0,0.0,0.0,0.0,0.0,0.0,0.0,0.0,0.0,0.0,0.0,0.0,0.0,0.0,0.0,0.0,0.0,0.0,0.0,0.0,0.0,0.0,0.0,0.0,0.0,0.0,0.0,0.0,0.0,0.0,0.0,0.0,0.0,0.0,0.0,0.0,0.0,0.0,0.0,0.0,0.0,0.0,0.0,0.0,0.0,0.0,0.0,0.0,0.0,0.0,0.0,0.0,0.0,0.0,0.0,0.0,0.5264,0.6713,0.739,0.8048,0.8654,0.8792,0.898,0.9338,1.03,0.9833,0.0,0.0,0.0,0.0,0.0,0.0,0.0,0.0,0.0,0.0,0.0,0.0,0.0,0.0,0.0,0.0,0.0,0.0,0.0,0.0,0.0,0.0,0.0,0.0,0.0,0.0,0.0,0.0,-0.006,0.0804,0.1588,0.0,0.0,0.0,0.0,0.0,0.0,0.0,0.0,0.0,0.0,-0.1005,-0.0542,0.0788,0.0,0.0,0.0536,0.0,0.0,0.0,0.0,0.0,0.0,0.0,0.0,0.0,0.0,0.0,0.0,0.0,0.0,0.0,0.0,0.0,0.0,0.0,0.0,0.0,0.0,0.0,0.0,0.0,0.0,0.0,0.0,0.0,0.0,0.0,0.0,0.0,0.0,0.0,0.0,0.0,0.0,0.0,0.0,0.0,0.0,0.0,0.0,0.0,0.0,0.0,0.0,0.0,0.0,0.0,0.0,0.0,0.0,0.0,0.0,0.0,0.0,0.5156,0.6841,0.733,0.7761,0.8219,0.8142,0.8346,0.8832,0.9141,0.8701,0.0,0.0,0.0,0.0,0.0,0.0,0.0,0.0,0.0,0.0,0.0,0.0,0.0,0.0,0.0,0.0,0.0,0.0,0.0,0.0,0.0,0.0,0.0,0.0,0.0,0.0,0.0,0.0,-0.0102,0.0787,0.1758,0.0,0.0,0.0,0.0,0.0,0.0,0.0,0.0,0.0,0.0,-0.0716,-0.0325,-0.012,0.0,0.0,0.0,0.0,0.0,0.0816,0.1154,0.0149,0.0,0.0,0.0,0.0,0.0,0.0,0.0,0.0,0.0,0.0,0.0,0.0,0.0,0.0,0.0,0.0,0.0,0.0,0.0,0.0,0.0,0.0,0.0,0.0,0.0,0.0,0.0,0.0,0.0,0.0,-0.0455,0.0,0.0,0.0,0.0,0.0,0.0,0.0,0.0,0.0,0.0,0.0,0.0,0.0,0.0,0.0,0.0,0.0,0.0,0.0,0.0,0.0,0.0,0.511,0.7132,0.6955,0.6885,0.6957,0.6948,0.736,0.8168,0.782,0.7791,0.822,0.0,0.0,0.0,0.0,0.0,0.0,0.0,0.0,0.0,0.0,0.0,0.0,0.0,0.0,0.0,0.0,0.0,0.0,0.0,0.0,0.0,0.0,0.0,0.0,0.0,0.0,-0.1621,-0.0306,0.0755,0.0,0.0,0.0,0.0,0.0,0.0,0.0,0.0,0.0,0.0,0.0,0.0,0.0,0.0,0.0,0.0,0.0,0.0,0.0,0.2636,0.3715,0.0,0.0,0.0,0.0,0.0,0.0,0.0,0.0,0.0,0.0,0.0,0.0,0.0,0.0,0.0,0.0,0.0,0.0,0.0,0.0,0.0,0.0,0.0,0.0,0.0,0.0,0.0,0.007,-0.1595,0.0,0.0,0.0,0.0,0.0,0.0,0.0,0.0,0.0,0.0,0.0,0.4872,0.3845,0.0,0.0,0.0,0.0,0.0,0.0,0.0,0.0,0.0,0.0,0.0,0.0,0.4622,0.7369,0.699,0.6842,0.7021,0.7177,0.739,0.7739,0.7727,0.7914,0.8303,0.0,0.0,0.0,0.0,0.0,0.0,0.0,0.0,0.0,0.0,0.0,0.0,0.0,0.0,0.0,0.0,0.0,0.0,0.0,0.0,0.0,0.0,0.0,0.0,0.0,-0.4235,0.0,0.0,0.0,0.0,0.0,0.0,0.0,0.0,0.0,0.0,0.0,0.0,0.0,0.0,0.0,0.0,0.0,0.0,0.0,0.0,0.0,0.0,0.0,0.0,0.0,0.0,0.0,0.0,0.0,0.0,0.0,0.0,0.6063,0.2749,0.1489,0.0737,0.0118,0.0,0.0,0.0,0.0,0.0,0.0,0.0,0.0,0.0,0.0,0.0,0.0,0.0,0.0,0.1264,0.0,0.0169,0.0,0.0,0.0,0.0,0.0,0.0,0.0,0.0,0.554,0.5767,0.5522,0.4918,0.3727,0.0,0.1751,0.0849,0.0,0.0,0.0,0.0,0.0,0.0,0.0,0.0,0.3964,0.6777,0.6771,0.6878,0.7241,0.7437,0.7621,0.7783,0.7676,0.7669,0.7805,0.4874,0.2696,0.0,0.0,0.0,0.0,0.0,0.0,0.0,0.0,0.0,0.0,0.0,0.0,0.0,0.0,0.0,0.0,0.0,0.0,0.0,0.0,0.0,0.0,0.0,-0.298,0.0,0.0,0.0,0.0,0.0,0.0,0.0,0.0,0.0,0.0,0.0,0.0394,0.1496,0.0681,0.0,0.0,0.0,0.0,0.0,0.0,0.0,0.0,0.0,0.2237,0.383,0.4692,0.7258,1.3443,1.3659,1.2349,1.0306,0.0,0.0,0.4886,0.296,0.1343,0.0227,0.5382,1.089,1.3716,1.2539,1.0797,0.0,0.0,0.0,0.0,0.0,0.0,0.0,0.0,0.2212,0.1239,0.0,0.1969,0.0,0.0,0.0,0.0,0.0,0.5694,0.0,0.0,0.6607,0.7083,0.6471,0.472,0.308,0.1632,0.0669,0.1007,0.2333,0.0996,0.0,0.0,0.0,0.0,0.0,0.0,0.3286,0.5483,0.6249,0.6893,0.7457,0.7675,0.7928,0.8289,0.7732,0.7165,0.6604,0.4842,0.2889,0.0815,-0.1267,0.0,0.0,0.0,0.0,0.0,0.0,0.0,0.0,0.0,0.0,0.0,0.0,0.0,0.0,0.0,0.0,0.0,0.0,0.0,0.0,-0.4859,0.0,0.0,0.0,0.0,0.0,0.0,0.0,0.0,0.0,0.0,0.0,0.0,0.1253,0.4179,0.0,0.0,0.0,0.0,0.5076,0.5106,0.2306,0.1307,0.4526,0.4903,0.4373,0.3029,0.0,0.0,1.4904,1.2974,1.0588,0.9577,0.82,0.6883,0.6547,0.4055,0.1842,0.0719,0.5723,1.0543,1.2346,1.2781,1.206,0.2053,0.0,0.0,0.0,0.0,0.3249,0.4102,0.5117,0.4366,0.3775,0.338,0.326,0.0,0.0,0.0,0.0,0.0,0.0,0.7968,0.6242,0.747,0.6924,0.4763,0.4127,0.2393,-0.0313,-0.1618,-0.0937,0.1583,0.4433,0.3355,-0.1234,0.0,0.0,0.0,0.0,0.4854,0.5475,0.557,0.6022,0.6835,0.7182,0.7831,0.8775,0.8655,0.758,0.5422,0.5654,0.5627,0.5056,0.2125,0.0,0.0,0.0,0.0,0.0,0.0,0.0,0.0,0.0,0.0,0.0,0.0,0.0,0.0,0.0,0.0,0.0,0.0,0.0,-0.6654,-0.2624,-0.0126,0.0,0.0,0.0,0.0,0.0,0.0,0.0,0.0,0.0,0.6773,0.4965,0.3347,0.0,0.0,0.3012,0.1944,0.3648,0.5423,0.6471,0.4925,0.0,0.624,0.5715,0.5455,0.6634,1.0316,1.3458,1.4597,1.4068,1.3033,1.155,0.9467,0.7343,0.5078,0.2794,0.1825,0.3496,0.8158,1.2414,1.4088,1.3597,1.2655,0.3527,0.275,0.3223,0.3961,0.4817,0.5013,0.5277,0.5498,0.4582,0.3887,0.3323,0.2151,0.208,0.2743,0.0764,0.0,0.0,0.0,0.8038,0.696,0.8016,0.6871,0.3944,0.3251,0.0948,-0.2646,-0.3842,-0.2873,0.0079,0.3198,0.428,0.3218,0.0,0.0,0.5407,0.5001,0.4803,0.4843,0.4365,0.4702,0.5923,0.6551,0.7709,0.9332,0.8364,0.6255,0.3056,0.4876,0.6012,0.6077,0.2875,0.0157,0.0,0.0,0.0,0.0,0.0,0.0,0.0,0.0,0.0,0.0,0.0,-0.7295,-0.1963,0.0,0.0,0.0,-0.4637,-0.3842,-0.4115,-0.0645,0.0,0.0,0.0,0.0,0.0,0.0,0.0,0.6842,0.6808,0.7914,1.0545,0.9113,0.7041,0.4988,0.5393,0.5424,0.4247,0.0,0.6583,0.7429,0.6621,0.6154,0.6754,0.5764,0.6307,1.0814,1.3084,1.4744,1.53,1.4861,1.3748,1.1955,0.9953,0.7564,0.4625,0.3365,0.3761,0.6606,1.1142,1.4833,1.6044,1.4921,1.382,0.4938,0.6518,0.5667,0.5767,0.65,0.6794,0.6326,0.5293,0.3571,0.235,0.1419,-0.0527,-0.1291,-0.11,-0.0521,0.0,0.262,0.5305,0.6887,0.7422,0.8099,0.6675,0.351,0.181,-0.1224,-0.5479,-0.6095,-0.4826,-0.1928,-0.0831,0.2467,0.7788,0.543,0.4789,0.5885,0.4457,0.368,0.3701,0.2713,0.3019,0.4713,0.5679,0.7338,0.9649,0.7136,0.392,0.0314,0.2827,0.4466,0.4475,0.1671,0.0,0.0,0.0,0.0,0.0,0.0,0.0,0.0,0.0,0.0,0.0,0.0,0.0,0.0,0.0,0.0,0.0,-0.2014,0.0,-0.3059,0.1202,0.0,0.0,0.0,0.4463,0.9357,0.8561,0.8206,0.9611,0.0,0.0,1.2406,1.2505,1.1481,0.8851,0.8031,0.7421,0.6724,0.7566,0.825,0.8101,0.7713,0.7228,0.7023,0.6448,0.8304,1.4095,1.4836,1.4988,1.6355,1.517,1.3292,1.149,0.9719,0.7799,0.4959,0.5589,0.7446,1.0169,1.4225,1.7444,1.7616,1.6421,1.5344,0.7975,0.8325,0.928,0.8703,0.7093,0.7005,0.6399,0.5349,0.374,0.1998,0.0123,-0.2069,-0.401,-0.5513,-0.1768,0.0188,0.0842,0.5098,0.7173,0.7413,0.6404,0.4564,0.1877,-0.1811,-0.5352,-0.8467,-0.8864,-0.7369,-0.4237,-0.1553,0.217,0.6571,0.6529,0.6058,0.5405,0.4145,0.2965,0.1988,0.1105,0.1267,0.251,0.3521,0.5013,0.6968,0.5602,0.3306,0.0136,0.073,0.1143,0.1178,0.042,0.0,0.0,-0.0366,0.0,0.0,0.0,0.0,0.0,0.0,0.0,0.0,0.0,-0.7722,-0.0542,0.0,-0.5112,0.0,-0.2012,0.0591,0.2066,0.3497,0.0,0.0,0.3855,0.5309,0.7782,0.9649,1.0015,0.8126,1.069,1.303,1.4074,1.3459,1.251,1.137,1.0086,0.892,0.8005,0.8729,0.9108,0.8415,0.871,0.9042,0.912,1.1783,1.3959,1.4706,1.5983,1.7177,1.7792,1.5803,1.3497,1.1671,0.9761,0.8073,0.6731,0.7608,1.0173,1.431,1.6839,1.8092,1.8574,1.7326,1.6161,0.9957,1.0937,1.1442,1.095,0.9785,0.8521,0.696,0.513,0.2995,0.0784,-0.1528,-0.4093,-0.6074,-0.7214,-0.3865,-0.1596,-0.0079,0.4102,0.5915,0.5605,0.4396,0.2029,-0.1437,-0.4761,-0.7977,-1.0898,-1.0486,-0.8491,-0.5062,-0.175,0.1842,0.5645,0.6263,0.5365,0.3036,0.2461,0.1336,-0.0458,-0.1475,-0.1372,-0.0111,0.0864,0.2083,0.3576,0.3577,0.2417,0.0,0.0,0.0,0.0,0.0,0.0,0.0,0.0,0.0,0.0,0.0,0.0,0.0,0.0,0.0,0.0,0.0,0.0,0.0,0.0,-0.2923,-0.3112,-0.0115,0.2497,0.4125,0.4698,0.4783,0.4294,0.4924,0.6228,0.8365,0.9992,1.0607,0.9839,1.1685,1.3214,1.3572,1.3003,1.2493,1.2251,1.178,1.108,1.0231,1.0506,1.0662,1.0039,0.9773,1.0206,1.1406,1.4945,1.7177,1.6285,1.7009,1.7746,1.7197,1.5032,1.2647,1.0685,0.8902,0.7723,0.7578,0.8916,1.1321,1.4389,1.6037,1.6733,1.7623,1.7347,1.6907,1.1485,1.359,1.3001,1.29,1.2958,1.051,0.7928,0.5132,0.2096,-0.0795,-0.3522,-0.6374,-0.7661,-0.7612,-0.5879,-0.3619,-0.0867,0.2717,0.3961,0.3173,0.2179,-0.0631,-0.4949,-0.7329,-0.9919,-1.2515,-1.1439,-0.8937,-0.5233,-0.1856,0.1423,0.4406,0.509,0.3568,0.0086,0.0133,-0.0941,-0.3353,-0.4404,-0.4274,-0.2908,-0.197,-0.0909,0.0259,0.119,0.1154,0.0,0.0,0.0,0.0,0.0,0.0,0.0,0.0326,0.0536,0.0,0.0206,0.0,0.0,0.0,0.0,0.0,0.0,0.0,0.0,0.0,-0.0028,-0.009,0.2479,0.4294,0.4601,0.5331,0.5481,0.4796,0.5583,0.729,0.9972,1.0109,1.0619,1.2459,1.2748,1.2576,1.1925,1.1825,1.1925,1.215,1.2712,1.2824,1.2391,1.2294,1.2322,1.2257,1.0959,1.1105,1.3647,1.6363,1.7897,1.7422,1.7324,1.707,1.5521,1.3251,1.0947,0.897,0.7421,0.6701,0.7234,0.9158,1.1255,1.2909,1.3696,1.4571,1.5818,1.6636,1.7289,1.337,1.4683,1.5359,1.4742,1.3219,1.1708,0.961,0.6949,0.2493,-0.1972,-0.6287,-0.8418,-0.8759,-0.7642,-0.5632,-0.3846,-0.2144,0.1586,0.2889,0.2086,-0.0298,-0.2618,-0.5053,-0.9659,-1.2381,-1.3196,-1.2201,-0.9818,-0.6263,-0.2437,0.0586,0.2838,0.3337,0.1927,-0.1285,0.0,0.0,0.0,-0.6658,-0.631,-0.548,-0.4197,-0.2805,-0.1347,-0.15,0.0,0.0,0.0,0.0,0.0,0.0,0.0,0.0,0.0,0.0,0.0,0.0,0.0,0.0,0.0,0.0,0.0,-0.3155,-0.1355,0.0,0.0,0.0898,0.2967,0.3912,0.4639,0.5392,0.5863,0.6112,0.6227,0.7081,0.8786,1.145,1.0722,1.0624,1.2374,1.2934,1.23,1.0285,1.0776,1.1589,1.1875,1.2297,1.2684,1.3049,1.314,1.3213,1.2984,1.2368,1.2539,1.4208,1.6047,1.6549,1.5878,1.5829,1.5286,1.3441,1.0808,0.8488,0.6887,0.5557,0.4833,0.523,0.7362,0.9368,1.0321,1.174,1.3113,1.4219,1.5184,1.6068,1.3891,0.0,1.5575,1.502,0.0,1.1624,0.9651,0.7548,0.3324,-0.1266,-0.5936,-0.7675,-0.7913,-0.6943,-0.5729,-0.4346,-0.2772,-0.0194,0.0708,0.0149,-0.2182,-0.4862,-0.7785,-1.0705,-1.2695,-1.374,-1.1816,-0.9508,-0.6821,-0.2705,-0.0248,0.0629,0.1354,0.0103,-0.3155,-0.5068,-0.6756,-0.8218,-0.8432,-0.7984,-0.6809,-0.5839,-0.4733,-0.3471,-0.2563,0.0,0.0,0.0,0.0,0.0,0.0,0.0,0.0,0.291,0.0,0.431,0.3052,0.2962,0.4416,0.1779,-0.0742,-0.2381,-0.0976,0.0,0.0,0.0,0.0863,0.2858,0.3831,0.4856,0.6003,0.6381,0.6946,0.7922,0.8496,0.9611,1.1278,1.1085,1.0752,1.1162,1.2053,1.1487,0.8461,0.9557,1.0408,1.0415,1.1197,1.1892,1.2293,1.303,1.3576,1.3965,1.3933,1.4053,1.461,1.3919,1.3474,1.2597,1.287,1.2354,1.0443,0.8282,0.6382,0.503,0.3842,0.3127,0.3276,0.4819,0.6553,0.8046,1.0893,1.3459,1.4443,1.4809,1.5403,1.4002,1.5142,1.5304,1.4803,1.3721,1.1277,0.8935,0.6689,0.0,0.0,0.0,-0.6065,-0.6383,-0.5847,-0.5545,-0.4528,-0.2922,-0.1665,-0.1399,-0.2015,-0.3686,-0.6591,-1.0388,-1.1154,-1.2265,-1.3607,-1.1223,-0.9094,-0.7242,-0.3273,-0.1466,-0.1609,-0.0892,-0.1974,-0.4921,-0.7783,-0.9002,-0.8644,-0.9332,-0.91,-0.7867,-0.6943,-0.6254,-0.574,-0.3465,-0.2816,-0.3933,-0.1429,0.0,0.0,0.0149,0.1108,0.2934,0.3521,0.3898,0.4136,0.439,0.4564,0.4657,0.1795,0.0,0.0,0.0,0.0,0.0,0.0,0.0556,0.1908,0.3397,0.4874,0.6302,0.6849,0.7736,0.9361,0.9497,0.9941,1.1056,1.0894,1.0463,1.0225,1.0822,1.0343,0.7779,0.8123,0.8969,0.903,1.0,1.0945,1.1327,1.2501,1.3644,1.4476,1.4581,1.4768,1.4328,1.157,0.9344,0.8603,0.9434,0.9399,0.7429,0.5994,0.4792,0.3509,0.2376,0.1803,0.1569,0.2481,0.3931,0.5902,1.0623,1.4705,1.5492,1.5317,1.5379,1.4206,1.5231,1.5819,1.4794,1.275,1.1484,0.7978,0.3064,0.0873,-0.1679,-0.4385,-0.5075,-0.5064,-0.4544,-0.4168,-0.3436,-0.2472,-0.1534,-0.216,-0.4071,-0.4827,-0.6663,-0.9455,-1.125,-1.2085,-1.2088,-1.1226,-0.9715,-0.7476,-0.4952,-0.37,-0.3718,-0.3612,-0.4431,-0.6172,-0.8009,-0.8189,-0.678,-0.8101,-0.9084,-0.9504,-0.729,-0.6694,-0.7688,-0.5506,-0.3064,-0.0781,0.0,0.0,0.0,0.0775,0.22,0.4328,0.4221,0.4175,0.426,0.42,0.4256,0.4375,0.167,0.0,0.0,0.0,0.0,0.0,0.0,0.0601,0.1953,0.3391,0.4604,0.5797,0.7002,0.8104,0.9072,0.9278,0.9953,1.1365,0.9877,0.9326,1.0767,0.983,0.9089,0.8381,0.7002,0.7114,0.8945,0.9486,0.9668,1.0995,1.2231,1.3285,1.4143,1.4234,1.3854,1.2612,0.8701,0.5634,0.431,0.6239,0.7111,0.5481,0.4691,0.3794,0.2509,0.172,0.1109,0.0736,0.1164,0.3282,0.6168,1.1436,1.5274,1.7033,1.6779,1.6197,1.527,1.6281,1.6341,1.5158,1.2998,0.899,0.4848,0.0916,-0.0588,-0.1858,-0.3002,-0.3628,-0.3556,-0.3033,-0.3289,-0.3008,-0.2206,-0.1861,-0.2993,-0.5241,-0.5339,-0.6805,-0.9313,-1.0321,-1.0859,-1.1101,-1.0762,-0.9922,-0.8562,-0.649,-0.5776,-0.6301,-0.6056,-0.6225,-0.6856,-0.7582,-0.7601,-0.6825,-0.751,-0.7914,-0.7983,-0.6844,-0.6343,-0.6574,-0.544,-0.3342,0.0,0.0,0.0,0.0,0.1142,0.237,0.361,0.3898,0.4002,0.3936,0.3854,0.3913,0.4107,0.1546,0.0,0.0,0.0,0.0,0.0,0.0,0.0,0.2067,0.4134,0.554,0.5765,0.7072,0.814,0.8523,0.8822,0.9438,1.0159,0.8986,0.8641,1.017,0.8743,0.743,0.7547,0.6995,0.7081,0.8851,0.8991,0.9395,0.9988,1.0106,1.0998,1.3003,1.3254,1.2091,1.005,0.5119,0.2173,0.2288,0.3918,0.4598,0.3961,0.3638,0.3088,0.1958,0.1328,0.0869,0.0317,0.0751,0.3948,1.0352,1.3092,1.5942,1.7339,1.7422,1.6874,1.6067,1.6764,1.6302,1.4685,1.1982,0.6133,0.2112,-0.0365,-0.1549,-0.1995,-0.1993,-0.2412,-0.2271,-0.1782,-0.2481,-0.2404,-0.1888,-0.2304,-0.3626,-0.5447,-0.5327,-0.6422,-0.8404,-0.8428,-0.8904,-0.9816,-0.9672,-0.9702,-0.9622,-0.8113,-0.7562,-0.804,-0.7413,-0.6992,-0.6833,-0.682,-0.6719,-0.6507,-0.6503,-0.6523,-0.6593,-0.5936,-0.4996,-0.4023,-0.3927,-0.2692,0.0,0.0,0.0,0.0,0.1039,0.1934,0.2662,0.3402,0.3783,0.3732,0.3876,0.3662,0.2955,0.1186,0.0,0.0,0.0,0.0,0.0,0.0664,0.1309,0.2399,0.484,0.636,0.6062,0.7182,0.8029,0.7829,0.8241,0.8767,0.9069,0.8184,0.807,0.9463,0.8134,0.6798,0.6755,0.7382,0.8079,0.8437,0.8879,0.9125,0.9064,0.8416,0.8904,0.9952,1.0881,0.945,0.6231,0.1722,-0.0386,0.1004,0.2292,0.2929,0.2983,0.3161,0.2758,0.1761,0.129,0.095,0.0455,0.0873,0.4882,1.193,1.5071,1.6477,1.7801,1.7619,1.7228,1.5994,1.5341,1.5181,1.2378,0.795,0.4083,0.1339,-0.0582,-0.2111,-0.2473,-0.1997,-0.1858,-0.1493,-0.1083,-0.1421,-0.1292,-0.0937,-0.2625,-0.3767,-0.4306,-0.4571,-0.5006,-0.5563,-0.5237,-0.5984,-0.7705,-0.7879,-0.8958,-1.0544,-0.9859,-0.894,-0.7862,-0.6746,-0.6047,-0.5779,-0.5725,-0.5302,-0.4398,-0.4403,-0.5288,-0.6949,-0.4377,-0.2077,-0.0508,0.0,-0.0346,0.0,0.0,0.0,0.0,0.0107,0.0861,0.2192,0.3095,0.3735,0.411,0.4665,0.3739,0.0,0.0154,0.0,0.0,0.0,0.0,0.0,0.2555,0.3538,0.3075,0.4889,0.6278,0.5954,0.7394,0.7918,0.6912,0.7461,0.816,0.8317,0.7735,0.7712,0.9218,0.8403,0.7866,0.7258,0.78,0.827,0.857,0.8603,0.8574,0.8754,0.7685,0.6013,0.5266,0.5815,0.5192,0.1669,-0.1278,-0.1905,-0.0306,0.1055,0.1896,0.246,0.2934,0.288,0.1824,0.1395,0.118,0.1123,0.172,0.4413,1.0544,1.4612,1.735,1.8312,1.7653,1.6842,1.6723,1.5655,1.3984,1.0816,0.6645,0.3435,0.0723,-0.1455,-0.205,-0.205,-0.1574,-0.0861,-0.0548,-0.0614,-0.0741,-0.06,-0.0355,-0.1378,-0.2367,-0.3138,-0.323,-0.3522,-0.4041,-0.4677,-0.5411,-0.634,-0.7677,-0.9044,-1.0038,-0.9645,-0.8527,-0.7079,-0.5898,-0.5092,-0.4586,-0.4462,-0.4194,-0.3774,-0.3832,-0.4266,-0.4748,-0.3275,-0.1561,0.0,0.0,0.0,0.0,-0.1215,-0.1886,-0.1691,-0.0992,0.0013,0.1293,0.2287,0.3134,0.3717,0.3945,0.2885,0.0,0.0,0.0,0.0,0.0,0.0,0.0,0.2829,0.4237,0.3865,0.5636,0.6688,0.5807,0.6896,0.7189,0.6021,0.6258,0.6857,0.7139,0.6837,0.6939,0.7683,0.7125,0.72,0.8379,0.8773,0.8964,0.9162,0.8957,0.8077,0.6378,0.4454,0.2732,0.1231,0.149,0.0782,-0.1771,-0.3366,-0.3095,-0.1401,0.0128,0.1127,0.2148,0.2641,0.2551,0.171,0.1572,0.1349,0.0895,0.2569,0.5023,0.9631,1.2702,1.5488,1.6666,1.6102,1.5389,1.6667,1.4766,1.1544,0.8536,0.5819,0.2935,0.0512,-0.1326,-0.1577,-0.14,-0.0897,0.0017,0.0393,0.0271,-0.0085,-0.007,0.0251,0.0,-0.0785,-0.1834,-0.1811,-0.194,-0.2429,-0.3154,-0.4133,-0.5263,-0.7028,-0.863,-0.9602,-0.8805,-0.7616,-0.6168,-0.4922,-0.4105,-0.3632,-0.3512,-0.3431,-0.3429,-0.3504,-0.3487,-0.3415,-0.2822,-0.1687,0.0,0.0,-0.0317,-0.1039,-0.2596,-0.3511,-0.3573,-0.2494,-0.1312,-0.0107,0.12,0.2542,0.38,0.3761,0.3012,0.1433,0.053,0.0,0.0,0.0,0.0,0.0,0.2063,0.3527,0.43,0.567,0.5987,0.5312,0.6184,0.6207,0.4752,0.5178,0.5821,0.6075,0.6119,0.6266,0.6375,0.424,0.4112,0.6671,0.6922,0.6496,0.6662,0.6306,0.5629,0.2563,0.0637,-0.1039,-0.2778,-0.2875,-0.3018,-0.4156,-0.4807,-0.4172,-0.2686,-0.1199,0.0,0.1319,0.1781,0.1969,0.1165,0.1518,0.1713,0.1388,0.2951,0.4505,0.7431,1.0222,1.2613,1.3744,1.3563,1.2444,1.5457,1.1787,0.7209,0.53,0.4826,0.2357,0.0897,0.0132,-0.062,-0.0592,0.0086,0.0604,0.1239,0.1981,0.0799,0.0449,0.1075,0.1218,0.0628,-0.0405,-0.0368,-0.0173,0.0074,0.0263,-0.1414,-0.4516,-0.5676,-0.7273,-0.9313,-0.7882,-0.6458,-0.5272,-0.3962,-0.3207,-0.315,-0.3083,-0.3091,-0.3186,-0.3104,-0.3161,-0.3281,-0.318,-0.2175,0.0,0.0,-0.1093,-0.3231,-0.3723,-0.4314,-0.5354,-0.4511,-0.3379,-0.193,-0.0111,0.219,0.4621,0.4721,0.4603,0.4411,0.2015,0.0,0.0,0.0,0.0,0.0,0.0,0.1548,0.3851,0.4281,0.4416,0.4309,0.5463,0.5523,0.3747,0.4471,0.5147,0.5428,0.546,0.5815,0.4869,0.0875,-0.1156,0.1059,0.122,0.0372,0.0069,-0.0679,-0.1659,-0.1589,-0.2737,-0.4683,-0.6271,-0.6535,-0.5924,-0.5441,-0.5739,-0.5359,-0.4193,-0.2888,-0.1686,-0.0612,0.028,0.0461,0.0798,0.1248,0.1574,0.1798,0.252,0.3685,0.5586,0.7395,0.9298,1.0416,1.0742,0.9715,1.2127,0.7543,0.5182,0.3972,0.344,0.1905,0.1146,0.0961,0.068,0.095,0.1765,0.2614,0.3205,0.3515,0.3147,0.2404,0.1621,0.1861,0.1957,0.1775,0.1389,0.0992,0.0618,-0.0226,-0.1997,-0.4432,-0.6174,-0.7589,-0.8596,-0.7268,-0.5954,-0.5008,-0.396,-0.3261,-0.2965,-0.2889,-0.2871,-0.2814,-0.236,-0.2344,-0.2886,-0.3094,-0.3789,-0.5152,-0.1846,-0.1353,-0.4166,-0.5979,-0.7145,-0.7395,-0.6295,-0.5018,-0.3396,0.0,0.2518,0.375,0.5049,0.6487,0.7618,0.512,0.2204,0.0,0.0,0.0,0.0,0.0,0.0483,0.1568,0.3333,0.4,0.4002,0.4614,0.4341,0.2808,0.2561,0.255,0.2424,0.2957,0.3749,0.3241,-0.1285,-0.5592,-0.7283,-0.954,-1.0722,-0.9963,-1.0128,-0.9672,-0.9179,-0.9364,-0.9141,-0.8362,-0.7637,-0.6793,-0.6124,-0.6502,-0.652,-0.5634,-0.4496,-0.2782,-0.1452,-0.0694,-0.0367,0.0757,0.1228,0.1795,0.2128,0.2353,0.3366,0.2943,0.4729,0.6046,0.6771,0.7146,0.6295,0.9084,0.5347,0.4053,0.3432,0.298,0.2147,0.1746,0.1824,0.2282,0.2708,0.3204,0.4164,0.4698,0.4788,0.495,0.4381,0.3185,0.3469,0.3674,0.3662,0.2744,0.1816,0.0708,-0.1247,-0.3237,-0.5123,-0.6988,-0.8125,-0.8256,-0.6817,-0.572,-0.4985,-0.4209,-0.3547,-0.3127,-0.3041,-0.2988,-0.2654,-0.2005,-0.1894,-0.2403,-0.3122,-0.4895,-0.7222,-0.5637,-0.4815,-0.6057,-0.8587,-0.984,-0.9361,-0.8193,-0.6353,-0.3699,0.0581,0.3223,0.3683,0.5358,0.7525,0.9339,0.7357,0.4514,0.1815,0.0,0.0,0.0,0.0,0.0,0.1038,0.1751,0.2909,0.3636,0.398,0.3307,0.1498,0.0301,-0.0508,-0.1026,-0.1176,-0.1099,-0.1637,-0.5203,-0.9227,-1.2007,-1.5748,-1.643,-1.5436,-1.504,-1.467,-1.3821,-1.292,-1.1826,-0.9609,-0.8761,-0.8098,-0.7507,-0.747,-0.7115,-0.6295,-0.5539,-0.3853,-0.236,-0.1636,-0.0589,0.0591,0.1521,0.2093,0.2488,0.2595,0.2085,0.1215,0.1808,0.3283,0.3509,0.3511,0.2775,0.6486,0.5004,0.3782,0.3451,0.3524,0.2869,0.2651,0.2919,0.4041,0.4271,0.4174,0.506,0.5799,0.5925,0.6217,0.6043,0.6187,0.6254,0.5672,0.4766,0.3512,0.2058,0.0477,-0.2557,-0.4849,-0.6435,-0.7652,-0.8229,-0.8059,-0.6809,-0.5814,-0.5197,-0.4726,-0.4329,-0.3634,-0.3857,-0.3529,-0.3089,-0.2533,-0.2092,-0.1982,-0.3604,-0.5512,-0.7727,-1.0896,-1.1636,-0.9309,-1.1542,-1.252,-1.156,-1.0336,-0.7328,-0.2808,0.1484,0.3976,0.4689,0.5863,0.7718,0.9527,0.8356,0.6592,0.4452,0.1811,0.0,0.0,0.0,0.0571,0.1579,0.1332,0.1189,0.3043,0.3372,0.2532,0.0269,-0.1852,-0.3471,-0.4107,-0.6132,-0.8247,-0.8599,-1.0327,-1.1565,-1.2787,-1.6078,-1.7786,-1.5747,-1.4994,-1.4828,-1.3974,-1.3057,-1.1718,-1.0539,-0.9624,-0.8861,-0.8606,-0.8305,-0.7532,-0.676,-0.6071,-0.4895,-0.323,-0.2198,-0.0716,0.0538,0.2291,0.2949,0.3085,0.3088,0.2075,0.1338,0.1361,0.0941,0.0828,0.0827,0.0,0.4783,0.3988,0.3675,0.3719,0.3841,0.3019,0.299,0.3716,0.4449,0.4949,0.5538,0.669,0.7786,0.8549,0.8759,0.9113,0.9679,0.9463,0.7868,0.494,0.3109,0.0973,-0.1699,-0.4809,-0.7373,-0.8945,-0.9132,-0.901,-0.858,-0.7564,-0.6452,-0.5531,-0.577,-0.5966,-0.6055,-0.6159,-0.5952,-0.526,-0.441,-0.4191,-0.4812,-0.6513,-0.8527,-1.0749,-1.31,-1.4002,-1.3874,-1.6063,-1.6336,-1.4552,-1.3256,-0.9343,-0.2692,0.2327,0.4859,0.575,0.8516,0.9952,1.0025,0.9593,0.8378,0.624,0.2564,0.0,0.0,0.0,0.0,0.0,0.1352,0.1922,0.1288,0.115,0.0,0.0052,-0.3166,-0.5401,-0.5657,-0.6037,-0.7523,-1.0184,-1.1959,-1.3184,-1.4398,-1.7255,-1.7819,-1.7027,-1.6606,-1.6067,-1.4897,-1.3458,-1.237,-1.0854,-1.0109,-0.9113,-0.8449,-0.7772,-0.7002,-0.6383,-0.5866,-0.5046,-0.3586,-0.2223,-0.079,0.092,0.2643,0.3585,0.3739,0.3265,0.229,0.1321,0.1085,0.0185,-0.1012,-0.1642,-0.2025,0.3899,0.364,0.3589,0.3691,0.3875,0.3475,0.3983,0.4984,0.5882,0.6898,0.8038,0.9097,1.0179,1.0956,1.0929,1.0839,1.0812,0.9646,0.6709,0.3211,0.2295,-0.0276,-0.3992,-0.7344,-0.9552,-1.0663,-1.0338,-0.985,-0.9566,-0.8602,-0.7546,-0.6739,-0.7588,-0.8554,-0.9042,-0.9172,-0.8909,-0.8302,-0.7781,-0.767,-0.8331,-0.9649,-1.1336,-1.312,-1.44,-1.5812,-1.7373,-1.8964,-1.8887,-1.699,-1.5316,-1.0186,-0.1866,0.4661,0.8028,0.7744,1.0066,1.204,1.1246,1.0551,0.9278,0.686,0.2733,0.0,0.0,0.0,0.0,0.0,0.2048,0.275,0.1355,0.0324,0.0,0.0,-0.3904,-0.6815,-0.7793,-0.7785,-0.8858,-1.1602,-1.3173,-1.4387,-1.5661,-1.644,-1.7173,-1.7267,-1.6909,-1.6101,-1.4622,-1.3037,-1.1484,-1.0134,-0.9136,-0.8356,-0.7888,-0.7164,-0.6431,-0.5888,-0.5426,-0.4409,-0.3119,-0.1837,-0.0464,0.1685,0.3467,0.4091,0.4313,0.3619,0.2781,0.1894,0.0876,-0.0421,-0.1515,-0.258,-0.3128,0.3732,0.3945,0.365,0.375,0.4005,0.4624,0.5484,0.6571,0.7874,0.92,1.0578,1.0831,1.1861,1.2538,1.173,1.0931,0.9785,0.7074,0.3377,0.0281,-0.0646,-0.2582,-0.7156,-0.985,-1.1171,-1.1499,-1.1232,-1.0832,-1.0573,-0.983,-0.8954,-0.8424,-1.0043,-1.1893,-1.2974,-1.2781,-1.234,-1.2126,-1.1889,-1.1708,-1.1783,-1.2539,-1.3589,-1.4662,-1.5604,-1.7217,-1.9513,-2.0227,-1.9865,-1.8606,-1.568,-0.9817,-0.0857,0.8566,1.1676,0.9561,1.2072,1.2922,1.2546,1.1758,0.9673,0.6794,0.3242,0.0,0.0,0.0,0.0,0.0,0.2255,0.3585,0.2491,0.0477,0.0,0.0,-0.4234,-0.8088,-1.1384,-1.1221,-1.1728,-1.3509,-1.4538,-1.5059,-1.5971,-1.5868,-1.5376,-1.5294,-1.4828,-1.3828,-1.2496,-1.0977,-0.9656,-0.8733,-0.8059,-0.757,-0.7094,-0.5997,-0.5257,-0.4965,-0.4306,-0.3003,-0.214,-0.0988,0.0485,0.2572,0.3834,0.4407,0.4577,0.3862,0.3185,0.2347,0.1031,-0.064,-0.182,-0.2683,-0.3755,0.3923,0.4174,0.4513,0.5295,0.6209,0.6309,0.6905,0.7888,0.7867,0.8325,0.8804,0.889,1.0065,1.1151,1.0698,0.9879,0.8726,0.5883,0.1472,-0.3167,-0.537,-0.7804,-1.0736,-1.1731,-1.2024,-1.2033,-1.2313,-1.2334,-1.1866,-1.1394,-1.0603,-0.957,-1.2688,-1.5965,-1.8726,-1.7243,-1.636,-1.6114,-1.5072,-1.4643,-1.4747,-1.5072,-1.5735,-1.6619,-1.6979,-1.8487,-2.0891,-2.1561,-2.047,-1.7727,-1.326,-0.7787,-0.0629,0.7738,1.2659,1.3616,1.4535,1.4589,1.3048,1.3364,1.1559,0.6997,0.4162,0.2553,0.0,0.0,0.0,0.0,0.0939,0.2151,0.2723,-0.0537,-0.2105,-0.1017,-0.4676,-0.8942,-1.1669,-1.2148,-1.2727,-1.512,-1.7202,-1.7335,-1.5661,-1.3465,-1.2226,-1.2524,-1.2162,-1.1261,-0.9897,-0.9164,-0.8015,-0.7736,-0.725,-0.6756,-0.6101,-0.4954,-0.4194,-0.3894,-0.2824,-0.1115,-0.0327,0.0485,0.2075,0.3916,0.407,0.4567,0.4512,0.4198,0.3489,0.2565,0.1224,-0.031,-0.145,-0.243,-0.3593,0.5545,0.5633,0.6423,0.7061,0.7501,0.749,0.7723,0.8043,0.7934,0.8021,0.8353,0.8646,0.9506,1.0737,1.1047,1.0688,0.9444,0.4974,0.0498,-0.3759,-0.8372,-1.127,-1.2572,-1.2537,-1.2291,-1.2262,-1.3198,-1.3655,-1.3611,-1.3193,-1.2703,-1.3259,-1.5962,-1.9712,-2.2859,-2.11,-1.9583,-1.9341,-1.8507,-1.8039,-1.7723,-1.8178,-1.86,-1.9056,-1.8992,-1.9983,-2.234,-2.2737,-2.1116,-1.7456,-1.3233,-0.7858,-0.0592,0.6672,1.225,1.5391,1.6101,1.4963,1.3088,1.3939,1.2574,0.7614,0.4277,0.2317,0.0,0.0,0.0,0.0,0.0,0.0,0.2781,-0.1164,-0.3532,-0.318,-0.6343,-1.0557,-1.4175,-1.3214,-1.4182,-1.6781,-1.8763,-1.8541,-1.5123,-1.1084,-0.9616,-0.9592,-0.9469,-0.8414,-0.7308,-0.6887,-0.6567,-0.6231,-0.6154,-0.58,-0.4878,-0.3666,-0.2654,-0.2338,-0.0221,0.1315,0.1309,0.2001,0.292,0.4097,0.4322,0.4509,0.4617,0.4313,0.3232,0.2236,0.1157,0.0,-0.1245,-0.2095,-0.3277,0.8059,0.781,0.8874,0.8867,0.8304,0.8392,0.8146,0.7667,0.7551,0.7848,0.8236,0.887,0.9213,1.0874,1.111,1.1664,1.0379,0.444,-0.0184,-0.478,-0.955,-1.2935,-1.2815,-1.2721,-1.256,-1.2695,-1.3842,-1.5103,-1.5767,-1.5502,-1.5923,-1.7214,-2.0001,-2.2691,-2.4308,-2.3291,-2.2268,-2.1567,-2.1118,-2.0618,-2.0327,-2.0788,-2.1195,-2.1133,-2.0923,-2.1675,-2.3253,-2.3401,-2.1553,-1.7767,-1.4827,-0.9013,-0.1245,0.51,1.081,1.4944,1.5787,1.4894,1.2476,1.3004,1.2361,0.7611,0.1272,-0.0708,0.1925,0.0,0.0,0.0,0.0,0.0,0.1312,-0.2099,-0.425,-0.5082,-0.8665,-1.3183,-1.6053,-1.4957,-1.4836,-1.9085,-1.9877,-1.767,-1.3348,-0.9197,-0.6208,-0.6985,-0.6706,-0.5856,-0.5176,-0.4877,-0.4637,-0.4387,-0.451,-0.4798,-0.3655,-0.2397,-0.1339,-0.04,0.2437,0.398,0.3066,0.3375,0.3811,0.429,0.4575,0.4837,0.513,0.4429,0.3113,0.1839,0.0707,-0.034,-0.1361,-0.1888,-0.2811,1.077,0.9883,1.0463,1.0509,1.0161,0.9534,0.8637,0.7523,0.6103,0.5413,0.5233,0.4785,0.6372,0.9088,0.9163,0.8676,0.8249,0.4034,-0.0937,-0.7623,-1.0273,-1.2552,-1.3093,-1.3282,-1.3302,-1.3831,-1.5334,-1.6887,-1.8061,-1.9246,-2.0433,-2.1218,-2.2862,-2.4918,-2.5087,-2.3842,-2.2869,-2.2605,-2.2051,-2.1701,-2.1661,-2.2148,-2.252,-2.2508,-2.2439,-2.2824,-2.3429,-2.3557,-2.2132,-1.8964,-1.4712,-0.9752,-0.4011,0.2885,0.8805,1.2824,1.559,1.5006,1.188,1.081,0.9725,0.6561,0.1293,-0.1935,0.0094,-0.074,-0.1176,0.0,0.0,0.0,-0.2304,-0.3918,-0.5253,-0.6359,-0.9672,-1.4312,-1.7761,-1.7538,-1.7662,-1.9141,-1.9217,-1.6906,-1.0813,-0.6056,-0.4159,-0.4375,-0.3979,-0.3322,-0.3055,-0.2929,-0.2911,-0.2809,-0.3575,-0.3804,-0.2782,-0.1312,0.0317,0.1411,0.405,0.565,0.4758,0.4524,0.4882,0.4897,0.4892,0.5108,0.5116,0.4107,0.28,0.1494,0.0355,-0.0411,-0.1138,-0.1696,-0.211,1.1614,1.1243,1.1633,1.1347,1.0556,0.9134,0.748,0.5746,0.3935,0.2596,0.2032,0.2255,0.4206,0.6584,0.7663,0.8412,0.7823,0.4403,-0.1326,-0.7406,-1.0343,-1.2187,-1.4096,-1.4768,-1.5135,-1.5187,-1.643,-1.8133,-1.9812,-2.1325,-2.2489,-2.3774,-2.5046,-2.4841,-2.4684,-2.391,-2.3439,-2.3036,-2.2625,-2.2376,-2.2415,-2.2997,-2.3558,-2.3477,-2.3286,-2.2886,-2.226,-2.2282,-2.1191,-1.8608,-1.4592,-0.9908,-0.5243,0.1006,0.6534,1.0818,1.3147,1.3821,1.1556,0.8842,0.7302,0.7463,0.1524,-0.2308,-0.3449,-0.4153,-0.3192,-0.2654,0.0,-0.4205,-0.5101,-0.6967,-0.7217,-0.8229,-1.1542,-1.5857,-1.8736,-1.9114,-1.9228,-1.9675,-1.7812,-1.2659,-0.7333,-0.2985,-0.2003,-0.2202,-0.2211,-0.1588,-0.1333,-0.1262,-0.1534,-0.1767,-0.2668,-0.2828,-0.1915,-0.0257,0.1964,0.3294,0.4996,0.5769,0.5425,0.553,0.583,0.5464,0.4897,0.4648,0.4442,0.3398,0.2408,0.1223,0.0207,-0.0373,-0.0853,-0.125,-0.1576,1.1676,1.195,1.2259,1.1516,0.9982,0.8042,0.5812,0.3509,0.1727,0.0263,-0.0744,0.1155,0.3017,0.4468,0.732,0.9196,0.8513,0.5004,-0.1079,-0.6394,-0.9667,-1.2399,-1.4879,-1.6739,-1.7665,-1.7034,-1.773,-1.9203,-2.0854,-2.2121,-2.3454,-2.5065,-2.5463,-2.513,-2.407,-2.3968,-2.3996,-2.3393,-2.332,-2.3302,-2.3407,-2.3952,-2.4504,-2.4308,-2.3338,-2.1965,-2.098,-2.0576,-1.9907,-1.7968,-1.4046,-0.9326,-0.4454,-0.0058,0.4898,0.9536,1.1344,1.1684,1.0761,0.7456,0.5329,0.8607,0.2878,-0.3206,-0.6382,-0.6654,-0.5665,-0.5647,-0.6066,-0.7314,-0.6741,-0.9196,-1.0427,-1.0982,-1.3952,-1.7447,-1.9216,-1.9745,-1.9825,-2.0544,-1.5886,-0.9444,-0.4391,0.0,0.0,-0.0045,-0.0045,-0.0046,0.0146,-0.005,-0.0509,-0.0726,-0.1561,-0.0981,0.0,0.1216,0.3423,0.4016,0.5609,0.5688,0.5689,0.559,0.5479,0.5208,0.477,0.4406,0.3804,0.2905,0.1881,0.0823,0.0055,-0.0604,-0.0826,-0.0866,-0.1065,1.2172,1.1541,1.191,1.0748,0.8492,0.6825,0.4862,0.2702,0.0677,-0.1336,-0.238,0.0279,0.2231,0.3853,0.6912,0.855,0.7672,0.3976,-0.0175,-0.5066,-0.8952,-1.3089,-1.65,-1.8819,-2.0237,-2.0696,-2.0182,-2.0404,-2.2039,-2.3103,-2.3878,-2.5149,-2.5541,-2.5269,-2.5013,-2.4711,-2.418,-2.3892,-2.3855,-2.3934,-2.4399,-2.4789,-2.4898,-2.4398,-2.3042,-2.1141,-1.9558,-1.9212,-1.8663,-1.6652,-1.2283,-0.7335,-0.2676,0.052,0.4795,0.9018,1.0856,1.1024,0.9817,0.6086,0.4337,0.4389,0.181,-0.2548,-0.6256,-0.794,-0.7539,-0.7657,-0.8684,-1.0251,-1.2104,-1.357,-1.2652,-1.2703,-1.5003,-1.8751,-1.9361,-1.8752,-1.8514,-1.9788,-1.3605,-0.6808,-0.1986,0.1482,0.159,0.1364,0.1109,0.0995,0.0942,0.0472,-0.026,-0.0319,-0.0381,0.0754,0.202,0.3321,0.4733,0.4371,0.5105,0.5322,0.5248,0.5095,0.4877,0.4036,0.3913,0.3791,0.3107,0.2282,0.0857,-0.0587,-0.0846,-0.0952,-0.0864,-0.0852,-0.0658,1.0713,1.0574,1.0391,0.9166,0.7178,0.5565,0.3779,0.187,-0.0065,-0.0864,-0.0333,0.106,0.2945,0.4845,0.6597,0.7359,0.5689,0.2142,-0.164,-0.5705,-1.0784,-1.4899,-1.7928,-2.0098,-2.1383,-2.1776,-2.1241,-2.1489,-2.312,-2.2777,-2.3722,-2.5059,-2.5478,-2.5585,-2.5348,-2.459,-2.417,-2.4063,-2.3976,-2.4109,-2.4585,-2.4821,-2.4339,-2.3814,-2.2368,-2.0145,-1.7528,-1.7541,-1.702,-1.48,-1.0307,-0.5059,-0.0539,0.3254,0.6213,0.9357,1.0498,0.998,0.8657,0.5502,0.448,0.3345,0.0902,-0.2504,-0.5926,-0.8011,-0.9269,-1.0503,-1.1477,-1.2856,-1.3333,-1.6813,-1.5994,-1.2801,-1.611,-1.9424,-1.9099,-1.7381,-1.7517,-1.7676,-1.1265,-0.4991,0.0223,0.2546,0.2928,0.2781,0.2313,0.1962,0.1663,0.0593,-0.0419,-0.0559,-0.0508,0.0279,0.1413,0.2471,0.3742,0.3832,0.4115,0.4324,0.4092,0.355,0.2865,0.2057,0.223,0.2063,0.2277,0.1366,-0.0285,-0.1861,-0.2229,-0.2268,-0.1301,-0.0779,-0.0746,0.8417,0.8874,0.8328,0.7356,0.6122,0.4857,0.3702,0.2337,0.0733,0.0709,0.1866,0.2673,0.4149,0.5955,0.6735,0.6425,0.4297,0.0067,-0.3617,-0.7796,-1.265,-1.6561,-1.8717,-2.0451,-2.1906,-2.2764,-2.2451,-2.2593,-2.3114,-2.289,-2.3247,-2.3912,-2.467,-2.5362,-2.5098,-2.4462,-2.413,-2.389,-2.3674,-2.385,-2.417,-2.3987,-2.3754,-2.3481,-2.1884,-1.8779,-1.5725,-1.5288,-1.5074,-1.2605,-0.8205,-0.2507,0.225,0.6261,0.8603,0.9416,1.0073,0.8801,0.6748,0.5413,0.3934,0.2809,0.0246,-0.293,-0.625,-0.8985,-1.0966,-1.3495,-1.5361,-1.5728,-1.5933,-1.9445,-1.9008,-1.6809,-1.8335,-2.0975,-1.8306,-1.629,-1.4854,-1.2803,-0.7976,-0.3475,0.145,0.3559,0.3952,0.3113,0.2617,0.1949,0.1506,0.0,-0.0869,-0.1004,-0.0952,-0.0494,0.0038,0.0189,0.1134,0.1431,0.2006,0.252,0.2096,0.1571,0.0729,-0.0247,-0.1007,-0.1065,-0.0329,0.0134,-0.1625,-0.2991,-0.3685,-0.3649,-0.2876,-0.1931,-0.1457,0.6118,0.6002,0.6162,0.5935,0.5631,0.5439,0.5794,0.6002,0.4319,0.3273,0.3192,0.4644,0.531,0.5606,0.7251,0.6226,0.3109,-0.0537,-0.4589,-0.8946,-1.3187,-1.6675,-1.9074,-2.1122,-2.2295,-2.3151,-2.3406,-2.3277,-2.3258,-2.3311,-2.2552,-2.2371,-2.4069,-2.4899,-2.4496,-2.4182,-2.4257,-2.4046,-2.3762,-2.3814,-2.419,-2.4289,-2.4443,-2.338,-2.0695,-1.715,-1.4729,-1.3643,-1.2592,-1.1501,-0.5716,-0.0103,0.4309,0.7267,0.9236,1.0059,0.9927,0.8385,0.5364,0.3917,0.331,0.2174,0.0146,-0.3368,-0.7092,-1.0059,-1.2434,-1.5468,-1.7757,-1.8786,-1.8444,-2.0573,-2.1275,-2.132,-2.1466,-1.9983,-1.6808,-1.4412,-1.3054,-1.1163,-0.7362,-0.2603,0.2267,0.3746,0.4816,0.3826,0.2888,0.2107,0.0941,-0.0841,-0.185,-0.2115,-0.2033,-0.1612,-0.1687,-0.1465,-0.1532,-0.1096,-0.0419,0.024,-0.0395,-0.1111,-0.1836,-0.2765,-0.3576,-0.3654,-0.2547,-0.2499,-0.3457,-0.43,-0.5225,-0.5074,-0.4569,-0.357,-0.2543,0.3874,0.5011,0.5844,0.6186,0.6283,0.7051,0.7181,0.6702,0.583,0.5948,0.6551,0.6588,0.6602,0.6524,0.7202,0.522,0.1633,-0.2214,-0.5911,-0.9758,-1.3774,-1.7091,-1.8713,-2.0292,-2.1701,-2.2603,-2.3119,-2.3527,-2.3601,-2.3948,-2.3638,-2.2854,-2.3812,-2.429,-2.3624,-2.3541,-2.3432,-2.3268,-2.303,-2.2923,-2.297,-2.2897,-2.2632,-2.194,-1.9394,-1.6684,-1.3982,-1.1832,-0.9906,-0.8129,-0.3294,0.126,0.5569,0.8132,0.9298,0.9973,0.9974,0.8385,0.5653,0.3485,0.2661,0.171,-0.0455,-0.432,-0.836,-1.0848,-1.3256,-1.6515,-1.8724,-1.9916,-2.0556,-2.1857,-2.2258,-2.2776,-2.3007,-1.8684,-1.5067,-1.2731,-1.0702,-0.8815,-0.6597,-0.1729,0.2217,0.3357,0.4112,0.3338,0.2167,0.1116,-0.0483,-0.2589,-0.3297,-0.3577,-0.3335,-0.2937,-0.3256,-0.3437,-0.4025,-0.3795,-0.3363,-0.2946,-0.3332,-0.3975,-0.4461,-0.5096,-0.5881,-0.5535,-0.4616,-0.4747,-0.5319,-0.6062,-0.6867,-0.6556,-0.621,-0.5174,-0.4329,0.2422,0.4518,0.5701,0.6543,0.7264,0.8748,0.9066,0.8412,0.8105,0.8879,0.958,0.8592,0.7782,0.759,0.6537,0.4236,0.0419,-0.392,-0.7128,-1.0623,-1.4152,-1.6923,-1.8279,-1.9456,-2.0769,-2.1595,-2.2771,-2.3374,-2.4048,-2.4516,-2.4444,-2.4028,-2.3746,-2.3481,-2.2652,-2.2324,-2.2288,-2.2134,-2.1949,-2.1807,-2.1675,-2.1432,-2.0571,-1.9466,-1.8034,-1.6176,-1.3063,-1.1044,-0.8631,-0.5926,-0.2598,0.1787,0.6313,0.7833,0.8447,0.8962,0.9066,0.8011,0.5476,0.3414,0.2461,0.1006,-0.1644,-0.5824,-0.9419,-1.1273,-1.3238,-1.6959,-1.8913,-2.0234,-2.1145,-2.1977,-2.1998,-2.2086,-2.2312,-1.754,-1.2813,-0.9327,-0.7432,-0.6626,-0.4186,-0.0853,0.2165,0.3003,0.317,0.2703,0.164,0.0273,-0.1737,-0.3939,-0.4487,-0.4635,-0.4151,-0.3847,-0.4051,-0.4684,-0.5586,-0.6196,-0.5748,-0.5663,-0.575,-0.6135,-0.6601,-0.734,-0.7908,-0.753,-0.6616,-0.684,-0.7115,-0.7664,-0.8106,-0.8238,-0.7807,-0.6781,-0.606,0.2174,0.4386,0.5011,0.6579,0.8537,1.0148,1.1536,1.185,1.2145,1.1733,1.0998,0.9733,0.8372,0.7761,0.5976,0.3421,-0.0406,-0.338,-0.6755,-1.018,-1.3461,-1.5687,-1.7338,-1.9055,-2.0644,-2.1924,-2.2685,-2.3191,-2.3599,-2.3662,-2.4165,-2.4513,-2.3106,-2.2247,-2.1536,-2.099,-2.0891,-2.0798,-2.0735,-2.0734,-2.0668,-2.0442,-1.9871,-1.8463,-1.6296,-1.396,-1.2313,-1.0766,-0.8753,-0.6121,-0.2562,0.1183,0.5098,0.6624,0.7149,0.734,0.7965,0.665,0.4251,0.2716,0.183,0.0031,-0.3235,-0.7473,-1.024,-1.1452,-1.3728,-1.6884,-1.8861,-1.9855,-2.0323,-2.0565,-2.1012,-2.0936,-2.029,-1.6753,-1.1041,-0.4271,-0.2782,-0.3439,-0.1796,0.1315,0.2108,0.2922,0.2203,0.1616,0.0401,-0.1013,-0.2726,-0.4656,-0.524,-0.5418,-0.4883,-0.4559,-0.4437,-0.5271,-0.6576,-0.7344,-0.7275,-0.7458,-0.7685,-0.8152,-0.8618,-0.8711,-0.908,-0.892,-0.8685,-0.8421,-0.8397,-0.897,-0.933,-0.935,-0.9009,-0.8086,-0.7569,0.1734,0.3623,0.5098,0.7346,1.0006,1.1623,1.1973,1.1376,1.1051,1.0141,0.9033,0.8464,0.7417,0.5976,0.4897,0.2302,-0.1408,-0.3404,-0.6341,-0.9268,-1.2117,-1.4646,-1.6655,-1.8657,-2.0459,-2.1799,-2.2418,-2.24,-2.2317,-2.1992,-2.1265,-2.1039,-2.1061,-2.0667,-1.9989,-1.939,-1.9271,-1.9307,-1.9439,-1.9576,-1.9504,-1.9373,-1.8791,-1.7533,-1.7206,-1.4845,-1.265,-1.0318,-0.8105,-0.567,-0.2775,0.0502,0.3434,0.4729,0.5285,0.5508,0.6208,0.5072,0.2925,0.1373,-0.0064,-0.3492,-0.6503,-0.919,-1.0814,-1.1661,-1.3939,-1.6564,-1.8713,-1.9612,-2.0414,-2.0367,-2.029,-1.9813,-1.7968,-1.4987,-0.9677,-0.2532,0.0447,-0.0891,0.0617,0.3157,0.3118,0.2858,0.1666,0.0464,-0.0883,-0.2213,-0.3728,-0.4835,-0.5292,-0.5658,-0.5178,-0.5051,-0.4939,-0.6215,-0.7673,-0.8224,-0.8689,-0.889,-0.9167,-1.0032,-1.037,-1.0385,-1.0158,-0.9916,-0.9701,-0.9496,-0.9551,-0.984,-1.0138,-1.0371,-0.9895,-0.924,-0.9131,0.1682,0.3428,0.528,0.767,1.0226,1.1397,1.0931,0.9559,0.8848,0.7728,0.6271,0.6086,0.5177,0.3725,0.2737,0.1043,-0.1734,-0.3466,-0.5679,-0.8383,-1.1195,-1.3735,-1.6116,-1.8144,-1.9901,-2.1194,-2.1294,-2.1043,-2.0758,-1.9482,-1.8536,-1.8084,-1.8048,-1.7466,-1.7801,-1.7263,-1.7275,-1.7394,-1.7809,-1.8271,-1.8232,-1.7981,-1.76,-1.6641,-1.6487,-1.5036,-1.2259,-0.9578,-0.733,-0.5288,-0.3041,-0.0682,0.1315,0.2689,0.3223,0.3666,0.387,0.3434,0.1541,0.0252,-0.1823,-0.5355,-0.8672,-1.0363,-1.1288,-1.2045,-1.381,-1.6459,-1.8265,-1.9396,-1.9967,-1.9292,-1.8501,-1.78,-1.5769,-1.2684,-0.7274,-0.1085,0.0654,0.1523,0.3273,0.4342,0.2835,0.2186,0.0819,-0.0454,-0.1715,-0.2717,-0.3551,-0.4453,-0.4882,-0.5168,-0.5227,-0.525,-0.54,-0.6604,-0.7838,-0.9256,-0.9631,-0.9945,-1.0378,-1.1193,-1.1613,-1.1465,-1.1223,-1.0943,-1.0792,-1.0622,-1.0538,-1.052,-1.1031,-1.1641,-1.0891,-1.0376,-1.0593,0.2165,0.3906,0.5287,0.7009,0.8476,0.8913,0.8375,0.7157,0.6355,0.5374,0.4008,0.2476,0.1902,0.1701,0.1037,-0.0495,-0.1891,-0.2885,-0.4882,-0.815,-1.0405,-1.2868,-1.5375,-1.7593,-1.9126,-2.0026,-1.9861,-1.9467,-1.912,-1.7337,-1.6016,-1.443,-1.3738,-1.3576,-1.5072,-1.4867,-1.4821,-1.5159,-1.581,-1.6472,-1.6673,-1.6467,-1.6061,-1.5671,-1.5442,-1.4078,-1.169,-0.8614,-0.6533,-0.5231,-0.3031,-0.0993,0.0477,0.1331,0.162,0.1501,0.2199,0.1447,-0.0462,-0.0513,-0.2794,-0.6606,-0.9773,-1.167,-1.2143,-1.2587,-1.3392,-1.6109,-1.7426,-1.8141,-1.8028,-1.7434,-1.66,-1.5114,-1.3047,-0.9815,-0.4482,0.0426,0.2507,0.3551,0.4501,0.5063,0.3003,0.1325,-0.0087,-0.1359,-0.2553,-0.3288,-0.3685,-0.3916,-0.4215,-0.442,-0.4684,-0.5268,-0.5506,-0.6741,-0.8078,-0.9587,-1.0527,-1.0661,-1.1034,-1.16,-1.1954,-1.2298,-1.2179,-1.1836,-1.176,-1.1711,-1.2226,-1.274,-1.2695,-1.2851,-1.2064,-1.1664,-1.1939,0.1342,0.1936,0.2759,0.3299,0.3906,0.5366,0.5085,0.3453,0.1915,0.0856,0.0578,0.0,0.022,0.0295,0.0367,-0.0666,-0.2171,-0.2804,-0.477,-0.7733,-0.9879,-1.2658,-1.5077,-1.6855,-1.8299,-1.91,-1.8703,-1.7333,-1.667,-1.4883,-1.3148,-1.1589,-0.9972,-0.9878,-1.1146,-1.18,-1.234,-1.2573,-1.3584,-1.4584,-1.4595,-1.4783,-1.4783,-1.4337,-1.4024,-1.2945,-1.0884,-0.7727,-0.5841,-0.4857,-0.2693,-0.1397,-0.0305,0.0447,0.0199,-0.0021,0.0238,-0.2067,-0.3979,-0.4704,-0.372,-0.7142,-1.0201,-1.2095,-1.2294,-1.2414,-1.3722,-1.4908,-1.5615,-1.6089,-1.6304,-1.5504,-1.445,-1.2402,-1.0065,-0.6776,-0.2229,0.2344,0.5381,0.5439,0.6035,0.3823,0.1698,0.0521,-0.0785,-0.1597,-0.262,-0.2918,-0.3241,-0.32,-0.3354,-0.3517,-0.3853,-0.4705,-0.5677,-0.7166,-0.8322,-0.9614,-1.0578,-1.1134,-1.1558,-1.205,-1.2346,-1.2643,-1.2716,-1.2713,-1.2785,-1.3131,-1.4545,-1.5203,-1.462,-1.4076,-1.3367,-1.3195,-1.3486,0.0485,0.0401,0.0721,0.0567,0.0405,0.19,0.1386,-0.0707,-0.2313,-0.2902,-0.2327,-0.1588,-0.0855,-0.038,-0.015,-0.0224,-0.1931,-0.2639,-0.4493,-0.7347,-0.9742,-1.2158,-1.428,-1.5891,-1.6967,-1.7574,-1.6574,-1.5135,-1.4038,-1.2188,-1.0009,-0.8,-0.6696,-0.6486,-0.7482,-0.8488,-0.9978,-1.0389,-1.1436,-1.2441,-1.2616,-1.2907,-1.3288,-1.3088,-1.271,-1.1937,-0.9487,-0.7035,-0.4673,-0.365,-0.255,-0.1446,-0.0667,-0.0716,-0.108,-0.1447,-0.2583,-0.493,-0.7001,-0.6186,-0.5603,-0.7306,-1.0288,-1.1614,-1.1993,-1.2316,-1.3234,-1.396,-1.3667,-1.4094,-1.4587,-1.371,-1.1999,-1.0021,-0.7108,-0.3855,-0.0491,0.4122,0.6212,0.6374,0.6168,0.3525,0.058,-0.0415,-0.1448,-0.2033,-0.2599,-0.2693,-0.2757,-0.2708,-0.2731,-0.2937,-0.3505,-0.4499,-0.6002,-0.7855,-0.8901,-0.9774,-1.0574,-1.139,-1.209,-1.2586,-1.2783,-1.2961,-1.3035,-1.3281,-1.385,-1.4547,-1.5539,-1.5959,-1.5673,-1.5143,-1.4565,-1.44,-1.4391,-0.0352,-0.0628,-0.0449,-0.0904,-0.1544,-0.1274,-0.2557,-0.4816,-0.545,-0.5039,-0.3922,-0.3083,-0.172,-0.0451,-0.022,-0.0362,-0.1007,-0.2008,-0.4268,-0.6859,-0.9085,-1.1262,-1.2891,-1.4362,-1.4791,-1.4575,-1.3751,-1.2377,-1.1343,-0.9304,-0.6743,-0.4778,-0.4286,-0.3961,-0.4557,-0.5749,-0.7365,-0.8063,-0.9173,-1.0171,-1.0728,-1.1142,-1.1428,-1.1578,-1.1741,-1.0405,-0.7864,-0.4861,-0.3134,-0.2017,-0.1177,-0.0825,-0.091,-0.156,-0.2388,-0.3414,-0.4548,-0.692,-0.8462,-0.7003,-0.6734,-0.7647,-0.8524,-0.9984,-1.1111,-1.1855,-1.2632,-1.276,-1.249,-1.2736,-1.2885,-1.1377,-0.9847,-0.7313,-0.4544,-0.1473,0.1584,0.4316,0.5994,0.6631,0.6777,0.4607,0.0626,-0.1096,-0.2006,-0.213,-0.244,-0.2304,-0.231,-0.2286,-0.2343,-0.2663,-0.337,-0.4458,-0.6127,-0.8118,-0.92,-0.9926,-1.0873,-1.1696,-1.2386,-1.2953,-1.305,-1.3187,-1.3346,-1.3735,-1.4277,-1.5111,-1.603,-1.6168,-1.5975,-1.5652,-1.501,-1.4609,-1.451,-0.1387,-0.1747,-0.1954,-0.2516,-0.3506,-0.431,-0.5314,-0.6031,-0.5626,-0.4788,-0.3834,-0.2152,-0.0762,0.0358,0.1183,0.062,-0.0409,-0.1747,-0.3515,-0.5726,-0.7757,-0.9391,-1.0588,-1.148,-1.1707,-1.1375,-1.0569,-0.9411,-0.8139,-0.6235,-0.4672,-0.3163,-0.251,-0.2255,-0.2618,-0.3435,-0.442,-0.5673,-0.7007,-0.8092,-0.8871,-0.9348,-0.9688,-1.0146,-0.9866,-0.8365,-0.6127,-0.3256,-0.1635,-0.0872,-0.0312,-0.003,-0.0222,-0.1327,-0.2549,-0.4442,-0.607,-0.7895,-0.8966,-0.8889,-0.8342,-0.7455,-0.7044,-0.7751,-0.9286,-1.0707,-1.1405,-1.1315,-1.0817,-1.0737,-1.0098,-0.8741,-0.6739,-0.4039,-0.1314,0.1503,0.4251,0.5619,0.709,0.6438,0.6597,0.3496,-0.0284,-0.1873,-0.2617,-0.2477,-0.2284,-0.2114,-0.202,-0.1982,-0.2287,-0.2611,-0.3259,-0.4367,-0.6316,-0.8288,-0.9204,-1.009,-1.1075,-1.1872,-1.2402,-1.2895,-1.3145,-1.3369,-1.3445,-1.4025,-1.4711,-1.5422,-1.5826,-1.5948,-1.5786,-1.5701,-1.5479,-1.492,-1.4443,-0.1327,-0.169,-0.1991,-0.2626,-0.3389,-0.431,-0.4876,-0.5029,-0.4886,-0.421,-0.2712,-0.1077,0.0293,0.1378,0.1921,0.1556,0.0259,-0.0766,-0.2384,-0.432,-0.5932,-0.719,-0.8086,-0.8482,-0.8595,-0.813,-0.7405,-0.6389,-0.5146,-0.3607,-0.1935,-0.1046,-0.084,-0.082,-0.085,-0.1021,-0.1774,-0.3284,-0.4806,-0.6112,-0.6935,-0.7649,-0.815,-0.8134,-0.7467,-0.6137,-0.4504,-0.1796,-0.026,0.0261,0.0693,0.0356,-0.0299,-0.1839,-0.3666,-0.5498,-0.69,-0.8336,-0.936,-0.9441,-0.8873,-0.7631,-0.5623,-0.5747,-0.6959,-0.843,-0.9188,-0.9558,-0.885,-0.8147,-0.7129,-0.5845,-0.3225,-0.0602,0.206,0.471,0.6209,0.7488,0.7216,0.6353,0.4277,0.1337,-0.1001,-0.2405,-0.3078,-0.2653,-0.2327,-0.2084,-0.2047,-0.2068,-0.2427,-0.2915,-0.3554,-0.4335,-0.6391,-0.8413,-0.9656,-1.0496,-1.1179,-1.1941,-1.2459,-1.2808,-1.308,-1.3328,-1.3526,-1.4097,-1.4712,-1.4832,-1.5149,-1.5206,-1.5261,-1.5058,-1.4917,-1.4813,-1.4397,-0.057,-0.0851,-0.1135,-0.1748,-0.2232,-0.2621,-0.2621,-0.2608,-0.3496,-0.3019,-0.1159,0.0074,0.1395,0.2566,0.288,0.2444,0.1334,0.03,-0.1052,-0.2994,-0.4144,-0.514,-0.5487,-0.588,-0.5597,-0.5083,-0.4388,-0.3537,-0.2415,-0.1239,-0.0096,0.1126,0.0955,0.0802,0.0758,0.0713,-0.0133,-0.1555,-0.319,-0.459,-0.533,-0.6024,-0.6601,-0.6152,-0.5204,-0.3941,-0.2321,-0.0373,0.1601,0.1507,0.1194,0.0555,-0.1246,-0.3163,-0.5136,-0.6359,-0.7577,-0.8757,-0.952,-0.9651,-0.8652,-0.7081,-0.4945,-0.4843,-0.5849,-0.7029,-0.7902,-0.7808,-0.7155,-0.598,-0.4888,-0.2872,-0.0345,0.259,0.546,0.769,0.9281,0.9225,0.7465,0.5314,0.0131,-0.2238,-0.1284,-0.2572,-0.2558,-0.2376,-0.2311,-0.2096,-0.2253,-0.2321,-0.2813,-0.3305,-0.3775,-0.4683,-0.6642,-0.8584,-1.0146,-1.1041,-1.1559,-1.1957,-1.2495,-1.2755,-1.2945,-1.3241,-1.36,-1.4086,-1.4513,-1.4613,-1.4469,-1.4169,-1.4159,-1.4309,-1.4329,-1.4231,-1.412,-0.0185,-0.0182,-0.1055,-0.181,-0.2302,-0.2499,-0.2027,-0.126,-0.0691,-0.0299,0.05,0.1858,0.316,0.4041,0.399,0.3478,0.2723,0.1446,0.0268,-0.0891,-0.2063,-0.2764,-0.2727,-0.3104,-0.2668,-0.1912,-0.1263,-0.0799,0.029,0.0898,0.1114,0.1769,0.1736,0.1647,0.1561,0.1431,0.0714,-0.0446,-0.1453,-0.3303,-0.4753,-0.4696,-0.4837,-0.5004,-0.4559,-0.3265,-0.1814,-0.0367,0.0839,0.1222,0.0796,-0.0601,-0.2723,-0.4915,-0.5955,-0.6549,-0.8139,-0.9275,-0.9713,-0.9757,-0.9098,-0.7495,-0.5846,-0.5236,-0.534,-0.6174,-0.648,-0.6093,-0.5306,-0.4023,-0.2316,0.0012,0.2552,0.5686,0.8557,1.0359,1.203,0.9875,0.7711,0.2456,-0.3299,-0.38,-0.2608,-0.2051,-0.1972,-0.2002,-0.2112,-0.2166,-0.2727,-0.2985,-0.3472,-0.3956,-0.4006,-0.508,-0.7017,-0.8727,-1.0325,-1.1249,-1.171,-1.2091,-1.2487,-1.2808,-1.3042,-1.3389,-1.3711,-1.3992,-1.4108,-1.4091,-1.3831,-1.3394,-1.3267,-1.3434,-1.3288,-1.31,-1.3195,0.0713,0.06,-0.0409,-0.0964,-0.12,-0.1564,-0.1063,0.0073,0.1132,0.1884,0.2359,0.3388,0.4412,0.5121,0.4884,0.4246,0.3475,0.2454,0.1284,0.0431,-0.0047,-0.0554,-0.0684,-0.0635,-0.0276,0.0375,0.1128,0.1862,0.2763,0.2652,0.2618,0.3031,0.276,0.2188,0.2055,0.1832,0.1207,0.0134,-0.0336,-0.1823,-0.3991,-0.4132,-0.4305,-0.4649,-0.4077,-0.298,-0.2088,-0.0842,-0.0063,0.0089,-0.044,-0.1687,-0.3591,-0.5403,-0.6606,-0.753,-0.8727,-0.985,-0.9952,-0.9908,-0.9893,-0.8778,-0.7933,-0.7793,-0.6884,-0.7449,-0.6057,-0.5522,-0.4204,-0.2893,-0.0395,0.1999,0.4928,0.8012,0.9857,1.1516,1.0527,0.8222,0.4904,0.018,-0.3538,-0.4086,-0.3021,-0.2223,-0.2132,-0.1971,-0.2022,-0.243,-0.2903,-0.3503,-0.4108,-0.4603,-0.4827,-0.5426,-0.7024,-0.8809,-1.0457,-1.1206,-1.1776,-1.2164,-1.2487,-1.2795,-1.3098,-1.327,-1.3333,-1.3481,-1.357,-1.3496,-1.3111,-1.249,-1.2462,-1.2674,-1.2313,-1.2001,-1.1909,0.1615,0.1281,0.0384,0.0151,0.03,-0.0293,0.0,0.1218,0.2321,0.3361,0.4201,0.4515,0.5211,0.5474,0.5292,0.439,0.3681,0.3204,0.2271,0.1491,0.1105,0.073,0.0814,0.1143,0.1485,0.2047,0.2826,0.3626,0.4456,0.3921,0.3707,0.4491,0.4008,0.3132,0.2909,0.2593,0.1921,0.0693,-0.0124,-0.0901,-0.2231,-0.3553,-0.4209,-0.4263,-0.406,-0.3501,-0.2783,-0.2085,-0.131,-0.1557,-0.216,-0.3285,-0.4706,-0.6337,-0.7178,-0.8313,-0.9798,-1.0544,-1.0701,-1.0709,-1.1295,-1.1482,-1.1069,-1.051,-0.9699,-0.8134,-0.6731,-0.5679,-0.4355,-0.2051,0.0436,0.3156,0.6176,0.8983,1.0485,1.0993,0.8621,0.6292,0.2321,-0.1879,-0.2916,-0.3775,-0.3282,-0.2499,-0.2193,-0.205,-0.2268,-0.2666,-0.314,-0.3829,-0.4446,-0.5176,-0.5713,-0.6535,-0.7409,-0.8876,-1.0627,-1.1062,-1.1587,-1.2038,-1.2435,-1.2719,-1.2909,-1.2915,-1.2999,-1.3102,-1.301,-1.2896,-1.2404,-1.1657,-1.145,-1.1423,-1.1142,-1.0798,-1.0578,0.172,0.1116,0.0515,0.0147,0.0,-0.0428,0.0208,0.1534,0.2413,0.3456,0.456,0.5276,0.5799,0.6401,0.6101,0.5288,0.4258,0.3794,0.3178,0.2446,0.1807,0.1716,0.1672,0.1706,0.2628,0.334,0.3972,0.4535,0.5005,0.4395,0.4008,0.4403,0.3391,0.2821,0.2642,0.2273,0.171,0.0635,-0.0243,-0.1076,-0.2244,-0.3403,-0.4176,-0.4628,-0.5132,-0.4846,-0.4428,-0.3977,-0.365,-0.375,-0.4183,-0.4984,-0.6209,-0.755,-0.8406,-0.9142,-1.0649,-1.2227,-1.2521,-1.2505,-1.3243,-1.473,-1.4488,-1.4617,-1.3086,-1.0632,-0.9631,-0.9224,-0.7361,-0.4053,-0.1363,0.1499,0.4462,0.7323,0.9369,0.7728,0.5646,0.3712,0.098,-0.1434,-0.2887,-0.3071,-0.2761,-0.2242,-0.1938,-0.1937,-0.2232,-0.2682,-0.3664,-0.425,-0.4786,-0.5637,-0.6495,-0.6958,-0.7532,-0.912,-1.0564,-1.0972,-1.1352,-1.1832,-1.2209,-1.2581,-1.271,-1.2528,-1.2677,-1.2811,-1.2662,-1.2428,-1.1587,-1.0925,-1.0429,-1.0123,-0.9919,-0.9801,-0.9794]}]]